[[{"header":{"parameterUnit":"m.s-1","parameterCategory":1,"la1":30.6,"la2":29.2853,"lo1":-89.7004,"lo2":-87.6739,"dy":0.0162,"dx":0.0183,"nx":112,"ny":82,"refTime":"2026-05-17T12:00:00:Z","depth":0,"parameterNumber":2,"parameterNumberName":"U-component_of_WINDS"},"data":[0.0,0.0,0.0,0.0,0.0,0.0,0.0,0.0,0.0,0.0,0.0,0.0,0.0,0.0,0.0,0.0,0.0,0.0,0.0,0.0,0.0,0.0,0.0,0.0,0.0,0.0,0.0,0.0,0.0,0.0,0.0,0.0,0.0,0.0,0.0,0.0,0.0,0.0,0.0,0.0,0.0,0.0,0.0,0.0,0.0,0.0,0.0,0.0,0.0,0.0,0.0,0.0,0.0,0.0,0.0,0.0,0.0,0.0,0.0,0.0,0.0,0.0,0.0,0.0,0.0,0.0,0.0,0.0,0.0,0.0,0.0,0.0,0.0,0.0,0.0,0.0,0.0,0.0,0.0,0.0,0.0,0.0,0.0,0.0,0.0,0.0,0.0,0.0,0.0,0.0,0.0,-1.7991,-2.0215,-2.1212,-2.0538,-1.97,-1.8769,-1.7767,0.0,0.0,0.0,0.0,0.0,0.0,0.0,0.0,0.0,0.0,0.0,0.0,0.0,0.0,0.0,0.0,0.0,0.0,0.0,0.0,0.0,0.0,0.0,0.0,0.0,0.0,0.0,0.0,0.0,0.0,0.0,0.0,0.0,0.0,0.0,0.0,0.0,0.0,0.0,0.0,0.0,0.0,0.0,0.0,0.0,0.0,0.0,0.0,0.0,0.0,0.0,0.0,0.0,0.0,0.0,0.0,0.0,0.0,0.0,0.0,0.0,0.0,0.0,0.0,0.0,0.0,0.0,0.0,0.0,0.0,0.0,0.0,0.0,0.0,0.0,0.0,0.0,0.0,0.0,0.0,0.0,0.0,0.0,0.0,0.0,0.0,0.0,0.0,0.0,0.0,0.0,0.0,0.0,0.0,0.0,0.0,0.0,0.0,0.0,0.0,0.0,0.0,0.0,0.0,-1.6526,-2.0508,-2.1273,-2.1446,-2.1331,-2.0581,-1.9427,-1.7811,0.0,0.0,0.0,0.0,0.0,0.0,0.0,0.0,0.0,0.0,0.0,0.0,0.0,0.0,0.0,0.0,0.0,0.0,0.0,0.0,0.0,0.0,0.0,0.0,0.0,0.0,0.0,0.0,0.0,0.0,0.0,0.0,0.0,0.0,0.0,0.0,0.0,0.0,0.0,0.0,0.0,0.0,0.0,0.0,0.0,0.0,0.0,0.0,0.0,0.0,0.0,0.0,0.0,0.0,0.0,0.0,0.0,0.0,0.0,0.0,0.0,0.0,0.0,0.0,0.0,0.0,0.0,0.0,0.0,0.0,0.0,0.0,0.0,0.0,0.0,0.0,0.0,0.0,0.0,0.0,0.0,0.0,0.0,0.0,0.0,0.0,0.0,0.0,0.0,0.0,0.0,0.0,0.0,0.0,0.0,0.0,0.0,0.0,0.0,0.0,0.0,0.0,0.0,-1.6769,-1.9353,-2.1293,-2.235,-2.2528,-2.1581,-2.075,-1.9369,-1.7199,-1.5411,0.0,0.0,0.0,0.0,0.0,0.0,0.0,0.0,0.0,0.0,0.0,0.0,0.0,0.0,0.0,0.0,0.0,0.0,0.0,0.0,0.0,0.0,0.0,0.0,0.0,0.0,0.0,0.0,0.0,0.0,0.0,0.0,0.0,0.0,0.0,0.0,0.0,0.0,0.0,0.0,0.0,0.0,0.0,0.0,0.0,0.0,0.0,0.0,0.0,0.0,0.0,0.0,0.0,0.0,0.0,0.0,0.0,0.0,0.0,0.0,0.0,0.0,0.0,0.0,0.0,0.0,0.0,0.0,0.0,0.0,0.0,0.0,0.0,0.0,0.0,0.0,0.0,0.0,0.0,0.0,0.0,0.0,0.0,0.0,0.0,0.0,0.0,0.0,0.0,0.0,0.0,0.0,0.0,0.0,0.0,0.0,0.0,0.0,0.0,0.0,0.0,0.0,-1.9428,-2.1581,-2.1773,-2.3182,-2.3471,-2.1947,-2.0885,-1.9212,-1.6657,-1.4862,0.0,0.0,0.0,0.0,0.0,0.0,0.0,0.0,0.0,0.0,0.0,0.0,0.0,0.0,0.0,0.0,0.0,0.0,0.0,0.0,0.0,0.0,0.0,0.0,0.0,0.0,0.0,0.0,0.0,0.0,0.0,0.0,0.0,0.0,0.0,0.0,0.0,0.0,0.0,0.0,0.0,0.0,0.0,0.0,0.0,0.0,0.0,0.0,0.0,0.0,0.0,0.0,0.0,0.0,0.0,0.0,0.0,0.0,0.0,0.0,0.0,0.0,0.0,0.0,0.0,0.0,0.0,0.0,0.0,0.0,0.0,0.0,0.0,0.0,0.0,0.0,0.0,0.0,0.0,0.0,0.0,0.0,0.0,0.0,0.0,0.0,0.0,0.0,0.0,0.0,0.0,0.0,0.0,0.0,0.0,0.0,0.0,0.0,0.0,0.0,0.0,0.0,-1.9424,-2.1812,-2.2624,-2.3548,-2.3725,-2.2797,-2.1235,-1.9212,-1.6657,-1.4862,0.0,0.0,0.0,0.0,0.0,0.0,0.0,0.0,0.0,0.0,0.0,0.0,0.0,0.0,0.0,0.0,0.0,0.0,0.0,0.0,0.0,0.0,0.0,0.0,0.0,0.0,0.0,0.0,0.0,0.0,0.0,0.0,0.0,0.0,0.0,0.0,0.0,0.0,0.0,0.0,0.0,0.0,0.0,0.0,0.0,0.0,0.0,0.0,0.0,0.0,0.0,0.0,0.0,0.0,0.0,0.0,0.0,0.0,0.0,0.0,0.0,0.0,0.0,0.0,0.0,0.0,0.0,0.0,0.0,0.0,0.0,0.0,0.0,0.0,0.0,0.0,0.0,0.0,0.0,0.0,0.0,0.0,0.0,0.0,0.0,0.0,0.0,0.0,0.0,0.0,0.0,0.0,0.0,0.0,0.0,0.0,0.0,0.0,0.0,0.0,0.0,0.0,-2.0302,-2.2493,0.0,-2.4134,-2.4396,-2.2975,-2.129,-1.8985,-1.5889,0.0,0.0,0.0,0.0,0.0,0.0,0.0,0.0,0.0,0.0,0.0,0.0,0.0,0.0,0.0,0.0,0.0,0.0,0.0,0.0,0.0,0.0,0.0,0.0,0.0,0.0,0.0,0.0,0.0,0.0,0.0,0.0,0.0,0.0,0.0,0.0,0.0,0.0,0.0,0.0,0.0,0.0,0.0,0.0,0.0,0.0,0.0,0.0,0.0,0.0,0.0,0.0,0.0,0.0,0.0,0.0,0.0,0.0,0.0,0.0,0.0,0.0,0.0,0.0,0.0,0.0,0.0,0.0,0.0,0.0,0.0,0.0,0.0,0.0,0.0,0.0,0.0,0.0,0.0,0.0,0.0,0.0,0.0,0.0,0.0,0.0,0.0,0.0,0.0,0.0,0.0,0.0,0.0,0.0,0.0,0.0,0.0,0.0,0.0,0.0,0.0,0.0,-1.7678,-2.0848,-2.2937,0.0,-2.4464,-2.4782,-2.3058,-2.1555,-1.9143,-1.543,0.0,0.0,0.0,0.0,0.0,0.0,0.0,0.0,0.0,0.0,0.0,0.0,0.0,0.0,0.0,0.0,0.0,0.0,0.0,0.0,0.0,0.0,0.0,0.0,0.0,0.0,0.0,0.0,0.0,0.0,0.0,0.0,0.0,0.0,0.0,0.0,0.0,0.0,0.0,0.0,0.0,0.0,0.0,0.0,0.0,0.0,0.0,0.0,0.0,0.0,0.0,0.0,0.0,0.0,0.0,0.0,0.0,0.0,0.0,0.0,0.0,0.0,0.0,0.0,0.0,0.0,0.0,0.0,0.0,0.0,0.0,0.0,0.0,0.0,0.0,0.0,0.0,0.0,0.0,0.0,0.0,0.0,0.0,0.0,0.0,0.0,0.0,0.0,0.0,0.0,0.0,0.0,0.0,0.0,0.0,0.0,0.0,0.0,0.0,0.0,0.0,0.0,-1.7685,-2.0895,-2.3001,-2.3001,-2.4494,-2.4793,-2.3056,-2.2101,-1.9773,0.0,0.0,0.0,0.0,0.0,0.0,0.0,0.0,0.0,0.0,0.0,0.0,0.0,0.0,0.0,0.0,0.0,0.0,0.0,0.0,0.0,0.0,0.0,0.0,0.0,0.0,0.0,0.0,0.0,0.0,0.0,0.0,0.0,0.0,0.0,0.0,0.0,0.0,0.0,0.0,0.0,0.0,0.0,0.0,0.0,0.0,0.0,0.0,0.0,0.0,0.0,0.0,0.0,0.0,0.0,0.0,0.0,0.0,0.0,0.0,0.0,0.0,0.0,0.0,0.0,0.0,0.0,0.0,0.0,0.0,0.0,0.0,0.0,0.0,0.0,0.0,0.0,0.0,0.0,0.0,0.0,0.0,0.0,0.0,0.0,0.0,0.0,0.0,0.0,0.0,0.0,0.0,0.0,0.0,0.0,0.0,0.0,0.0,0.0,0.0,0.0,0.0,0.0,-1.7751,-2.0956,-2.3071,-2.3071,-2.457,-2.4868,-2.3123,-2.2161,-2.0073,-1.635,0.0,0.0,0.0,0.0,0.0,0.0,0.0,0.0,0.0,0.0,0.0,0.0,0.0,0.0,0.0,0.0,0.0,0.0,0.0,0.0,0.0,0.0,0.0,0.0,0.0,0.0,0.0,0.0,0.0,0.0,0.0,0.0,0.0,0.0,0.0,0.0,0.0,0.0,0.0,0.0,0.0,0.0,0.0,0.0,0.0,0.0,0.0,0.0,0.0,0.0,0.0,0.0,0.0,0.0,0.0,0.0,0.0,0.0,0.0,0.0,0.0,0.0,0.0,0.0,0.0,0.0,0.0,0.0,0.0,0.0,0.0,0.0,0.0,0.0,0.0,0.0,0.0,0.0,0.0,0.0,0.0,0.0,0.0,0.0,0.0,0.0,0.0,0.0,0.0,0.0,0.0,0.0,0.0,0.0,0.0,0.0,0.0,0.0,0.0,0.0,0.0,0.0,-1.7771,-2.0986,-2.3109,-2.3109,-2.463,-2.493,-2.3184,-2.255,-2.0587,-1.6774,0.0,0.0,0.0,0.0,0.0,0.0,0.0,0.0,0.0,0.0,0.0,0.0,0.0,0.0,0.0,0.0,0.0,0.0,0.0,0.0,0.0,0.0,0.0,0.0,0.0,0.0,0.0,0.0,0.0,0.0,0.0,0.0,0.0,0.0,0.0,0.0,0.0,0.0,0.0,0.0,0.0,0.0,0.0,0.0,0.0,0.0,0.0,0.0,0.0,0.0,0.0,0.0,0.0,0.0,0.0,0.0,0.0,0.0,0.0,0.0,0.0,0.0,0.0,0.0,0.0,0.0,0.0,0.0,0.0,0.0,0.0,0.0,0.0,0.0,0.0,0.0,0.0,0.0,0.0,0.0,0.0,0.0,0.0,0.0,0.0,0.0,0.0,0.0,0.0,0.0,0.0,0.0,0.0,0.0,0.0,0.0,0.0,0.0,0.0,0.0,0.0,0.0,-1.7882,-2.1043,-2.313,-2.3208,-2.4711,-2.4997,-2.3256,-2.3046,-2.1197,-1.6987,0.0,0.0,0.0,0.0,0.0,0.0,0.0,0.0,0.0,0.0,0.0,0.0,0.0,0.0,0.0,0.0,0.0,0.0,0.0,0.0,0.0,0.0,0.0,0.0,0.0,0.0,0.0,0.0,0.0,0.0,0.0,0.0,0.0,0.0,0.0,0.0,0.0,0.0,0.0,0.0,0.0,0.0,0.0,0.0,0.0,0.0,0.0,0.0,0.0,0.0,0.0,0.0,0.0,0.0,0.0,0.0,0.0,0.0,0.0,0.0,-2.0896,0.0,0.0,0.0,0.0,0.0,0.0,0.0,0.0,0.0,0.0,0.0,0.0,0.0,0.0,0.0,0.0,0.0,0.0,0.0,0.0,0.0,0.0,0.0,0.0,0.0,0.0,0.0,0.0,0.0,0.0,0.0,0.0,0.0,0.0,0.0,0.0,0.0,0.0,0.0,0.0,0.0,-1.8704,-2.1415,-2.3365,-2.4047,-2.5062,-2.4999,-2.3244,-2.304,-2.1468,-1.7844,-1.5338,0.0,0.0,0.0,0.0,0.0,0.0,0.0,0.0,0.0,0.0,0.0,0.0,0.0,0.0,0.0,0.0,0.0,0.0,0.0,0.0,0.0,0.0,0.0,0.0,0.0,0.0,0.0,0.0,0.0,0.0,0.0,0.0,0.0,0.0,0.0,0.0,0.0,0.0,0.0,0.0,0.0,0.0,0.0,0.0,0.0,0.0,0.0,0.0,0.0,0.0,0.0,0.0,0.0,0.0,0.0,0.0,0.0,0.0,0.0,0.0,-2.341,0.0,0.0,0.0,0.0,0.0,0.0,0.0,0.0,0.0,0.0,0.0,0.0,0.0,0.0,0.0,0.0,0.0,0.0,0.0,0.0,0.0,0.0,0.0,0.0,0.0,0.0,0.0,0.0,0.0,0.0,0.0,0.0,0.0,0.0,0.0,0.0,0.0,0.0,0.0,0.0,-1.8958,-2.1515,-2.3427,-2.4305,-2.5183,-2.5159,-2.384,-2.3311,-2.1938,-1.9308,-1.6663,0.0,0.0,0.0,0.0,0.0,0.0,0.0,0.0,0.0,0.0,0.0,0.0,0.0,0.0,0.0,0.0,0.0,0.0,0.0,0.0,0.0,0.0,0.0,0.0,0.0,0.0,0.0,0.0,0.0,0.0,0.0,0.0,0.0,0.0,0.0,0.0,0.0,0.0,0.0,0.0,0.0,0.0,0.0,0.0,0.0,0.0,0.0,0.0,0.0,0.0,0.0,0.0,0.0,-2.7392,-2.8279,-2.869,-2.8764,-2.9272,-3.0042,-2.9575,-2.8203,-2.6337,-2.6917,0.0,0.0,0.0,0.0,0.0,0.0,0.0,0.0,0.0,0.0,0.0,0.0,0.0,0.0,0.0,0.0,0.0,0.0,0.0,0.0,0.0,0.0,0.0,0.0,-2.2622,-2.1978,-1.9813,0.0,0.0,0.0,0.0,0.0,0.0,0.0,0.0,0.0,0.0,0.0,-1.9446,-2.1848,-2.3664,-2.4523,-2.5264,-2.5359,-2.4472,-2.3599,-2.2365,-2.0614,-1.8142,-1.6276,0.0,0.0,0.0,0.0,0.0,0.0,0.0,0.0,0.0,0.0,0.0,0.0,0.0,0.0,0.0,0.0,0.0,0.0,0.0,0.0,0.0,0.0,0.0,0.0,0.0,0.0,0.0,0.0,0.0,0.0,0.0,0.0,-1.2422,-1.3321,0.0,0.0,0.0,0.0,0.0,0.0,0.0,0.0,0.0,0.0,0.0,0.0,0.0,-2.5297,-2.6228,-2.8106,-2.9739,-3.1128,-3.1354,-3.2296,-3.3827,-3.3951,-3.415,-3.4423,-3.5249,0.0,-2.9781,-2.9206,0.0,0.0,0.0,0.0,0.0,0.0,0.0,0.0,0.0,0.0,0.0,0.0,0.0,0.0,0.0,0.0,0.0,0.0,0.0,0.0,0.0,0.0,-2.5512,-2.6157,-2.5746,-2.5102,0.0,-2.235,-2.0008,-1.9128,-1.8155,0.0,0.0,0.0,0.0,0.0,0.0,0.0,-2.132,-2.3117,-2.4561,-2.5436,-2.5633,-2.5359,-2.4472,-2.3604,-2.2359,-2.0613,-1.8744,-1.6994,-1.535,-1.4296,0.0,0.0,0.0,0.0,0.0,0.0,0.0,0.0,0.0,0.0,0.0,0.0,0.0,0.0,0.0,0.0,0.0,0.0,0.0,0.0,0.0,0.0,0.0,0.0,0.0,0.0,0.0,0.0,0.0,-1.3006,-1.4775,-1.5569,-1.6076,-1.6484,0.0,0.0,0.0,0.0,0.0,0.0,0.0,0.0,0.0,-2.5676,-2.7711,-2.9138,-2.9945,-3.2105,-3.3531,-3.4245,-3.4695,-3.5343,-3.6147,-3.6251,-3.6416,-3.6642,-3.7179,-3.6408,-3.4633,-3.2898,-3.1352,-2.9921,0.0,0.0,0.0,0.0,-2.7381,-2.784,-2.789,-2.794,-2.7861,-2.7027,0.0,0.0,0.0,0.0,0.0,0.0,0.0,0.0,0.0,0.0,-2.7268,-2.7639,-2.7444,-2.7151,-2.7151,-2.598,-2.438,0.0,-2.11,-1.9911,-1.9033,0.0,0.0,0.0,0.0,-2.0657,-2.2354,-2.3644,-2.4738,-2.5613,-2.5693,-2.5556,-2.5162,-2.3889,-2.2764,-2.2015,-1.9836,-1.8237,-1.747,-1.6521,-1.5192,0.0,0.0,0.0,0.0,0.0,0.0,0.0,0.0,0.0,0.0,0.0,0.0,0.0,0.0,0.0,0.0,0.0,0.0,0.0,0.0,0.0,0.0,0.0,0.0,0.0,0.0,0.0,0.0,-1.5894,-1.7423,-1.8468,-1.9113,-1.9638,0.0,0.0,0.0,0.0,0.0,0.0,-2.5544,-2.6239,-2.744,-2.9298,-3.1194,-3.247,-3.3062,-3.5165,-3.631,-3.6517,-3.7117,-3.7551,-3.7841,-3.7913,-3.8087,-3.8317,-3.8476,-3.8484,-3.824,-3.5966,-3.4272,-3.2933,-3.1255,-3.1139,-3.1797,-3.0931,-3.1152,-3.1913,-3.1971,-3.2166,-3.229,-3.1471,-3.0349,-2.8965,-2.7226,0.0,0.0,0.0,0.0,-2.7765,-2.8195,-2.8621,-2.9027,-2.9223,-2.9125,-2.8891,-2.8676,-2.8636,-2.7854,0.0,-2.3735,-2.2524,-2.1432,0.0,0.0,0.0,0.0,-2.2022,-2.327,-2.4189,-2.4972,-2.5633,-2.5693,-2.5694,-2.5692,-2.4108,-2.3103,-2.3098,-2.0784,-1.9335,-1.9104,-1.8204,-1.6715,-1.4613,0.0,0.0,0.0,0.0,0.0,0.0,0.0,0.0,0.0,0.0,0.0,0.0,0.0,0.0,0.0,0.0,0.0,0.0,0.0,0.0,0.0,0.0,0.0,0.0,0.0,0.0,0.0,0.0,0.0,-2.1854,-2.2079,0.0,0.0,0.0,0.0,-2.5568,-2.6462,-2.7279,-2.8163,-3.0452,-3.1785,-3.1917,-3.4339,-3.5672,-3.5709,-3.6603,-3.7418,-3.8188,-3.8225,-3.8712,-3.9573,-3.9634,-3.9789,-3.9993,-4.0189,-3.9877,-3.9112,-3.7461,-3.6729,-3.6477,-3.48,-3.4684,-3.5336,-3.4452,-3.469,-3.5432,-3.5456,-3.6041,-3.665,-3.5832,-3.3959,-3.168,-2.9922,-2.8809,0.0,0.0,-2.9374,-2.9839,-3.142,-3.13,-3.0966,-3.1725,-3.1336,-3.0536,-2.9715,-2.9537,-2.8753,0.0,-2.557,-2.4965,-2.3267,0.0,-2.2862,-2.2897,-2.3641,-2.4246,-2.432,-2.5105,-2.5653,-2.5708,-2.5691,-2.5692,-2.5708,-2.4106,-2.3103,-2.3098,-2.1364,-1.9951,-1.9123,-1.8204,-1.7276,-1.6388,-1.3989,0.0,0.0,0.0,0.0,0.0,0.0,0.0,0.0,0.0,0.0,0.0,0.0,0.0,0.0,0.0,0.0,0.0,0.0,0.0,0.0,0.0,0.0,0.0,0.0,0.0,0.0,0.0,0.0,-2.3656,-2.4801,0.0,-2.6989,-2.6558,-2.7252,-2.9748,-3.019,-3.1185,-3.3108,-3.4076,-3.4771,-3.5307,-3.6704,-3.7437,-3.7437,-3.8293,-3.912,-3.9915,-3.9915,-4.0359,-4.118,-4.1193,-4.134,-4.1551,-4.1198,-4.1287,-4.1597,-4.0597,-3.9224,-3.7671,-3.7077,-3.7038,-3.727,-3.6961,-3.7041,-3.7325,-3.7366,-3.7615,-3.7806,-3.706,-3.5815,-3.4316,-3.2578,-3.1836,-3.1543,-3.1328,-3.1659,-3.2183,-3.2771,-3.2728,-3.2431,-3.2161,-3.1886,-3.1455,-3.0614,-3.0396,-2.9943,-2.8499,-2.7756,-2.6995,-2.5805,-2.5611,-2.5417,-2.4868,-2.5044,-2.5239,-2.5238,-2.5513,-2.5709,-2.5707,-2.5708,-2.5709,-2.5707,-2.4106,-2.3103,-2.3098,-2.1403,-2.026,-1.9944,-1.903,-1.8145,-1.7295,-1.5311,-1.3775,0.0,0.0,0.0,0.0,0.0,0.0,0.0,0.0,0.0,0.0,0.0,0.0,0.0,0.0,0.0,0.0,0.0,0.0,0.0,0.0,0.0,0.0,0.0,0.0,0.0,0.0,-2.485,-2.6228,-2.7617,-2.8885,-2.9974,-2.9823,-3.0687,-3.3193,-3.3381,-3.4245,-3.6197,-3.6554,-3.6948,-3.7493,-3.8563,-3.9145,-3.9145,-3.999,-4.0685,-4.121,-4.121,-4.1479,-4.2004,-4.2004,-4.2159,-4.2386,-4.1996,-4.2287,-4.2959,-4.2586,-4.1448,-3.9914,-3.9914,-3.9914,-3.9895,-3.9591,-3.9481,-3.9453,-3.9243,-3.9026,-3.8751,-3.8287,-3.7573,-3.666,-3.5508,-3.5156,-3.498,-3.4141,-3.4296,-3.4645,-3.4354,-3.4059,-3.3685,-3.3102,-3.2535,-3.1947,-3.142,-3.1063,-3.0688,-3.0141,-2.934,-2.8459,-2.7582,-2.7445,-2.7133,-2.6273,-2.6136,-2.6039,-2.5746,-2.5707,-2.5707,-2.5707,-2.5707,-2.559,-2.5296,-2.3931,-2.2966,-2.2687,-2.1245,-2.0393,-2.0405,-1.9509,-1.8738,-1.8142,-1.6195,-1.4234,-1.2257,0.0,0.0,0.0,0.0,0.0,0.0,0.0,0.0,0.0,0.0,0.0,0.0,0.0,0.0,0.0,0.0,0.0,0.0,0.0,0.0,0.0,0.0,0.0,-2.241,-2.5882,-2.8772,-2.9701,-3.0527,-3.1663,-3.3352,-3.278,-3.3325,-3.5841,-3.6047,-3.6404,-3.7223,-3.7981,-3.8432,-3.8432,-3.999,-4.0835,-4.0835,-4.161,-4.2004,-4.2042,-4.2042,-4.2042,-4.2079,-4.2079,-4.2216,-4.25,-4.2654,-4.2871,-4.3094,-4.3262,-4.3363,-4.3363,-4.3324,-4.3305,-4.3208,-4.2357,-4.2048,-4.1938,-4.1203,-4.0439,-3.9792,-3.9827,-3.9309,-3.8633,-3.8633,-3.8613,-3.8418,-3.7578,-3.7324,-3.7108,-3.6268,-3.5389,-3.4725,-3.4706,-3.3417,-3.2166,-3.2147,-3.1537,-3.0966,-3.0946,-3.0259,-2.9397,-2.8498,-2.8342,-2.8049,-2.7172,-2.7016,0.0,-2.5844,-2.5726,-2.5707,-2.5707,-2.5707,-2.5355,-2.4514,-2.3617,-2.2732,-2.1885,-2.0932,-2.0393,-2.0405,-1.9502,-1.8981,-1.8953,-1.6503,-1.4,-1.1524,0.0,0.0,0.0,0.0,0.0,0.0,0.0,0.0,0.0,0.0,0.0,0.0,0.0,0.0,0.0,0.0,0.0,0.0,0.0,0.0,0.0,-2.4339,-2.6287,-2.5147,-2.7505,-3.0096,-3.2142,-3.31,-3.4245,-3.5916,-3.6385,-3.7155,-3.8481,-3.9126,-3.9802,-4.0597,-4.0859,-4.0972,-4.0972,-4.1423,-4.1667,-4.1667,-4.1892,-4.2323,-4.2938,-4.2938,-4.3257,-4.3806,-4.3806,-4.3968,-4.4187,-4.3759,-4.4078,-4.4853,-4.4421,-4.4581,-4.4987,-4.3769,-4.3305,-4.3266,-4.3034,-4.297,-4.2895,-4.2111,-4.173,-4.1481,-4.0932,-4.0209,-3.9531,-3.9531,-3.9101,-3.8555,-3.8301,-3.7793,-3.7245,-3.6992,-3.6308,-3.5487,-3.4843,-3.4335,-3.3807,-3.318,-3.2863,-3.2527,-3.1898,-3.1585,-3.0959,-2.9495,-2.9241,-2.8948,-2.8069,-2.7406,0.0,-2.6664,-2.6097,-2.5707,-2.5707,-2.5707,-2.5609,-2.5355,-2.397,-2.3005,-2.2765,-2.1264,-2.0393,-2.0405,-1.9509,-1.87,-1.8065,-1.6795,-1.5484,0.0,0.0,0.0,0.0,0.0,0.0,0.0,0.0,0.0,0.0,0.0,0.0,0.0,0.0,0.0,0.0,0.0,0.0,0.0,0.0,0.0,0.0,-2.7505,-2.987,-2.9636,-3.0838,-3.2292,-3.3738,-3.494,-3.6171,-3.7474,-3.8357,-3.9183,-4.004,-4.0854,-4.1498,-4.1986,-4.2004,-4.2004,-4.2004,-4.2342,-4.253,-4.253,-4.2887,-4.3299,-4.3801,-4.3801,-4.4064,-4.4501,-4.4501,-4.4646,-4.4888,-4.4579,-4.4882,-4.5565,-4.5232,-4.5374,0.0,0.0,0.0,0.0,0.0,-4.3683,-4.3349,-4.2922,-4.2568,-4.2229,-4.1781,-4.1091,-4.0449,-4.0449,-4.0098,-3.9609,-3.9258,-3.8789,-3.8222,-3.748,-3.6914,-3.6328,-3.5449,-3.4961,-3.4569,-3.406,-3.3665,-3.3131,-3.227,-3.2092,0.0,-3.0333,-3.0099,-2.9826,-2.8967,-2.8108,-2.7406,-2.7055,-2.6235,-2.5707,-2.5707,-2.5707,-2.5551,-2.5198,-2.4223,0.0,0.0,0.0,-2.0928,-2.086,-2.0685,0.0,0.0,0.0,0.0,0.0,0.0,0.0,0.0,-1.2558,-1.331,0.0,0.0,0.0,0.0,0.0,0.0,0.0,0.0,0.0,0.0,0.0,0.0,0.0,0.0,0.0,0.0,-3.0246,-3.2893,-3.4376,-3.4827,-3.5026,-3.5026,-3.634,-3.7587,-3.8488,-3.9352,-4.0209,-4.1022,-4.1835,-4.2286,-4.2286,0.0,0.0,0.0,0.0,-4.3444,-4.3444,-4.4139,-4.4501,-4.4501,-4.4501,-4.4501,-4.4501,-4.4501,-4.4646,-4.4907,-4.5105,-4.5352,-4.5603,-4.5742,-4.5807,-4.5807,-4.5807,-4.5807,-4.5717,-4.5073,-4.4361,-4.3695,-4.3723,0.0,0.0,-4.2433,-4.1912,-4.1328,-4.123,-4.1191,-4.1035,-4.0254,-3.998,-3.9512,-3.7871,-3.7363,-3.707,-3.6211,-3.541,-3.4842,-3.4842,-3.4232,-3.3445,-3.2565,-3.2308,-3.1973,-3.1094,-3.0878,-3.0567,-2.9846,-2.8928,-2.801,-2.725,-2.6293,-2.5707,-2.5707,0.0,0.0,-2.4612,-2.4456,-2.4076,-2.3306,-2.2367,-2.1778,-2.1643,-2.2389,-2.21,-2.0615,-2.0577,-1.9465,-1.7215,-1.8703,-1.8665,-1.7199,-1.6926,-1.6772,0.0,0.0,0.0,0.0,0.0,0.0,0.0,0.0,0.0,0.0,0.0,0.0,0.0,0.0,0.0,-2.8913,-3.1973,-3.4226,-3.4545,-3.631,-3.7587,-3.7587,-3.7868,-3.8657,-4.0178,-4.1047,-4.1886,-4.275,-4.3557,-4.4013,-4.4013,-4.4013,-4.4013,-4.4013,-4.4182,-4.4271,-4.4271,-4.4407,-4.4501,-4.4501,0.0,0.0,-4.4501,-4.4501,-4.4646,-4.4907,-4.5105,-4.5352,-4.5603,-4.5742,-4.5807,-4.5807,-4.5807,-4.5807,-4.5801,-4.5762,-4.5633,-4.5417,-4.4848,-4.4573,-4.4249,-4.2848,-4.2284,-4.2051,-4.1406,-4.1191,0.0,-4.0996,-4.0449,-3.9668,-3.8613,-3.7832,-3.707,-3.6211,-3.5878,-3.574,-3.5758,-3.5617,-3.5241,-3.4376,-3.3632,-3.2871,-3.1992,-3.127,-3.0742,-3.0587,-2.9279,-2.8244,-2.8069,-2.6663,-2.5707,-2.5707,-2.5707,-2.5629,-2.5453,-2.4808,-2.433,-2.4163,-2.3223,-2.2631,-2.2551,-2.272,-2.2643,-2.2312,-2.2316,-2.2066,-2.1585,-2.1912,-2.1893,-2.1528,-1.9462,-1.8523,0.0,0.0,0.0,0.0,0.0,0.0,0.0,0.0,0.0,0.0,0.0,-2.2363,-2.4845,0.0,-2.942,-3.0696,-3.3344,-3.539,-3.5796,-3.7268,-3.83,-3.83,-3.8694,-3.9289,-4.0134,-4.1304,-4.2173,-4.2618,-4.3787,-4.4501,-4.4501,-4.4501,-4.4501,-4.4501,-4.4501,-4.4501,-4.4501,-4.4501,-4.4501,-4.4501,-4.4501,-4.4528,-4.4537,-4.4578,-4.4751,-4.5003,-4.521,-4.541,-4.5618,-4.5749,-4.5807,-4.5807,-4.5807,-4.5807,-4.5821,-4.596,-4.6018,-4.6002,-4.566,-4.5314,-4.4783,-4.3476,-4.2754,-4.2246,-4.1445,-4.1191,-4.1191,-4.1191,-4.0898,-4.0254,-3.8945,-3.8281,-3.7617,-3.6309,-3.5995,-3.5993,-3.5991,-3.6005,-3.5744,-3.4863,-3.4003,-3.3123,-3.2246,-3.1387,-3.08,-3.08,-2.9747,-2.8947,-2.8947,-2.7815,-2.6839,-2.6391,-2.6352,-2.6175,-2.5746,-2.5265,-2.4813,-2.4384,-2.4258,-2.3987,-2.3475,-2.3832,-2.3851,-2.3451,-2.3451,-2.324,-2.2797,-2.324,-2.322,-2.2778,-2.1947,-2.1316,0.0,0.0,0.0,0.0,0.0,0.0,0.0,0.0,-1.9242,-2.2224,-2.3566,-2.4895,-2.7223,-2.957,-3.1438,-3.2237,-3.45,-3.6348,-3.7016,-3.7943,-3.8544,-3.8544,-3.9176,-3.9664,-3.9815,-4.1154,-4.2079,-4.2248,-4.3656,-4.4501,-4.4501,-4.4501,-4.4501,-4.4501,-4.4501,-4.4501,-4.4501,-4.4501,-4.4501,-4.4501,-4.4501,-4.4537,-4.4619,-4.4693,-4.4883,-4.514,-4.5361,-4.5519,-4.5645,-4.5764,-4.5807,-4.5807,-4.5807,-4.5807,-4.5821,-4.5958,-4.6046,-4.6112,-4.6189,-4.5772,-4.5078,-4.4043,-4.3223,-4.2461,-4.1504,-4.1191,-4.1191,-4.1191,-4.1191,-4.0801,-3.9043,-3.8594,-3.8164,-3.6406,-3.5994,-3.5991,-3.6009,-3.6002,-3.5797,-3.5096,-3.412,-3.3182,-3.2461,-3.1485,-3.08,-3.08,-3.0118,-2.9592,-2.9592,-2.883,-2.803,-2.7328,-2.7094,-2.6645,-2.5765,-2.5642,-2.5291,-2.458,-2.5149,-2.5146,-2.436,-2.4966,-2.5,-2.4356,-2.4336,-2.399,-2.3293,-2.399,-2.3971,-2.3293,-2.4009,-2.3778,-1.7661,-1.8542,-1.9538,-1.8766,-1.9769,-2.0957,0.0,0.0,-2.2536,-2.4403,-2.598,-2.7559,-2.9263,-3.0996,-3.2402,-3.3219,-3.5386,-3.6998,-3.7091,-3.8462,-3.9458,-3.9458,-3.9533,-3.989,-4.0591,-4.146,-4.2323,-4.3106,-4.3975,-4.4501,-4.4501,-4.4501,-4.4501,-4.4501,-4.4501,-4.4501,-4.4501,-4.4501,-4.4501,-4.4501,-4.4501,-4.4565,-4.4699,-4.4752,-4.4938,-4.5201,-4.5528,-4.5712,-4.5786,-4.58,-4.5807,-4.5807,-4.5807,-4.5807,-4.5821,-4.5958,-4.6046,-4.6112,-4.6189,-4.6182,-4.5879,-4.4238,-4.3633,-4.3262,-4.168,-4.1191,-4.1191,-4.1191,-4.1191,-4.0801,-3.9043,-3.8594,-3.8164,-3.6405,-3.5993,-3.599,-3.6006,-3.5999,-3.5973,-3.5875,-3.4528,-3.3377,-3.3279,-3.1893,-3.08,-3.08,-3.0118,-2.9592,-2.9592,-2.883,-2.8264,-2.8166,-2.7465,-2.6645,-2.5765,-2.5642,-2.5524,-2.5371,-2.5455,-2.5393,-2.5178,-2.525,-2.5269,-2.5173,-2.5173,-2.5115,-2.5019,-2.5115,-2.5115,-2.5019,-2.5115,-2.4312,-1.9307,-2.0496,-2.1602,0.0,-2.2142,-2.3775,-2.3773,-2.4337,-2.534,-2.7024,-2.8643,-3.0117,-3.1263,-3.2746,-3.3904,0.0,-3.5854,-3.711,-3.711,-3.8538,-3.9589,-3.9589,-3.9589,-3.9721,-4.0078,-4.1248,-4.2155,-4.2511,-4.375,-4.4501,-4.4501,-4.4501,-4.4528,-4.457,-4.4592,-4.4632,-4.4672,-4.4725,-4.4719,-4.4719,-4.4719,-4.4796,-4.4931,-4.5004,-4.5203,-4.5502,-4.5684,-4.5776,-4.5807,-4.5807,-4.5807,-4.5807,-4.5807,-4.5807,-4.5821,-4.5958,-4.6046,-4.6112,-4.6189,-4.6241,-4.6094,-4.4863,-4.4101,-4.3476,-4.2266,-4.1543,-4.1132,-4.1132,-4.1132,-4.0877,-3.9666,-3.8982,-3.8298,-3.7047,-3.6361,-3.6007,-3.6005,-3.5999,-3.5992,-3.5992,-3.4587,-3.3396,-3.3396,-3.1952,-3.08,-3.08,-3.0509,-3.0294,-3.0294,-2.9982,-2.9375,-2.8401,-2.7523,-2.6645,-2.5765,-2.5642,-2.5561,-2.5507,-2.5494,-2.5451,-2.5313,-2.5308,-2.5308,-2.5308,-2.5308,-2.5308,-2.5308,-2.5308,-2.5308,-2.5308,-2.5308,-2.4923,-2.0666,-2.1922,0.0,-2.2748,-2.4214,-2.5811,-2.6048,-2.6684,-2.7591,-2.8806,-3.0331,-3.1637,-3.2191,-3.3562,-3.4557,-3.4472,-3.5943,-3.711,-3.7133,-3.8573,-3.9619,-3.9638,-3.9619,-3.9619,-3.9638,-4.0866,-4.176,-4.1986,-4.3356,-4.4271,-4.4482,-4.4501,-4.4537,-4.4619,-4.4693,-4.4764,-4.4852,-4.4936,-4.4984,-4.4984,-4.4984,-4.5042,-4.5194,-4.5292,-4.5473,-4.5719,-4.5769,-4.5798,-4.5807,-4.5807,-4.5807,-4.5807,-4.5807,-4.5807,-4.5821,-4.5958,-4.6046,-4.6112,-4.6189,-4.6241,-4.6152,-4.5273,-4.4414,-4.3535,-4.2656,-4.1796,-4.1092,-4.1092,-4.111,-4.0912,-4.0111,-3.9427,-3.8685,-3.755,-3.6826,-3.6296,-3.6041,-3.5996,-3.5992,-3.5992,-3.4587,-3.3396,-3.3396,-3.1952,-3.08,-3.08,-3.08,-3.08,-3.08,-3.08,-3.0156,-2.8479,-2.7737,-2.6918,-2.5785,-2.5642,-2.5561,-2.5507,-2.5494,-2.5451,-2.5313,-2.5308,-2.5308,-2.5308,-2.5308,-2.5308,-2.5308,-2.5308,-2.5308,-2.5308,-2.5308,-2.5308,-2.156,0.0,-2.4253,-2.5082,-2.5989,-2.6857,-2.7648,-2.8511,-2.9121,-2.9179,-3.046,-3.1591,-3.1532,-3.2783,-3.3795,-3.3658,-3.5576,-3.7133,-3.7179,-3.8641,-3.9712,-3.9689,-3.9712,-3.9712,0.0,-4.039,-4.1173,-4.1948,-4.2825,-4.3688,-4.4463,-4.4501,-4.4551,-4.4699,-4.4752,-4.4868,-4.4996,-4.5118,-4.5191,-4.5191,-4.5191,-4.5253,-4.54,-4.5599,-4.5719,-4.58,-4.58,-4.5807,-4.5807,-4.5807,-4.5807,-4.5807,-4.5807,-4.5807,-4.5821,-4.5958,-4.6046,-4.6112,-4.6189,-4.6241,-4.6152,-4.5273,-4.4414,-4.3535,-4.2656,-4.1796,-4.1092,-4.1092,-4.111,-4.0912,-4.0111,-3.9877,-3.9427,-3.7703,-3.7272,-3.7036,-3.6189,-3.5992,-3.5992,-3.5992,-3.4587,-3.3396,-3.3396,-3.1952,-3.08,-3.08,-3.08,-3.08,-3.08,-3.08,-3.0156,-2.8479,-2.8283,-2.7561,-2.5844,-2.5642,-2.5561,-2.5507,-2.5494,-2.5451,-2.5313,-2.5308,-2.5308,-2.5308,-2.5308,-2.5308,-2.5308,-2.5308,-2.5308,-2.5308,-2.5308,-2.5308,-2.2253,0.0,-2.5176,-2.6045,-2.7357,-2.851,-2.8776,-2.9506,-3.0134,-3.0134,-3.0568,-3.1083,-3.1555,-3.1945,-3.2537,-3.3576,-3.5176,-3.6543,-3.7181,-3.8742,-3.9859,-3.9881,-3.9859,0.0,0.0,0.0,0.0,-4.2146,-4.3014,-4.387,-4.472,-4.4776,-4.4821,-4.4955,-4.5026,-4.5118,-4.5253,-4.54,-4.5476,-4.5476,-4.5465,-4.5519,-4.5599,-4.5727,-4.5776,-4.5807,-4.5807,-4.5807,-4.5807,-4.5807,-4.5807,-4.5807,-4.5807,-4.5807,-4.5821,-4.5958,-4.6046,-4.6112,-4.6189,-4.6241,-4.625,-4.5957,-4.4883,-4.3652,-4.3359,-4.2245,-4.1109,-4.1109,-4.1104,-4.1038,-4.0765,-4.0277,-3.9553,-3.8439,-3.7715,-3.705,-3.6187,-3.5992,-3.5992,-3.5992,-3.4587,-3.3396,-3.3396,-3.1952,-3.08,-3.08,-3.08,-3.08,-3.08,-3.08,-3.0372,-2.9279,-2.8654,-2.7835,-2.6664,-2.5975,-2.5561,-2.5507,-2.5494,-2.5451,-2.5313,-2.5308,-2.5308,-2.5308,-2.5308,-2.5308,-2.5308,-2.5308,-2.5308,-2.5308,-2.5308,-2.5308,-2.3506,-2.5005,-2.6541,-2.741,-2.8472,-2.9306,-2.9306,-2.9727,-3.0056,-2.9747,-2.9669,-2.9907,-3.0678,-3.0906,-3.1508,-3.3135,-3.487,-3.6325,-3.7274,-3.8912,-4.001,-4.0078,-4.0039,-4.001,0.0,0.0,0.0,-4.231,-4.2929,-4.3791,-4.4962,-4.5007,-4.5065,-4.5186,-4.5263,-4.5371,-4.5512,-4.5627,-4.5668,-4.5668,-4.568,-4.5685,-4.5734,-4.5776,-4.5805,-4.5807,-4.5807,-4.5807,-4.5807,-4.5807,-4.5807,-4.5807,-4.5807,-4.5807,-4.5821,-4.5958,-4.6046,-4.6112,-4.6189,-4.6241,-4.6308,-4.6308,-4.5117,-4.3691,-4.3691,-4.2479,-4.1107,-4.1107,-4.11,-4.1109,-4.1109,-4.0678,-4.0054,-3.9235,-3.8376,-3.7536,-3.6656,-3.6226,-3.5992,-3.5992,-3.4841,-3.3767,-3.3455,-3.1952,-3.08,-3.08,-3.08,-3.08,-3.08,-3.08,-3.0489,-2.969,-2.9104,-2.8283,-2.7094,-2.6425,-2.5894,-2.5526,-2.5494,-2.5451,-2.5313,-2.5308,-2.5308,-2.5308,-2.5308,-2.5308,-2.5308,-2.5308,-2.5308,-2.5308,-2.5308,-2.5308,-2.5278,-2.6776,-2.8275,-2.9144,-2.9356,-2.934,-2.9302,-2.9302,-2.9035,-2.8126,-2.7894,-2.8113,-2.8912,0.0,-3.0584,-3.2351,-3.459,-3.6444,-3.7471,-3.907,-4.0176,0.0,0.0,0.0,0.0,0.0,0.0,-4.2538,0.0,-4.3492,-4.5126,-4.5222,-4.5292,-4.541,-4.5473,-4.556,-4.5708,-4.5771,-4.5807,-4.5807,-4.5807,-4.5807,-4.5807,-4.5807,-4.5807,-4.5807,-4.5807,-4.5807,-4.5807,-4.5807,-4.5807,-4.5807,-4.5807,-4.5807,-4.5821,-4.5958,-4.6046,-4.6112,-4.6189,-4.6241,-4.6308,-4.6308,-4.5117,-4.3691,-4.3691,-4.2479,-4.1107,-4.1107,-4.11,-4.1109,-4.1109,-4.1109,-4.0875,-4.0015,-3.9195,-3.8357,-3.7497,-3.6617,-3.5992,-3.5992,-3.5252,-3.4354,-3.3474,-3.1913,-3.08,-3.08,-3.08,-3.08,-3.08,-3.08,-3.0507,-2.9747,-2.9611,-2.8928,-2.7268,-2.7028,-2.6558,-2.5621,-2.5552,-2.5505,-2.537,-2.5365,-2.5385,-2.5423,-2.5423,-2.5423,-2.5423,-2.5423,-2.5423,-2.5423,-2.5423,-2.5423,-2.6847,-2.8062,-2.9084,-2.9913,-3.0162,-3.0042,-2.9448,-2.9308,-2.8876,-2.7344,-2.6555,-2.6373,-2.7193,-2.7397,0.0,-3.134,-3.331,0.0,-3.7428,-3.8736,0.0,-4.0407,0.0,-4.1344,-4.1388,-4.214,0.0,0.0,-4.3927,-4.4362,-4.5437,-4.5495,-4.5512,-4.5545,-4.5605,-4.57,-4.5773,-4.5778,-4.5807,-4.5807,-4.5807,-4.5807,-4.5807,-4.5807,-4.5807,-4.5807,-4.5807,-4.5807,-4.5807,-4.5807,-4.5807,-4.5807,-4.5807,-4.5807,-4.5821,-4.5958,-4.6046,-4.6112,-4.6189,-4.6241,-4.6308,-4.6308,-4.5117,-4.3691,-4.3691,-4.2479,-4.1107,-4.1107,-4.11,-4.1109,-4.1109,-4.1109,-4.0875,-4.0015,-3.9195,-3.8357,-3.7497,-3.6617,-3.5992,-3.5992,-3.4763,-3.3456,-3.2578,-3.1524,-3.08,-3.08,-3.08,-3.08,-3.08,-3.0798,-3.0714,-3.0513,-2.9902,-2.9349,-2.8891,-2.8211,-2.7403,-2.6517,-2.6413,-2.636,-2.6274,-2.6269,-2.6563,-2.7217,-2.7236,-2.7236,-2.7236,-2.7236,-2.7236,-2.7236,-2.7236,-2.7236,-2.7967,-2.9066,-2.9839,-3.0301,-3.0185,-2.9743,-2.8912,-2.8162,-2.7252,-2.5874,-2.495,0.0,-2.5908,-2.6067,0.0,0.0,0.0,0.0,-3.6995,-3.8476,-3.9617,0.0,-4.1289,0.0,-4.1851,-4.2934,-4.3894,0.0,-4.4465,-4.4797,-4.5634,-4.5692,-4.568,-4.5685,-4.5727,-4.5749,-4.5791,-4.5793,-4.5807,-4.5807,-4.5807,-4.5807,-4.5807,-4.5807,-4.5807,-4.5807,0.0,-4.5807,-4.5807,-4.5807,-4.5807,-4.5807,-4.5807,-4.5807,-4.5821,-4.5958,-4.6046,-4.6112,-4.6189,-4.6241,-4.6308,-4.6308,-4.5117,-4.3691,-4.3691,-4.2478,-4.1107,-4.1104,-4.1098,-4.1109,-4.1109,-4.1109,-4.0973,-4.0483,-3.9722,-3.8903,-3.8045,-3.7184,-3.6459,-3.6041,-3.4575,-3.3245,-3.2714,-3.162,-3.0799,-3.0799,-3.0799,-3.0799,-3.0799,-3.0804,-3.0781,-3.0769,-3.0321,-2.9854,-2.9458,-2.8932,-2.8092,-2.6842,-2.7056,-2.7031,-2.6621,-2.6967,-2.739,-2.7895,-2.7895,-2.7895,-2.7895,-2.7895,-2.7895,-2.7895,-2.7895,-2.7895,-2.8819,-2.9817,-3.0373,-3.0257,-2.9755,-2.8999,-2.7903,-2.6453,-2.5043,-2.4057,0.0,-2.3051,-2.4617,-2.5095,-2.6303,-2.9555,0.0,-3.3705,-3.644,-3.8202,-3.9591,-4.0531,-4.1496,-4.2095,-4.2095,-4.3658,-4.4677,-4.4675,-4.4735,-4.5065,-4.5768,-4.5807,-4.5807,-4.5807,-4.5807,-4.5807,-4.5807,-4.5807,-4.5807,-4.5807,-4.5807,-4.5807,-4.5807,-4.5807,-4.5807,-4.5807,-4.5807,-4.5807,-4.5807,-4.5807,-4.5807,-4.5807,-4.5814,-4.5814,-4.5834,-4.5969,-4.6054,-4.6118,-4.6191,-4.6242,-4.6308,-4.6308,-4.5117,-4.3691,-4.371,-4.2477,-4.1105,-4.11,-4.1094,-4.1109,-4.1109,-4.1109,-4.1109,-4.1109,-4.0424,-3.9585,-3.8767,-3.7827,-3.6864,-3.6064,-3.4625,-3.3483,-3.3309,-3.1999,-3.0906,-3.0791,-3.0772,-3.0772,-3.0772,-3.0776,-3.0763,-3.0701,-3.0689,-3.0341,-2.952,-2.9451,-2.8756,-2.7123,-2.7692,-2.7725,-2.6967,-2.7659,-2.8107,-2.8236,-2.8236,-2.8236,-2.8236,-2.8236,-2.8236,-2.8236,-2.8236,-2.8236,-2.9712,-3.0275,-3.0223,-2.9517,-2.927,-2.8641,-2.6371,-2.511,0.0,0.0,-2.1401,-2.1137,-2.2165,-2.3473,-2.5282,-2.7989,0.0,0.0,0.0,0.0,-3.8993,0.0,0.0,0.0,0.0,0.0,0.0,0.0,0.0,-4.5652,-4.5787,-4.5807,-4.5807,-4.5807,-4.5807,-4.5807,-4.5807,-4.5807,-4.5807,-4.5807,-4.5807,-4.5807,-4.5807,-4.5807,-4.5807,-4.5807,-4.5807,0.0,-4.5807,-4.5807,-4.5807,-4.5807,-4.586,-4.5887,-4.5911,-4.6027,-4.6119,-4.6187,-4.6262,-4.6284,-4.6308,-4.6308,-4.5117,-4.371,-4.3709,-4.2475,-4.11,-4.1099,-4.1094,-4.1109,-4.1109,-4.1109,-4.1109,-4.1109,-4.0424,-3.9585,-3.8767,-3.7312,-3.6081,-3.5921,-3.5034,-3.4088,-3.3338,-3.2379,-3.1462,-3.075,-3.0633,-3.0633,-3.0633,-3.0681,-3.0706,-3.0695,-3.0656,-3.0532,-3.0311,-3.0284,-2.9868,-2.8835,-2.8897,-2.8884,-2.8665,-2.8819,-2.9236,-2.9942,-2.9962,-2.9962,-2.9962,-2.9962,-2.9962,-2.9962,-2.9962,-2.9962,-2.9895,-3.0356,-3.0151,-2.9304,-2.8805,-2.799,-2.5875,0.0,0.0,0.0,-2.0276,-1.9996,-2.0869,0.0,0.0,0.0,0.0,0.0,0.0,0.0,0.0,0.0,0.0,0.0,0.0,0.0,0.0,0.0,0.0,-4.5807,-4.5807,-4.5807,-4.5807,-4.5807,-4.5807,-4.5807,-4.5807,-4.5807,-4.5807,-4.5807,-4.5807,-4.5807,-4.5807,-4.5807,-4.5807,-4.5807,-4.5807,-4.5807,-4.5807,-4.5807,-4.5807,-4.5814,-4.5867,-4.5917,-4.5956,-4.6059,-4.6138,-4.6212,-4.6273,-4.6306,-4.6308,-4.6308,-4.5429,-4.4295,-4.3842,-4.2802,-4.1684,-4.1232,-4.1091,-4.1109,-4.1109,-4.1109,-4.1108,-4.1103,-4.0098,-3.9015,-3.8638,-3.7138,-3.5858,-3.5843,-3.5084,-3.4318,-3.3905,-3.2733,-3.1706,-3.1284,-3.0838,-3.0548,-3.0548,-3.0575,-3.0595,-3.061,-3.0567,-3.0516,-3.0455,-3.0458,-3.0081,-2.9209,-2.9572,-2.9613,-2.9127,-2.9544,-2.9967,-3.0385,-3.0404,-3.0404,-3.0404,-3.0404,-3.0404,-3.0404,-3.0404,-3.0404,-2.9602,-3.0139,-3.003,-2.9051,-2.836,-2.7363,-2.5312,-2.3021,0.0,0.0,-1.9387,-1.9087,-1.9957,0.0,-2.2478,0.0,0.0,0.0,0.0,0.0,0.0,0.0,0.0,0.0,0.0,0.0,0.0,0.0,0.0,0.0,-4.5807,-4.5807,-4.5807,-4.5807,-4.5807,-4.5807,-4.5807,-4.5807,-4.5807,-4.5807,-4.5807,-4.5807,-4.5807,-4.5807,-4.5807,-4.5807,-4.5807,-4.5807,-4.5807,-4.5807,-4.5807,-4.5814,-4.5893,-4.5944,-4.6013,-4.6084,-4.615,-4.623,-4.6282,-4.6308,-4.6307,-4.6305,-4.5719,-4.4878,-4.4188,-4.3247,-4.2268,-4.1579,-4.1246,-4.1109,-4.1109,-4.1109,-4.1104,-4.1087,-3.9758,-3.8466,-3.8465,-3.7049,-3.5764,-3.5758,-3.5161,-3.4583,-3.4395,-3.307,-3.1969,-3.1795,-3.1042,-3.0487,-3.0487,-3.0486,-3.0476,-3.0482,-3.0476,-3.0472,-3.041,-3.0404,-3.0115,-2.941,-3.0019,-3.0096,-2.941,-3.0038,-3.0404,-3.0404,-3.0404,-3.0404,-3.0404,-3.0404,-3.0404,-3.0404,-3.0404,-3.0404,-2.8765,-2.9568,-2.9754,-2.8286,-2.7909,-2.7049,-2.3783,0.0,0.0,-1.9294,-1.8489,-1.8181,-1.9067,-2.0582,-2.2268,-2.4022,0.0,-2.9186,0.0,0.0,0.0,0.0,0.0,0.0,0.0,0.0,0.0,0.0,0.0,0.0,-4.5807,-4.5807,-4.5807,-4.5807,-4.5807,-4.5807,-4.5807,-4.5807,-4.5807,-4.5807,-4.5807,-4.5807,-4.5807,-4.5807,-4.5807,-4.5807,-4.5807,-4.5807,0.0,-4.5807,-4.5807,-4.5814,-4.5937,-4.5982,-4.6024,-4.6141,-4.6234,-4.6282,-4.6308,-4.6308,-4.6306,-4.6299,-4.5708,-4.4986,-4.4906,-4.371,-4.2376,-4.2298,-4.1713,-4.1109,-4.1109,-4.1109,-4.1081,-4.1014,-3.9672,-3.8392,-3.833,-3.6943,-3.5689,-3.5634,-3.556,-3.5225,-3.4366,-3.3429,-3.2544,-3.1813,-3.096,-3.0402,-3.0402,-3.0416,-3.0416,-3.0402,-3.0406,-3.0406,-3.0404,-3.0404,-3.0365,-3.0288,-3.0365,-3.0365,-3.0288,-3.0365,-3.0404,-3.0404,-3.0404,-3.0404,-3.0404,-3.0404,-3.0404,-3.0404,-3.0404,-3.0404,-2.8455,-2.9434,-2.9665,-2.8128,-2.7426,-2.6351,-2.3471,0.0,-1.9277,-1.8455,-1.802,-1.791,-1.8258,-1.9747,-2.1469,-2.3151,-2.4702,-2.6904,-3.0327,0.0,0.0,0.0,0.0,0.0,0.0,0.0,0.0,0.0,0.0,0.0,-4.5807,-4.5807,-4.5807,-4.5807,-4.5807,-4.5807,-4.5807,-4.5807,-4.5807,-4.5807,-4.5807,-4.5807,-4.5807,-4.5807,-4.5807,-4.5807,-4.5807,0.0,0.0,-4.5807,-4.5807,-4.5821,-4.5941,-4.6022,-4.6068,-4.6172,-4.6235,-4.6308,-4.6308,-4.6306,-4.63,-4.6295,-4.6075,-4.568,-4.5153,-4.4156,-4.3079,-4.2552,-4.1771,-4.1108,-4.1101,-4.1061,-4.1025,-4.0961,-3.9609,-3.8316,-3.8243,-3.6864,-3.5626,-3.5601,-3.5578,-3.5419,-3.5052,-3.4257,-3.3391,-3.2545,-3.1718,-3.0981,-3.0462,-3.0404,-3.0404,-3.0404,-3.0396,-3.0396,-3.0404,-3.0404,-3.0404,-3.0404,-3.0404,-3.0404,-3.0404,-3.0404,-3.0404,-3.0404,-3.0404,-3.0404,-3.0404,-3.0404,-3.0404,-3.0404,-3.0404,-3.0404,-2.7331,-2.8448,-2.8927,-2.7638,-2.6751,-2.562,0.0,-2.0835,-1.8776,-1.7966,-1.7807,-1.7794,-1.7794,-1.9222,-2.0943,-2.2633,-2.3635,-2.5395,-2.8823,0.0,0.0,0.0,0.0,0.0,0.0,0.0,0.0,0.0,0.0,0.0,-4.5807,-4.5807,-4.5807,-4.5807,-4.5807,-4.5807,-4.5807,-4.5807,-4.5807,-4.5807,-4.5807,-4.5807,-4.5807,-4.5807,-4.5807,-4.5807,-4.5807,-4.5807,0.0,-4.5814,-4.5827,-4.5835,-4.598,-4.6063,-4.6144,-4.6197,-4.6265,-4.6307,-4.6305,-4.6301,-4.6293,-4.629,-4.6305,-4.6144,-4.5265,-4.4387,-4.3567,-4.2962,-4.1963,-4.1097,-4.1083,-4.1016,-4.0945,-4.0864,-3.9503,-3.8222,-3.815,-3.6787,-3.5572,-3.5566,-3.5528,-3.5502,-3.5507,-3.4776,-3.3994,-3.3372,-3.2372,-3.1487,-3.0865,-3.0558,-3.0404,-3.0404,-3.0404,-3.0404,-3.0404,-3.0404,-3.0404,-3.0404,-3.0404,-3.0404,-3.0404,-3.0404,-3.0404,-3.0404,-3.0404,-3.0404,-3.0404,-3.0404,-3.0404,-3.0404,-3.0404,-3.0538,-2.5015,-2.6216,-2.725,-2.6581,-2.5852,-2.4865,0.0,-2.0835,-1.8776,-1.7966,-1.7807,-1.7794,-1.7794,-1.9222,-2.0943,-2.2633,-2.3635,-2.5395,-2.8823,0.0,0.0,0.0,0.0,0.0,0.0,0.0,0.0,0.0,0.0,0.0,-4.5807,-4.5807,-4.5807,-4.5807,-4.5807,-4.5807,-4.5807,-4.5807,-4.5807,-4.5807,-4.5807,-4.5807,-4.5807,-4.5807,-4.5807,-4.5807,0.0,0.0,0.0,-4.5867,-4.5899,-4.5904,-4.6056,-4.6146,-4.6214,-4.6273,-4.6307,-4.6306,-4.6297,-4.6293,-4.6291,-4.6303,-4.63,-4.6144,-4.5265,-4.4387,-4.3705,-4.3686,-4.244,-4.1089,-4.1019,-4.0957,-4.0864,-4.073,-3.9374,-3.8086,-3.8029,-3.668,-3.55,-3.55,-3.55,-3.55,-3.55,-3.4776,-3.4205,-3.4186,-3.2776,-3.1698,-3.1698,-3.0923,-3.0404,-3.0404,-3.0404,-3.0404,-3.0404,-3.0404,-3.0404,-3.0404,-3.0404,-3.0404,-3.0404,-3.0404,-3.0404,-3.0404,-3.0404,-3.0404,-3.0404,-3.0404,-3.0404,-3.0404,-3.0404,-3.0865,-2.4436,-2.569,-2.6332,-2.5628,-2.491,-2.3971,-2.2281,-1.9977,-1.8256,-1.8554,-1.8177,-1.7987,-1.8587,-1.9628,-2.0943,-2.2633,-2.3136,-2.4509,0.0,0.0,0.0,0.0,0.0,0.0,0.0,0.0,0.0,0.0,0.0,0.0,-4.5807,-4.5807,-4.5807,-4.5807,-4.5807,-4.5807,-4.5807,-4.5807,-4.5807,-4.5807,-4.5807,-4.5807,-4.5807,-4.5807,-4.5807,0.0,0.0,0.0,-4.5807,-4.5867,-4.5929,-4.5986,-4.6067,-4.6134,-4.6206,-4.6282,-4.6308,-4.6299,-4.6294,-4.6309,-4.6305,-4.6302,-4.5909,-4.5363,-4.5088,-4.4387,-4.3448,-4.2262,-4.1493,-4.102,-4.0949,-4.0874,-4.0798,-4.0655,-3.9341,-3.8078,-3.8003,-3.6673,-3.55,-3.55,-3.55,-3.55,-3.55,-3.5269,-3.4891,-3.4302,-3.3237,-3.2314,-3.1775,-3.0942,-3.0404,-3.0404,-3.0404,-3.0404,-3.0404,-3.0404,-3.0404,-3.0404,-3.0404,-3.0404,-3.0404,-3.0404,-3.0404,-3.0404,-3.0404,-3.0404,-3.0404,-3.0404,-3.0404,-3.0404,-3.0404,-3.0865,-2.2342,-2.3769,-2.454,-2.4145,-2.3522,-2.2757,-2.1721,-1.9815,-1.8397,-1.8905,-1.8621,-1.8451,-1.899,-1.9802,-2.0943,-2.2633,-2.2903,0.0,0.0,0.0,0.0,0.0,0.0,0.0,0.0,0.0,0.0,0.0,0.0,0.0,-4.5807,-4.5807,-4.5807,-4.5807,-4.5807,-4.5807,-4.5807,-4.5807,-4.5807,-4.5807,-4.5807,-4.5807,-4.5807,-4.5807,-4.5807,0.0,0.0,-4.5807,0.0,-4.5899,-4.595,-4.6003,-4.6098,-4.6189,-4.6243,-4.6289,-4.6305,-4.6293,-4.6309,-4.6305,-4.63,-4.63,-4.5498,-4.4458,-4.4124,-4.3634,-4.2908,-4.1479,-4.1003,-4.0937,-4.0854,-4.0767,-4.0623,-4.0207,-3.9066,-3.7966,-3.7591,-3.6442,-3.55,-3.55,-3.55,-3.55,-3.55,-3.55,-3.5327,-3.4776,-3.3949,-3.3083,-3.2256,-3.1404,-3.075,-3.0442,-3.0404,-3.0404,-3.0404,-3.0404,-3.0404,-3.0404,-3.0404,-3.0404,-3.0404,-3.0404,-3.0404,-3.0404,-3.0404,-3.0404,-3.0404,-3.0731,-3.0885,-3.0904,-3.1192,-3.1814,0.0,-2.0834,-2.2152,-2.235,-2.1902,-2.1402,-2.1416,-2.0162,0.0,-1.9079,-1.9104,-1.9125,-1.9183,-1.9899,-2.104,-2.2726,-2.3039,0.0,0.0,0.0,0.0,0.0,0.0,0.0,0.0,0.0,0.0,0.0,0.0,0.0,-4.5807,-4.5807,-4.5807,-4.5807,-4.5807,-4.5807,-4.5807,-4.5807,-4.5807,-4.5807,-4.5807,-4.5807,-4.5807,-4.5807,-4.5807,0.0,-4.5807,-4.5807,-4.5814,-4.5943,-4.5993,-4.6017,-4.6145,-4.6233,-4.6308,-4.6305,-4.6297,-4.6291,-4.6303,-4.63,-4.628,-4.6163,-4.5026,-4.3511,-4.2581,-4.2303,-4.212,-4.1247,-4.0949,-4.0854,-4.0724,-4.0642,-4.0381,-3.9511,-3.8623,-3.7757,-3.6885,-3.6077,-3.55,-3.55,-3.55,-3.55,-3.55,-3.55,-3.55,-3.55,-3.4757,-3.3917,-3.3103,-3.2237,-3.1391,-3.0577,-3.0442,-3.0404,-3.0404,-3.0404,-3.0404,-3.0404,-3.0404,-3.0404,-3.0404,-3.0404,-3.0404,-3.0404,-3.0404,-3.0423,-3.05,-3.1308,-3.1737,-3.1795,-3.2545,-3.3372,-1.7524,0.0,-2.1311,-2.1461,-2.1448,-2.1235,0.0,-1.9719,-1.9194,-1.9854,0.0,-1.9299,-1.9976,-2.0811,-2.1936,-2.3616,0.0,0.0,0.0,0.0,0.0,0.0,0.0,0.0,0.0,0.0,0.0,0.0,0.0,-4.5807,-4.5807,-4.5807,-4.5807,-4.5807,-4.5807,-4.5807,-4.5807,-4.5807,-4.5807,-4.5807,-4.5807,-4.5807,-4.5807,-4.5807,-4.5807,-4.5807,-4.5807,-4.5807,-4.5814,-4.5947,-4.6022,-4.6076,-4.6175,-4.6247,-4.6301,-4.6296,-4.6291,-4.6303,-4.6302,-4.63,-4.6085,-4.4738,-4.4027,-4.34,-4.1813,-4.1328,-4.1269,-4.0999,-4.0883,-4.0787,-4.0668,-4.06,-4.0376,-3.9503,-3.8623,-3.7757,-3.6885,-3.6077,-3.55,-3.55,-3.55,-3.55,-3.55,-3.55,-3.55,-3.55,-3.4757,-3.4129,-3.3917,-3.2602,-3.1621,-3.1429,-3.0808,-3.0404,-3.0404,-3.0404,-3.0404,-3.0404,-3.0404,-3.0404,-3.0404,-3.0404,-3.0404,-3.0404,-3.0404,-3.0731,-3.1385,-3.1602,-3.2025,-3.2622,-3.2814,-3.3372,-1.7001,-1.88,-2.0477,-2.0585,-2.101,-2.1182,-2.0372,-1.9885,-1.9721,0.0,0.0,-1.9928,-2.0798,-2.1659,0.0,0.0,0.0,0.0,0.0,0.0,0.0,0.0,0.0,0.0,0.0,0.0,0.0,0.0,0.0,-4.5807,-4.5807,-4.5807,-4.5807,-4.5807,-4.5807,-4.5807,-4.5807,-4.5807,-4.5807,-4.5807,-4.5807,-4.5807,-4.5807,-4.5807,-4.5807,-4.5807,-4.5821,-4.586,-4.5867,-4.5988,-4.6096,-4.6153,-4.6217,-4.6269,-4.6293,-4.6309,-4.6305,-4.63,-4.63,-4.63,-4.6007,-4.427,-4.3689,-4.3326,-4.151,-4.0937,-4.0882,-4.0833,-4.0761,-4.0675,-4.0586,-4.0542,-4.0231,-3.8996,-3.8334,-3.7661,-3.6423,-3.5808,-3.55,-3.55,-3.55,-3.55,-3.55,-3.55,-3.55,-3.55,-3.5103,-3.4641,-3.4244,-3.341,-3.2545,-3.1775,-3.1269,-3.0827,-3.0423,-3.0404,-3.0404,-3.0404,-3.0404,-3.0404,-3.0404,-3.0404,-3.0404,-3.0404,-3.0404,-3.0827,-3.1698,-3.2064,-3.2679,-3.3506,-3.391,-3.4353,-1.7165,-1.8746,-2.0047,-2.0102,-2.0859,-2.1431,-2.0744,0.0,0.0,0.0,0.0,0.0,0.0,-2.2812,0.0,0.0,0.0,0.0,0.0,0.0,0.0,0.0,0.0,0.0,0.0,0.0,0.0,0.0,0.0,-4.5807,-4.5807,-4.5807,-4.5807,-4.5807,-4.5807,-4.5807,-4.5807,-4.5807,-4.5807,-4.5807,-4.5807,-4.5807,-4.5807,-4.5807,-4.5807,-4.5807,0.0,0.0,-4.5922,-4.6054,-4.6144,-4.6202,-4.6268,-4.6305,-4.629,-4.6303,-4.63,-4.63,-4.63,-4.63,-4.6007,-4.427,-4.3643,-4.327,-4.1435,-4.084,-4.0759,-4.0687,-4.0648,-4.0586,-4.0512,-4.0496,-4.0112,-3.8565,-3.8104,-3.7565,-3.6019,-3.5596,-3.55,-3.55,-3.55,-3.55,-3.55,-3.55,-3.55,-3.55,-3.55,-3.5231,-3.4487,-3.4282,-3.3667,-3.2237,-3.1968,-3.1583,-3.0846,-3.0788,-3.0731,-3.0615,-3.0462,-3.0404,-3.0404,-3.0404,-3.0404,-3.0404,-3.0404,-3.0885,-3.1891,-3.2564,-3.341,-3.441,-3.5154,-3.55,-1.7755,-1.9714,-2.1081,-2.1072,-2.1803,-2.2489,-2.2421,-2.2408,0.0,0.0,0.0,0.0,0.0,0.0,0.0,0.0,0.0,0.0,0.0,0.0,0.0,0.0,0.0,0.0,0.0,0.0,0.0,0.0,0.0,-4.5807,-4.5807,-4.5807,-4.5807,-4.5807,-4.5807,-4.5807,-4.5807,-4.5807,-4.5807,-4.5807,-4.5807,-4.5807,-4.5807,-4.5807,-4.5807,-4.5807,0.0,-4.5933,-4.5993,-4.6068,-4.6147,-4.6207,-4.6269,-4.6301,-4.6302,-4.6302,-4.63,-4.63,-4.63,-4.63,-4.6007,-4.427,-4.3658,-4.325,-4.1375,-4.077,-4.0687,-4.0571,-4.0561,-4.0588,-4.0523,-4.0496,-4.0265,-3.9323,-3.8546,-3.7738,-3.6731,-3.5981,-3.55,-3.55,-3.55,-3.55,-3.55,-3.55,-3.55,-3.55,-3.55,-3.5442,-3.5327,-3.4661,-3.4109,-3.384,-3.316,-3.266,-3.2526,-3.2526,-3.2237,-3.1545,-3.0808,-3.0404,-3.0404,-3.0404,-3.0404,-3.0404,-3.0404,-3.1154,-3.2718,-3.2833,-3.3737,-3.5308,-3.5442,-3.55,-1.7326,-1.9195,-2.0777,-2.1703,-2.3397,-2.4687,-2.4255,-2.4159,0.0,0.0,0.0,0.0,0.0,0.0,0.0,0.0,0.0,0.0,0.0,0.0,0.0,0.0,0.0,0.0,0.0,0.0,0.0,0.0,0.0,0.0,-4.5162,-4.5142,-4.4949,-4.4465,-4.491,-4.5142,-4.5142,-4.5568,-4.5807,-4.5807,-4.5807,-4.5807,-4.5807,-4.5807,-4.5807,-4.5807,0.0,-4.5977,-4.6009,-4.6114,-4.6192,-4.6269,-4.6285,-4.6294,-4.63,-4.63,-4.63,-4.63,-4.63,-4.6296,-4.6019,-4.4276,-4.3635,-4.3195,-4.1369,-4.0754,-4.0662,-4.0534,-4.0523,-4.0539,-4.0516,-4.0496,-4.0304,-3.9496,-3.8996,-3.8334,-3.6981,-3.6404,-3.6019,-3.5577,-3.55,-3.55,-3.55,-3.55,-3.55,-3.55,-3.55,-3.55,-3.55,-3.5154,-3.4718,-3.4244,-3.384,-3.341,-3.2949,-3.2891,-3.2564,-3.1756,-3.0885,-3.0404,-3.0404,-3.0404,-3.0404,-3.0404,-3.0865,-3.1698,-3.2891,-3.3372,-3.4257,-3.55,-3.55,-3.55,-1.7336,-1.8851,-2.0395,-2.2519,-2.4803,-2.6387,-2.5739,-2.5878,-2.6172,0.0,0.0,0.0,0.0,0.0,0.0,0.0,0.0,0.0,0.0,0.0,0.0,0.0,0.0,0.0,0.0,0.0,0.0,0.0,0.0,0.0,-4.4632,-4.4594,-4.4188,-4.3324,-4.4149,-4.4594,-4.4594,-4.5394,-4.5807,-4.5807,-4.5807,-4.5807,-4.5807,-4.5807,-4.5807,-4.5814,-4.5943,-4.6018,-4.602,-4.615,-4.6246,-4.6303,-4.6295,-4.6306,-4.63,-4.63,-4.63,-4.63,-4.63,-4.6292,-4.5987,-4.4236,-4.3585,-4.313,-4.1332,-4.0725,-4.0647,-4.0527,-4.0496,-4.0496,-4.0496,-4.0496,-4.0342,-3.9727,-3.9438,-3.8931,-3.7603,-3.7161,-3.6808,-3.6212,-3.5923,-3.5788,-3.5788,-3.5615,-3.55,-3.55,-3.55,-3.55,-3.55,-3.55,-3.5231,-3.4584,-3.4507,-3.4237,-3.3564,-3.3314,-3.2929,-3.2314,-3.1462,-3.0981,-3.0981,-3.0808,-3.0788,-3.0981,-3.1468,-3.2179,-3.3103,-3.3776,-3.4584,-3.55,-3.55,-3.55,-1.884,-1.9657,-2.0576,-2.3831,-2.5532,-2.6408,-2.6412,-2.7623,0.0,-2.882,0.0,0.0,0.0,0.0,0.0,0.0,0.0,0.0,0.0,0.0,0.0,0.0,0.0,0.0,0.0,0.0,0.0,0.0,0.0,0.0,-4.4632,-4.4594,-4.4188,-4.3324,-4.4149,-4.4594,-4.4594,-4.5394,-4.5807,-4.5807,-4.5807,-4.5807,-4.5807,-4.5807,-4.5807,-4.5814,-4.5947,-4.6044,-4.6108,-4.6173,-4.623,-4.6303,-4.6302,-4.6302,-4.63,-4.63,-4.63,-4.63,-4.63,-4.6269,-4.5911,-4.4169,-4.3522,-4.3078,-4.1271,-4.0655,-4.06,-4.0519,-4.0496,-4.0496,-4.0496,-4.0496,-4.0496,-4.0439,-3.9842,-3.9265,-3.915,-3.8469,-3.7892,-3.7834,-3.718,-3.6615,-3.6615,-3.5981,-3.55,-3.55,-3.55,-3.55,-3.55,-3.55,-3.5481,-3.5404,-3.5404,-3.5385,-3.5327,-3.4564,-3.409,-3.4013,-3.3199,-3.2718,-3.2718,-3.2006,-3.1968,-3.2718,-3.2045,-3.2365,-3.3731,-3.3808,-3.4404,-3.55,-3.55,-3.55,-1.8534,-1.9732,-2.0985,-2.2782,-2.513,0.0,0.0,-3.0039,-3.1465,-3.2082,-3.2987,0.0,0.0,0.0,0.0,0.0,0.0,0.0,0.0,0.0,0.0,0.0,0.0,0.0,0.0,0.0,0.0,0.0,0.0,0.0,-4.3866,-4.3788,-4.3169,-4.1796,-4.3073,-4.3788,-4.3788,-4.5123,-4.5807,-4.5807,-4.5807,-4.5814,-4.586,-4.586,-4.588,-4.5931,-4.6027,-4.6079,-4.6117,-4.6224,-4.6287,-4.63,-4.63,-4.63,-4.63,-4.63,-4.63,-4.63,-4.63,-4.6262,-4.5913,-4.4117,-4.3475,-4.3039,-4.1203,-4.0614,-4.0583,-4.0512,-4.0496,-4.0496,-4.0496,-4.0496,-4.0496,-4.0496,-4.0265,-3.9919,-3.9419,-3.9034,-3.8642,-3.8104,-3.7738,-3.7334,-3.6788,-3.6442,-3.6077,-3.5577,-3.55,-3.55,-3.55,-3.55,-3.55,-3.55,-3.55,-3.55,-3.55,-3.5192,-3.5007,-3.5007,-3.368,-3.2891,-3.2891,-3.2602,-3.2583,-3.2891,-3.3122,-3.343,-3.3808,-3.4519,-3.5077,-3.55,-3.55,-3.55,-1.9057,-2.0126,-2.1329,-2.2715,0.0,0.0,-3.0258,-3.1993,-3.3375,-3.4311,-3.5501,0.0,0.0,0.0,0.0,0.0,0.0,0.0,0.0,0.0,0.0,0.0,0.0,0.0,0.0,0.0,0.0,0.0,0.0,0.0,0.0,-4.3034,-4.2241,-4.0835,-4.2164,-4.3041,-4.3318,-4.4718,-4.5557,-4.5841,-4.5848,-4.588,-4.59,-4.5912,-4.596,-4.6002,-4.6064,-4.6106,-4.6138,-4.6249,-4.6303,-4.63,-4.63,-4.63,-4.63,-4.63,-4.63,-4.63,-4.63,-4.6258,-4.5894,-4.4063,-4.3428,-4.3014,-4.1149,-4.0576,-4.0565,-4.0504,-4.0496,-4.0496,-4.0496,-4.0496,-4.0496,-4.0496,-4.0496,-4.0342,-3.9804,-3.9688,-3.9496,-3.8911,-3.8584,-3.8219,-3.7623,-3.7296,-3.6923,-3.6365,-3.6058,-3.5885,-3.5885,-3.5654,-3.55,-3.55,-3.55,-3.55,-3.55,-3.55,-3.55,-3.55,-3.4385,-3.3718,-3.3718,-3.3468,-3.3449,-3.3718,-3.4045,-3.4257,-3.4346,-3.5115,-3.55,-3.55,-3.55,-3.5692,-2.0796,-2.1028,-2.1624,0.0,0.0,0.0,-3.1701,-3.3285,-3.4301,-3.5239,-3.6874,-3.7874,-3.7065,0.0,0.0,0.0,0.0,0.0,0.0,0.0,0.0,0.0,0.0,0.0,0.0,0.0,0.0,0.0,0.0,0.0,0.0,-4.2473,-4.1622,-4.0835,-4.1583,-4.2454,-4.3376,-4.4189,-4.5041,-4.5892,-4.596,-4.5962,-4.5906,-4.5964,-4.5993,-4.6005,-4.6063,-4.6144,-4.6209,-4.6269,-4.6301,-4.63,-4.63,-4.63,-4.63,-4.63,-4.63,-4.63,-4.63,-4.625,-4.5893,-4.4005,-4.335,-4.2943,-4.1069,-4.0496,-4.0496,-4.0496,-4.0496,-4.0496,-4.0496,-4.0496,-4.0496,-4.0496,-4.0496,-4.0496,-4.0496,-4.0496,-4.0496,-4.0496,-3.9861,-3.9304,-3.9304,-3.8584,-3.8007,-3.8007,-3.7257,-3.6692,-3.6692,-3.5981,-3.55,-3.55,-3.55,-3.55,-3.55,-3.55,-3.55,-3.55,-3.55,-3.55,-3.55,-3.4661,-3.4622,-3.5481,-3.4641,-3.4641,-3.55,-3.55,-3.55,-3.55,-3.5519,-3.6115,-2.1054,-2.2413,0.0,-2.4709,0.0,0.0,0.0,-3.4265,0.0,0.0,-3.9036,-3.8968,-3.8754,0.0,0.0,0.0,0.0,0.0,0.0,0.0,0.0,0.0,0.0,0.0,0.0,0.0,0.0,0.0,0.0,0.0,0.0,-4.2144,-4.1622,-4.0835,-4.1622,-4.2202,-4.2479,-4.3936,-4.4807,-4.5052,-4.5753,-4.6065,-4.6035,-4.6056,-4.6099,-4.6142,-4.6161,-4.6205,-4.6269,-4.6299,-4.6308,-4.63,-4.63,-4.63,-4.63,-4.63,-4.6296,-4.6288,-4.624,-4.618,-4.581,-4.3947,-4.3278,-4.289,-4.1062,-4.0496,-4.0496,-4.0496,-4.0496,-4.0496,-4.0496,-4.0496,-4.0496,-4.0496,-4.0496,-4.0496,-4.0496,-4.0496,-4.0496,-4.0496,-4.0304,-3.9958,-3.94,-3.9092,-3.87,-3.8084,-3.7469,-3.675,-3.5962,-3.5654,-3.55,-3.55,-3.55,-3.55,-3.55,-3.55,-3.55,-3.55,-3.55,-3.55,-3.55,-3.525,-3.5231,-3.5481,-3.525,-3.5231,-3.55,-3.55,-3.55,-3.5519,-3.6077,-3.6519,-2.2026,-2.3828,0.0,0.0,-2.9101,-3.1813,-3.468,0.0,0.0,0.0,0.0,-3.9831,0.0,0.0,0.0,0.0,0.0,0.0,0.0,0.0,0.0,0.0,0.0,0.0,0.0,0.0,0.0,0.0,0.0,0.0,0.0,-4.1699,-4.13,-4.0809,-4.1311,-4.1755,-4.2133,-4.317,-4.4051,-4.4757,-4.5345,-4.58,-4.6134,-4.6135,-4.6158,-4.6196,-4.623,-4.6268,-4.63,-4.6306,-4.63,-4.63,-4.63,-4.63,-4.63,-4.63,-4.6273,-4.6197,-4.5788,-4.56,-4.524,-4.3383,-4.2738,-4.2404,-4.0931,-4.0496,-4.0496,-4.0496,-4.0496,-4.0496,-4.0496,-4.0496,-4.0496,-4.0496,-4.0496,-4.0496,-4.0496,-4.0496,-4.0496,-4.0496,-4.0496,-4.0342,-3.9861,-3.9785,-3.9611,-3.9065,-3.8719,-3.7777,-3.575,-3.55,-3.55,-3.55,-3.55,-3.55,-3.55,-3.55,-3.55,-3.55,-3.55,-3.55,-3.55,-3.55,-3.55,-3.55,-3.55,-3.5712,-3.6173,-3.6038,-3.625,-3.6815,-3.7084,-3.7411,-2.3324,0.0,0.0,0.0,0.0,0.0,0.0,0.0,0.0,0.0,0.0,0.0,0.0,0.0,0.0,0.0,0.0,0.0,0.0,0.0,0.0,0.0,0.0,0.0,0.0,0.0,0.0,0.0,0.0,0.0,0.0,-4.1203,-4.079,-4.0794,-4.08,-4.1222,-4.2071,-4.2165,-4.3004,-4.4565,-4.4705,-4.5199,-4.5973,-4.6129,-4.6202,-4.6211,-4.6274,-4.63,-4.63,-4.63,-4.63,-4.63,-4.63,-4.63,-4.63,-4.63,-4.6208,-4.5967,-4.5102,-4.4705,-4.4291,-4.2562,-4.1943,-4.1711,-4.0789,-4.0496,-4.0496,-4.0496,-4.0496,-4.0496,-4.0496,-4.0496,-4.0496,-4.0496,-4.0496,-4.0496,-4.0496,-4.0496,-4.0496,-4.0496,-4.0496,-4.0496,-4.0496,-4.0496,-4.0496,-4.0496,-4.0496,-3.9277,-3.5923,-3.55,-3.5615,-3.5923,-3.5962,-3.5962,-3.5962,-3.5673,-3.55,-3.55,-3.55,-3.55,-3.55,-3.55,-3.55,-3.55,-3.55,-3.6058,-3.7192,-3.6981,-3.7526,-3.8726,-3.8315,-3.8546,-2.3337,-2.6028,0.0,0.0,0.0,0.0,0.0,0.0,0.0,0.0,0.0,0.0,0.0,0.0,0.0,0.0,0.0,0.0,0.0,0.0,0.0,0.0,0.0,0.0,0.0,0.0,0.0,0.0,0.0,0.0,-4.1048,-4.0892,-4.0788,-4.0794,-4.084,-4.0989,-4.1174,-4.1907,-4.2463,-4.285,-4.3553,-4.3983,-4.4217,-4.5621,-4.6289,-4.6279,-4.6287,-4.63,-4.63,-4.63,-4.63,-4.63,-4.63,-4.63,-4.63,-4.63,-4.5813,-4.5133,-4.4892,-4.4302,-4.3488,-4.2311,-4.1919,-4.1713,-4.0781,-4.0496,-4.0496,-4.0496,-4.0496,-4.0496,-4.0496,-4.0496,-4.0496,-4.0496,-4.0496,-4.0496,-4.0496,-4.0496,-4.0496,-4.0496,-4.0496,-4.0496,-4.0496,-4.0496,-4.0496,-4.0496,-4.0496,-3.9277,-3.5923,-3.55,-3.65,-3.9142,-3.9419,-3.9419,-3.9419,-3.7007,-3.55,-3.55,-3.55,-3.55,-3.55,-3.55,-3.55,-3.55,-3.55,-3.6058,-3.7192,-3.7969,-3.8296,-3.818,-3.8757,-3.913,0.0,0.0,0.0,0.0,0.0,0.0,0.0,0.0,0.0,0.0,0.0,0.0,0.0,0.0,0.0,0.0,0.0,0.0,0.0,0.0,0.0,0.0,0.0,0.0,0.0,0.0,0.0,0.0,0.0,-4.0803,-4.0796,-4.0808,-4.0812,-4.0859,-4.0883,-4.0917,-4.096,-4.1435,-4.1896,-4.2342,-4.2807,-4.3239,-4.3689,-4.4626,-4.5051,-4.5058,-4.5054,-4.5285,-4.5675,-4.5675,-4.5929,-4.6261,-4.5831,-4.5675,-4.5636,-4.5207,-4.4736,-4.4199,-4.3685,-4.316,-4.2563,-4.1552,-4.1235,-4.1135,-4.0658,-4.0496,-4.0496,-4.0496,-4.0496,-4.0496,-4.0496,-4.0496,-4.0496,-4.0496,-4.0496,-4.0496,-4.0496,-4.0496,-4.0496,-4.0496,-4.0496,-4.0496,-4.0496,-4.0496,-4.0496,-4.0496,-4.0496,-3.9277,-3.5923,-3.6911,-3.8565,-4.0304,-4.0496,-4.0496,-4.0496,-3.8892,-3.7892,-3.7892,-3.7892,-3.7892,-3.7892,-3.7892,-3.7142,-3.5538,-3.6288,-3.6988,-3.7577,-3.8142,-3.8688,-3.92,-3.9669,-3.9881,0.0,0.0,0.0,0.0,0.0,0.0,0.0,0.0,0.0,0.0,0.0,0.0,0.0,0.0,0.0,0.0,0.0,0.0,0.0,0.0,0.0,0.0,0.0,0.0,0.0,0.0,0.0,0.0,0.0,-4.079,-4.0794,-4.0806,-4.0834,-4.0902,-4.0903,-4.0943,-4.1003,-4.1006,-4.1419,-4.2189,-4.2185,-4.2557,-4.3246,-4.3259,-4.3413,-4.3705,-4.3705,-4.4114,-4.4797,-4.4932,-4.5343,-4.5792,-4.5226,-4.4912,-4.4715,-4.413,-4.367,-4.3279,-4.2552,-4.2072,-4.1628,-4.0781,-4.0496,-4.0496,-4.0496,-4.0496,-4.0496,-4.0496,-4.0496,-4.0496,-4.0496,-4.0496,-4.0496,-4.0496,-4.0496,-4.0496,-4.0496,-4.0496,-4.0496,-4.0496,-4.0496,-4.0496,-4.0496,-4.0496,-4.0496,-4.0496,-4.0496,-3.9496,-3.6719,-3.8777,-4.0496,-4.0496,-4.0496,-4.0496,-4.0496,-4.0496,-4.0496,-4.0496,-4.0496,-4.0496,-4.0496,-4.0496,-3.92,-3.6423,-3.7738,-3.843,-3.843,-3.843,-3.9142,-4.0496,-4.0496,-4.0496,0.0,0.0,0.0,0.0,0.0,0.0,0.0,0.0,0.0,0.0,0.0,0.0,0.0,0.0,0.0,0.0,0.0,0.0,0.0,0.0,0.0,0.0,0.0,0.0,0.0,0.0,0.0,0.0,-4.0796,-4.0794,-4.0794,-4.0865,-4.0897,-4.0902,-4.0954,-4.0988,-4.1003,-4.1064,-4.1158,-4.1269,-4.1263,-4.133,-4.1443,-4.1441,-4.2261,-4.3705,-4.3705,-4.3762,-4.3938,-4.4699,-4.4621,-4.4114,-4.4758,-4.4538,-4.3944,-4.4536,-4.3776,-4.2537,-4.2985,-4.2142,-4.0822,-4.0573,-4.0496,-4.0496,-4.0496,-4.0496,-4.0496,-4.0496,-4.0496,-4.0496,-4.0496,-4.0496,-4.0496,-4.0496,-4.0496,-4.0496,-4.0496,-4.0496,-4.0496,-4.0496,-4.0496,-4.0496,-4.0496,-4.0496,-4.0496,-4.0496,-4.0496,-4.0342,-3.99,-4.0227,-4.0496,-4.0496,-4.0496,-4.0496,-4.0496,-4.0496,-4.0496,-4.0496,-4.0496,-4.0496,-4.0496,-4.0496,-4.0285,-3.9842,-4.0054,-4.0169,-4.0169,-4.0169,-4.0285,-4.0496,-4.0496,-4.0496,-2.4799,0.0,0.0,0.0,0.0,0.0,0.0,0.0,0.0,0.0,0.0,0.0,0.0,0.0,0.0,0.0,0.0,0.0,0.0,0.0,0.0,0.0,0.0,0.0,0.0,0.0,0.0,0.0,-4.0798,-4.0809,-4.0846,-4.0888,-4.0922,-4.095,-4.0976,-4.1025,-4.1061,-4.1094,-4.1092,-4.1108,-4.1097,-4.1109,-4.1109,-4.1109,-4.1519,-4.2241,-4.2241,-4.2513,-4.3001,-4.3391,-4.3606,-4.3684,-4.3587,-4.3304,-4.3014,-4.3281,-4.2879,-4.2228,-4.2429,-4.2002,-4.1289,-4.07,-4.0496,-4.0496,-4.0496,-4.0496,-4.0496,-4.0496,-4.0496,-4.0496,-4.0496,-4.0496,-4.0496,-4.0496,-4.0496,-4.0496,-4.0496,-4.0496,-4.0496,-4.0496,-4.0496,-4.0496,-4.0496,-4.0496,-4.0496,-4.0496,-4.0496,-4.0496,-4.0496,-4.0496,-4.0496,-4.0496,-4.0496,-4.0496,-4.0496,-4.0496,-4.0496,-4.0496,-4.0496,-4.0496,-4.0496,-4.0496,-4.0496,-4.0496,-4.0496,-4.0496,-4.0496,-4.0496,-4.0496,-4.0496,-4.0496,-4.0496,0.0,0.0,0.0,0.0,0.0,0.0,0.0,0.0,0.0,0.0,0.0,0.0,0.0,0.0,0.0,0.0,0.0,0.0,0.0,0.0,0.0,0.0,0.0,0.0,0.0,0.0,0.0,0.0,-4.0812,-4.0842,-4.0902,-4.0922,-4.0948,-4.1007,-4.1028,-4.1053,-4.11,-4.1092,-4.1091,-4.1097,-4.1091,-4.1109,-4.1109,-4.1109,-4.1109,-4.1109,-4.1109,-4.1479,-4.2084,-4.2318,-4.265,-4.3003,-4.2572,-4.2266,-4.2103,-4.2429,-4.2341,-4.211,-4.2202,-4.209,-4.1754,-4.0808,-4.0496,-4.0496,-4.0496,-4.0496,-4.0496,-4.0496,-4.0496,-4.0496,-4.0496,-4.0496,-4.0496,-4.0496,-4.0496,-4.0496,-4.0496,-4.0496,-4.0496,-4.0496,-4.0496,-4.0496,-4.0496,-4.0496,-4.0496,-4.0496,-4.0496,-4.0496,-4.0496,-4.0496,-4.0496,-4.0496,-4.0496,-4.0496,-4.0496,-4.0496,-4.0496,-4.0496,-4.0496,-4.0496,-4.0496,-4.0496,-4.0496,-4.0496,-4.0496,-4.0496,-4.0496,-4.0496,-4.0496,-4.0496,-4.0496,-4.0496,0.0,0.0,0.0,0.0,0.0,0.0,0.0,0.0,0.0,0.0,0.0,0.0,0.0,0.0,0.0,0.0,0.0,0.0,0.0,0.0,0.0,0.0,0.0,0.0,0.0,0.0,0.0,0.0,-4.0867,-4.0902,-4.0902,-4.0954,-4.0991,-4.1007,-4.1066,-4.11,-4.1094,-4.1104,-4.1091,-4.1109,-4.1109,-4.1109,-4.1109,-4.1109,-4.1109,-4.1109,-4.1109,-4.1129,-4.1226,-4.2064,-4.1947,-4.1304,-4.2103,-4.1889,-4.1346,-4.2864,-4.2879,-4.2205,-4.289,-4.2598,-4.1744,-4.082,-4.0496,-4.0496,-4.0496,-4.0496,-4.0496,-4.0496,-4.0496,-4.0496,-4.0496,-4.0496,-4.0496,-4.0496,-4.0496,-4.0496,-4.0496,-4.0496,-4.0496,-4.0496,-4.0496,-4.0496,-4.0496,-4.0496,-4.0496,-4.0496,-4.0496,-4.0496,-4.0496,-4.0496,-4.0496,-4.0496,-4.0496,-4.0496,-4.0496,-4.0496,-4.0496,-4.0496,-4.0496,-4.0496,-4.0496,-4.0496,-4.0496,-4.0496,-4.0496,-4.0496,-4.0496,-4.0496,-4.0496,-4.0496,-4.0496,-4.0496,0.0,0.0,0.0,0.0,0.0,0.0,0.0,0.0,0.0,0.0,0.0,0.0,0.0,0.0,0.0,0.0,0.0,0.0,0.0,0.0,0.0,0.0,0.0,0.0,0.0,0.0,0.0,0.0,0.0,-4.0893,-4.0893,-4.096,-4.1,-4.1,-4.1067,-4.1092,-4.1107,-4.1097,-4.1109,-4.1109,-4.1109,-4.1109,-4.1109,-4.1109,-4.1109,-4.1109,-4.1109,-4.1109,-4.1129,-4.1439,-4.1382,-4.1129,-4.1439,-4.169,-4.2007,-4.3056,-4.3516,-4.3589,-4.3246,-4.3165,-4.2898,-4.1073,-4.0496,-4.0496,-4.0496,-4.0496,-4.0496,-4.0496,-4.0496,-4.0496,-4.0496,-4.2132,-4.3767,-4.3767,-4.3767,-4.3767,-4.3767,-4.3767,-4.3113,-4.0939,-4.0496,-4.0496,-4.0496,-4.0496,-4.0496,-4.0496,-4.0496,-4.0496,-4.0496,-4.0496,-4.0496,-4.0496,-4.0496,-4.0496,-4.0496,-4.0496,-4.0496,-4.0496,-4.2555,-4.3767,-4.3767,-4.3767,-4.3767,-4.3767,-4.3767,-4.2689,-4.0496,-4.0496,-4.0496,-4.0496,-4.0496,-4.1689,-2.0712,0.0,0.0,0.0,0.0,0.0,0.0,0.0,0.0,0.0,0.0,0.0,0.0,0.0,0.0,0.0,0.0,0.0,0.0,0.0,0.0,0.0,0.0,0.0,0.0,0.0,0.0,0.0,0.0,0.0,-4.0907,-4.0961,-4.1011,-4.1028,-4.1071,-4.1092,-4.1095,-4.1091,-4.1109,-4.1109,-4.1109,-4.1109,-4.1109,-4.1109,-4.1109,-4.1109,-4.1109,-4.1109,-4.1109,-4.1109,-4.1109,-4.1129,-4.142,-4.1844,-4.2422,-4.3437,-4.4102,-4.4399,-4.372,-4.3566,-4.3286,-4.1189,-4.0496,-4.0496,-4.0496,-4.0496,-4.0496,-4.0496,-4.0496,-4.0766,-4.192,-4.3902,-4.5594,-4.5594,-4.5594,-4.5594,-4.5594,-4.5594,-4.494,-4.2651,-4.2209,-4.2209,-4.2209,-4.1266,-4.0496,-4.0496,-4.0496,-4.0496,-4.0496,-4.0496,-4.0496,-4.0496,-4.0496,-4.0496,-4.0496,-4.0496,-4.0997,-4.2132,-4.4344,-4.5594,-4.5594,-4.5594,-4.5594,-4.5594,-4.5594,-4.4479,-4.2209,-4.1054,-4.0496,-4.0535,-4.1689,-4.344,0.0,0.0,0.0,0.0,0.0,0.0,0.0,0.0,0.0,0.0,0.0,0.0,0.0,0.0,0.0,0.0,0.0,0.0,0.0,0.0,0.0,0.0,0.0,0.0,0.0,0.0,0.0,0.0,-4.0893,-4.0893,-4.0893,-4.0976,-4.1027,-4.1094,-4.1103,-4.1109,-4.1109,-4.1109,-4.1109,-4.1109,-4.1109,-4.1109,-4.1109,-4.1109,-4.1109,-4.1109,-4.1109,-4.1109,-4.1109,-4.1109,-4.1129,-4.1226,-4.2064,-4.2388,-4.2558,-4.4045,-4.4573,-4.4515,-4.4355,-4.3816,-4.2874,-4.1073,-4.0535,-4.0573,-4.0516,-4.0573,-4.065,-4.065,-4.065,-4.142,-4.4748,-4.5594,-4.5594,-4.5594,-4.5594,-4.5594,-4.5594,-4.5594,-4.5594,-4.5594,-4.5594,-4.5594,-4.5594,-4.2843,-4.0612,-4.0516,-4.0593,-4.065,-4.065,-4.065,-4.0612,-4.0516,-4.0496,-4.0496,-4.0496,-4.0593,-4.2074,-4.5383,-4.5594,-4.5594,-4.5594,-4.5594,-4.5594,-4.5594,-4.5594,-4.5594,-4.5594,-4.2266,-4.065,-4.0727,-4.4055,-4.5605,-1.93,0.0,0.0,0.0,0.0,0.0,0.0,0.0,0.0,0.0,0.0,0.0,0.0,0.0,0.0,0.0,0.0,0.0,0.0,0.0,0.0,0.0,0.0,0.0,0.0,0.0,0.0,0.0,-4.0972,-4.0968,-4.096,-4.1044,-4.1086,-4.1093,-4.11,-4.1109,-4.1109,-4.1109,-4.1109,-4.1109,-4.1109,-4.1109,-4.1109,-4.1109,-4.1109,-4.1109,-4.1109,-4.1109,-4.1109,-4.1109,-4.1479,-4.2064,-4.2318,-4.3129,-4.4214,-4.4492,-4.4961,-4.5334,-4.4575,-4.4566,-4.4421,-4.1458,-4.1362,-4.2143,-4.0881,-4.2228,-4.419,-4.419,-4.419,-4.4402,-4.5344,-4.5594,-4.5594,-4.5594,-4.5594,-4.5594,-4.5594,-4.5594,-4.5594,-4.5594,-4.5594,-4.5594,-4.5594,-4.4825,-4.3344,-4.0862,-4.2613,-4.419,-4.419,-4.419,-4.3247,-4.0766,-4.0496,-4.0496,-4.0496,-4.2766,-4.4594,-4.5537,-4.5594,-4.5594,-4.5594,-4.5594,-4.5594,-4.5594,-4.5594,-4.5594,-4.5594,-4.4652,-4.419,-4.4209,-4.5152,-4.5514,-2.0589,-2.097,0.0,0.0,0.0,0.0,0.0,-2.7859,0.0,0.0,0.0,0.0,0.0,0.0,0.0,0.0,0.0,0.0,0.0,0.0,0.0,0.0,0.0,0.0,0.0,-4.0958,-4.0992,-4.0999,-4.1003,-4.1014,-4.1044,-4.1082,-4.1093,-4.1091,-4.1099,-4.1109,-4.1109,-4.1109,-4.1109,-4.1109,-4.1109,-4.1109,-4.1109,-4.1109,-4.1109,-4.1109,-4.1109,-4.1109,-4.1109,-4.1109,-4.1615,-4.2435,-4.2806,-4.3734,-4.4915,-4.508,-4.5413,-4.5708,-4.5076,-4.494,-4.4786,-4.317,-4.267,-4.2701,-4.2651,-4.4017,-4.5594,-4.5594,-4.5594,-4.5594,-4.5594,-4.5594,-4.5594,-4.5594,-4.5594,-4.5594,-4.5594,-4.5594,-4.5594,-4.5594,-4.5594,-4.5594,-4.5594,-4.5594,-4.4921,-4.294,-4.4325,-4.5594,-4.5594,-4.5594,-4.4844,-4.2843,-4.2556,-4.2504,-4.2504,-4.4335,-4.5505,-4.5586,-4.5514,-4.5467,-4.5467,-4.5467,-4.5514,-4.5594,-4.5594,-4.5594,-4.5594,-4.5594,-4.5594,-4.5594,-4.5514,-4.5409,-2.3086,-2.3009,0.0,0.0,0.0,0.0,-2.4976,-2.6543,-2.83,0.0,0.0,0.0,0.0,0.0,0.0,0.0,0.0,0.0,0.0,0.0,0.0,0.0,0.0,0.0,-4.0766,-4.0828,-4.0909,-4.1,-4.1013,-4.1044,-4.1108,-4.1093,-4.1093,-4.1107,-4.1097,-4.1109,-4.1109,-4.1109,-4.1109,-4.1109,-4.1109,-4.1109,-4.1109,-4.1109,-4.1109,-4.1109,-4.1109,-4.1109,-4.1109,-4.1109,-4.1674,-4.2611,-4.3391,-4.4243,-4.511,-4.5687,-4.5865,-4.5786,-4.5654,-4.5094,-4.4566,-4.5248,-4.4152,-4.294,-4.4844,-4.5498,-4.5594,-4.5594,-4.5594,-4.5594,-4.5594,-4.5594,-4.5594,-4.5594,-4.5594,-4.5594,-4.5594,-4.5594,-4.5594,-4.5594,-4.5594,-4.5594,-4.5594,-4.5594,-4.5594,-4.5594,-4.5594,-4.5594,-4.5594,-4.5594,-4.5594,-4.5594,-4.5409,-4.5256,-4.5151,-4.5213,-4.535,-4.5596,-4.54,-4.5265,-4.5151,-4.5213,-4.536,-4.5605,-4.5594,-4.5594,-4.5594,-4.5594,-4.5586,-4.5559,-4.537,-4.5307,-2.4836,-2.4332,-2.385,-2.385,0.0,0.0,-2.3508,-2.5236,-2.7054,0.0,0.0,0.0,0.0,0.0,0.0,0.0,0.0,0.0,0.0,0.0,0.0,0.0,0.0,0.0,-3.9877,-3.9989,-4.033,-4.1037,-4.1084,-4.1093,-4.1093,-4.1092,-4.1107,-4.11,-4.1094,-4.1109,-4.1109,-4.1109,-4.1109,-4.1109,-4.1109,-4.1109,-4.1109,-4.1109,-4.1109,-4.1109,-4.1109,-4.1109,-4.1109,-4.1109,-4.2027,-4.345,-4.3626,-4.4614,-4.5935,-4.5901,-4.5865,-4.5786,-4.5654,-4.5498,-4.5267,-4.472,-4.4729,-4.4844,-4.4382,-4.4863,-4.5594,-4.5594,-4.5594,-4.5594,-4.5594,-4.5594,-4.5594,-4.5594,-4.5594,-4.5594,-4.5594,-4.5594,-4.5594,-4.5594,-4.5594,-4.5594,-4.5594,-4.5594,-4.5594,-4.5594,-4.5594,-4.5594,-4.5594,-4.5594,-4.5594,-4.5594,-4.5409,-4.5007,-4.4312,-4.47,-4.5162,-4.5568,-4.54,-4.4984,-4.4283,-4.4726,-4.5164,-4.5586,-4.5594,-4.5594,-4.5594,-4.5594,-4.5514,-4.5369,-4.5328,-4.5307,-2.6611,-2.6309,-2.5909,-2.5498,0.0,0.0,0.0,-2.5178,-2.6223,-2.6625,0.0,0.0,0.0,0.0,0.0,0.0,0.0,0.0,0.0,0.0,0.0,0.0,0.0,0.0,-3.9058,-3.9123,-3.9358,-3.9822,-3.9843,-4.0032,-4.0439,-4.0456,-4.0649,-4.1094,-4.1091,-4.1109,-4.1109,-4.1109,-4.1109,-4.1109,-4.1109,-4.1109,-4.1109,-4.1109,-4.1109,-4.1109,-4.1109,-4.1109,-4.1109,-4.1109,-4.1864,-4.3086,-4.3494,-4.4418,-4.5535,-4.5802,-4.5867,-4.5776,-4.5646,-4.5594,-4.5537,-4.5094,-4.5248,-4.5498,-4.4921,-4.5152,-4.5594,-4.5594,-4.5594,-4.5594,-4.5594,-4.5594,-4.5594,-4.5594,-4.5594,-4.5594,-4.5594,-4.5594,-4.5594,-4.5594,-4.5594,-4.5594,-4.5594,-4.5594,-4.5594,-4.5594,-4.5594,-4.5594,-4.5594,-4.5594,-4.5594,-4.5594,-4.5409,-4.5072,-4.4513,-4.4852,-4.5237,-4.5577,-4.54,-4.503,-4.4467,-4.4864,-4.5258,-4.5586,-4.5594,-4.5541,-4.5448,-4.5448,-4.539,-4.5307,-4.5307,-4.5307,0.0,0.0,0.0,0.0,0.0,-2.6449,0.0,0.0,0.0,-2.6126,0.0,0.0,0.0,0.0,0.0,0.0,0.0,0.0,0.0,0.0,0.0,0.0,0.0,0.0,-3.7986,-3.8175,-3.8359,-3.8588,-3.8443,-3.8708,-3.9527,-3.9722,-4.0112,-4.0836,-4.1012,-4.1109,-4.1109,-4.1109,-4.1109,-4.1109,-4.1109,-4.1109,-4.1109,-4.1109,-4.1109,-4.1109,-4.1109,-4.1109,-4.1109,-4.1109,-4.1507,-4.2244,-4.3214,-4.4069,-4.4865,-4.5605,-4.5847,-4.5758,-4.5637,-4.5594,-4.5594,-4.5594,-4.5594,-4.5594,-4.5594,-4.5594,-4.5594,-4.5594,-4.5594,-4.5594,-4.5594,-4.5594,-4.5594,-4.5594,-4.5594,-4.5594,-4.5594,-4.5594,-4.5594,-4.5594,-4.5594,-4.5594,-4.5594,-4.5594,-4.5594,-4.5594,-4.5594,-4.5594,-4.5594,-4.5594,-4.5594,-4.5594,-4.5448,-4.5,-4.4136,-4.4853,-4.5419,-4.5586,-4.5438,-4.5267,-4.503,-4.5203,-4.5389,-4.5532,-4.5541,-4.5458,-4.5307,-4.5307,-4.5256,-4.5213,-4.517,-4.5084,0.0,0.0,0.0,0.0,-2.7792,0.0,0.0,0.0,-2.5318,-2.4621,0.0,0.0,0.0,0.0,0.0,0.0,0.0,0.0,0.0,0.0,0.0,0.0,0.0,0.0,0.0,-3.6972,-3.7769,-3.8543,-3.7873,-3.7828,-3.8689,-3.9409,-3.9858,-3.9937,-4.0698,-4.1109,-4.1109,-4.1109,-4.1109,-4.1109,-4.1109,-4.1109,-4.1109,-4.1109,-4.1109,-4.1109,-4.1109,-4.1109,-4.1109,-4.1109,-4.115,-4.141,-4.2913,-4.4008,-4.4806,-4.5538,-4.5764,-4.57,-4.5629,-4.5594,-4.5594,-4.5594,-4.5594,-4.5594,-4.5594,-4.5594,-4.5594,-4.5594,-4.5594,-4.5594,-4.5594,-4.5594,-4.5594,-4.5594,-4.5594,-4.5594,-4.5594,-4.5594,-4.5594,-4.5594,-4.5594,-4.5594,-4.5594,-4.5594,-4.5594,-4.5594,-4.5594,-4.5594,-4.5594,-4.5594,-4.5594,-4.5594,-4.5577,-4.432,-4.1259,-4.382,-4.5587,-4.5594,-4.5568,-4.555,-4.5532,-4.537,-4.5317,-4.5319,-4.5319,-4.5328,-4.5307,-4.5307,-4.5181,-4.4931,-4.4712,-4.4273,0.0,0.0,0.0,0.0,0.0,0.0,-2.5333,0.0,-2.6087,0.0,0.0,0.0,0.0,0.0,0.0,0.0,0.0,0.0,0.0,0.0,0.0,0.0,0.0,0.0,0.0,0.0,0.0,0.0,-3.5234,-3.5642,-3.7028,-3.8375,-3.9312,-3.98,-4.0659,-4.1109,-4.1109,-4.1109,-4.1109,-4.1109,-4.1109,-4.1109,-4.1109,-4.1109,-4.1109,-4.1109,-4.1109,-4.1109,-4.1109,-4.1109,-4.1087,-4.1192,-4.2809,-4.3656,-4.4081,-4.5309,-4.5723,-4.5698,-4.5612,-4.5594,-4.5594,-4.5594,-4.5594,-4.5594,-4.5594,-4.5594,-4.5594,-4.5594,-4.5594,-4.5594,-4.5594,-4.5594,-4.5594,-4.5594,-4.5594,-4.5594,-4.5594,-4.5594,-4.5594,-4.5594,-4.5594,-4.5594,-4.5594,-4.5594,-4.5594,-4.5594,-4.5594,-4.5594,-4.5594,-4.5594,-4.5594,-4.5594,-4.5594,-4.5017,-4.3574,-4.4767,-4.5594,-4.5594,-4.5594,-4.5541,-4.5429,-4.5329,-4.5307,-4.5307,-4.5307,-4.5213,-4.508,-4.4907,-4.4693,-4.4374,-4.4064,-4.3781,-3.4141,0.0,0.0,0.0,0.0,0.0,0.0,0.0,0.0,0.0,0.0,0.0,0.0,0.0,0.0,0.0,0.0,0.0,0.0,0.0,0.0,0.0,0.0,0.0,0.0,0.0,0.0,0.0,0.0,-3.3806,-3.5543,-3.7516,-3.8864,-3.9449,-4.0524,-4.1109,-4.1109,-4.1109,-4.1109,-4.1109,-4.1109,-4.1109,-4.1109,-4.1109,-4.1109,-4.1109,-4.1109,-4.1108,-4.1104,-4.1103,-4.1054,-4.1165,-4.2758,-4.3358,-4.3537,-4.5106,-4.5671,-4.5637,-4.5334,-4.5248,-4.5287,-4.5518,-4.5594,-4.5594,-4.5594,-4.5594,-4.5594,-4.5594,-4.5594,-4.5594,-4.5594,-4.5594,-4.5594,-4.5594,-4.5594,-4.5594,-4.5594,-4.5594,-4.5594,-4.5594,-4.5594,-4.5594,-4.5594,-4.5594,-4.5594,-4.5594,-4.5594,-4.5594,-4.5594,-4.5594,-4.5248,-4.4306,-4.5037,-4.5594,-4.5594,-4.5594,-4.5568,-4.5514,-4.5514,-4.5448,-4.5307,-4.5307,-4.5307,-4.5307,-4.5307,-4.5136,-4.4783,-4.4421,-4.4097,-4.3862,-4.3615,-4.3515,0.0,0.0,0.0,-3.1197,0.0,0.0,0.0,0.0,-2.6702,0.0,0.0,0.0,0.0,0.0,0.0,-2.6945,0.0,0.0,0.0,0.0,0.0,0.0,0.0,0.0,0.0,0.0,0.0,0.0,-3.2617,0.0,-3.4647,-3.7186,-3.8611,-3.863,-4.0231,-4.1109,-4.1109,-4.1109,-4.1109,-4.1109,-4.1109,-4.1109,-4.1109,-4.1109,-4.1109,-4.1109,-4.1109,-4.1104,-4.1094,-4.11,-4.1061,-4.1143,-4.2701,-4.3254,-4.341,-4.501,-4.5594,-4.5479,-4.4643,-4.4335,-4.447,-4.5325,-4.5594,-4.5594,-4.5594,-4.5594,-4.5594,-4.5594,-4.5594,-4.5594,-4.5594,-4.5594,-4.5594,-4.5594,-4.5594,-4.5594,-4.5594,-4.5594,-4.5594,-4.5594,-4.5594,-4.5594,-4.5594,-4.5594,-4.5594,-4.5594,-4.5594,-4.5594,-4.5594,-4.5594,-4.4325,-4.1016,-4.3613,-4.5594,-4.5594,-4.5594,-4.5514,-4.5328,-4.5317,-4.5307,-4.5307,-4.5307,-4.5307,-4.5307,-4.5307,-4.5045,-4.4515,-4.3862,-4.3532,-4.3532,-4.3515,-4.3515,0.0,0.0,-3.4986,-3.3548,0.0,0.0,0.0,0.0,0.0,0.0,0.0,0.0,0.0,0.0,-2.9546,-2.8721,-2.7675,0.0,0.0,0.0,0.0,0.0,0.0,0.0,0.0,0.0,0.0,0.0,-3.1114,0.0,0.0,-3.6325,-3.8006,-3.8572,-3.9663,-4.0522,-4.109,-4.1109,-4.1109,-4.1109,-4.1109,-4.1109,-4.1109,-4.1109,-4.1109,-4.1109,-4.1109,-4.1099,-4.1098,-4.1056,-4.1317,-4.183,-4.2832,-4.3542,-4.4118,-4.5205,-4.5594,-4.5556,-4.5267,-4.5171,-4.521,-4.5498,-4.5594,-4.5594,-4.5594,-4.5594,-4.5594,-4.5594,-4.5594,-4.5594,-4.5594,-4.5594,-4.5594,-4.5594,-4.5594,-4.5594,-4.5594,-4.5594,-4.5594,-4.5594,-4.5594,-4.5594,-4.5594,-4.5594,-4.5594,-4.5594,-4.5594,-4.5594,-4.5594,-4.5594,-4.5152,-4.3998,-4.4921,-4.5594,-4.5594,-4.5477,-4.5298,-4.5038,-4.4858,-4.4757,-4.4757,-4.4757,-4.4757,-4.4757,-4.4757,-4.4573,-4.4158,-4.3716,-4.3515,-4.3515,-4.3515,-4.3515,-3.9747,-3.8447,0.0,-3.5723,-3.3748,0.0,-3.0567,0.0,0.0,0.0,0.0,0.0,0.0,0.0,0.0,-3.0189,-2.8829,0.0,0.0,-2.5427,0.0,0.0,0.0,0.0,0.0,0.0,-2.8654,-2.9534,-3.0353,0.0,0.0,0.0,-3.7379,-3.8552,-3.937,-4.0229,-4.109,-4.1109,-4.1109,-4.1109,-4.1109,-4.1109,-4.1109,-4.1109,-4.1108,-4.1103,-4.1099,-4.1083,-4.1089,-4.1302,-4.1663,-4.2167,-4.3227,-4.3948,-4.4503,-4.5304,-4.5402,-4.519,-4.5498,-4.5402,-4.519,-4.5498,-4.5594,-4.5594,-4.5594,-4.5594,-4.5594,-4.5594,-4.5594,-4.5594,-4.5594,-4.5594,-4.5594,-4.5594,-4.5594,-4.5594,-4.5594,-4.5594,-4.5594,-4.5594,-4.5541,-4.5486,-4.5486,-4.5486,-4.5514,-4.5586,-4.5594,-4.5594,-4.5594,-4.5594,-4.5594,-4.5594,-4.5594,-4.5594,-4.5594,-4.5429,-4.5148,-4.477,-4.4378,-4.4143,-4.4143,-4.4143,-4.4143,-4.4143,-4.4143,-4.4036,-4.383,-4.3599,-4.3515,-4.3515,-4.3515,-4.3515]},{"header":{"parameterUnit":"m.s-1","parameterCategory":1,"la1":30.6,"la2":29.2853,"lo1":-89.7004,"lo2":-87.6739,"dy":0.0162,"dx":0.0183,"nx":112,"ny":82,"refTime":"2026-05-17T12:00:00:Z","depth":0,"parameterNumber":3,"parameterNumberName":"V-component_of_WINDS"},"data":[0.0,0.0,0.0,0.0,0.0,0.0,0.0,0.0,0.0,0.0,0.0,0.0,0.0,0.0,0.0,0.0,0.0,0.0,0.0,0.0,0.0,0.0,0.0,0.0,0.0,0.0,0.0,0.0,0.0,0.0,0.0,0.0,0.0,0.0,0.0,0.0,0.0,0.0,0.0,0.0,0.0,0.0,0.0,0.0,0.0,0.0,0.0,0.0,0.0,0.0,0.0,0.0,0.0,0.0,0.0,0.0,0.0,0.0,0.0,0.0,0.0,0.0,0.0,0.0,0.0,0.0,0.0,0.0,0.0,0.0,0.0,0.0,0.0,0.0,0.0,0.0,0.0,0.0,0.0,0.0,0.0,0.0,0.0,0.0,0.0,0.0,0.0,0.0,0.0,0.0,0.0,0.3132,0.3565,0.3764,0.3645,0.3451,0.3331,0.3273,0.0,0.0,0.0,0.0,0.0,0.0,0.0,0.0,0.0,0.0,0.0,0.0,0.0,0.0,0.0,0.0,0.0,0.0,0.0,0.0,0.0,0.0,0.0,0.0,0.0,0.0,0.0,0.0,0.0,0.0,0.0,0.0,0.0,0.0,0.0,0.0,0.0,0.0,0.0,0.0,0.0,0.0,0.0,0.0,0.0,0.0,0.0,0.0,0.0,0.0,0.0,0.0,0.0,0.0,0.0,0.0,0.0,0.0,0.0,0.0,0.0,0.0,0.0,0.0,0.0,0.0,0.0,0.0,0.0,0.0,0.0,0.0,0.0,0.0,0.0,0.0,0.0,0.0,0.0,0.0,0.0,0.0,0.0,0.0,0.0,0.0,0.0,0.0,0.0,0.0,0.0,0.0,0.0,0.0,0.0,0.0,0.0,0.0,0.0,0.0,0.0,0.0,0.0,0.0,0.2654,0.3593,0.3751,0.3782,0.3761,0.3629,0.3425,0.3141,0.0,0.0,0.0,0.0,0.0,0.0,0.0,0.0,0.0,0.0,0.0,0.0,0.0,0.0,0.0,0.0,0.0,0.0,0.0,0.0,0.0,0.0,0.0,0.0,0.0,0.0,0.0,0.0,0.0,0.0,0.0,0.0,0.0,0.0,0.0,0.0,0.0,0.0,0.0,0.0,0.0,0.0,0.0,0.0,0.0,0.0,0.0,0.0,0.0,0.0,0.0,0.0,0.0,0.0,0.0,0.0,0.0,0.0,0.0,0.0,0.0,0.0,0.0,0.0,0.0,0.0,0.0,0.0,0.0,0.0,0.0,0.0,0.0,0.0,0.0,0.0,0.0,0.0,0.0,0.0,0.0,0.0,0.0,0.0,0.0,0.0,0.0,0.0,0.0,0.0,0.0,0.0,0.0,0.0,0.0,0.0,0.0,0.0,0.0,0.0,0.0,0.0,0.0,0.2619,0.3282,0.3754,0.3941,0.3947,0.3805,0.3682,0.3415,0.3013,0.2804,0.0,0.0,0.0,0.0,0.0,0.0,0.0,0.0,0.0,0.0,0.0,0.0,0.0,0.0,0.0,0.0,0.0,0.0,0.0,0.0,0.0,0.0,0.0,0.0,0.0,0.0,0.0,0.0,0.0,0.0,0.0,0.0,0.0,0.0,0.0,0.0,0.0,0.0,0.0,0.0,0.0,0.0,0.0,0.0,0.0,0.0,0.0,0.0,0.0,0.0,0.0,0.0,0.0,0.0,0.0,0.0,0.0,0.0,0.0,0.0,0.0,0.0,0.0,0.0,0.0,0.0,0.0,0.0,0.0,0.0,0.0,0.0,0.0,0.0,0.0,0.0,0.0,0.0,0.0,0.0,0.0,0.0,0.0,0.0,0.0,0.0,0.0,0.0,0.0,0.0,0.0,0.0,0.0,0.0,0.0,0.0,0.0,0.0,0.0,0.0,0.0,0.0,0.3186,0.3805,0.3839,0.4062,0.4112,0.387,0.3706,0.3409,0.2937,0.2654,0.0,0.0,0.0,0.0,0.0,0.0,0.0,0.0,0.0,0.0,0.0,0.0,0.0,0.0,0.0,0.0,0.0,0.0,0.0,0.0,0.0,0.0,0.0,0.0,0.0,0.0,0.0,0.0,0.0,0.0,0.0,0.0,0.0,0.0,0.0,0.0,0.0,0.0,0.0,0.0,0.0,0.0,0.0,0.0,0.0,0.0,0.0,0.0,0.0,0.0,0.0,0.0,0.0,0.0,0.0,0.0,0.0,0.0,0.0,0.0,0.0,0.0,0.0,0.0,0.0,0.0,0.0,0.0,0.0,0.0,0.0,0.0,0.0,0.0,0.0,0.0,0.0,0.0,0.0,0.0,0.0,0.0,0.0,0.0,0.0,0.0,0.0,0.0,0.0,0.0,0.0,0.0,0.0,0.0,0.0,0.0,0.0,0.0,0.0,0.0,0.0,0.0,0.3207,0.3846,0.3964,0.4126,0.413,0.3994,0.3744,0.3409,0.2937,0.2654,0.0,0.0,0.0,0.0,0.0,0.0,0.0,0.0,0.0,0.0,0.0,0.0,0.0,0.0,0.0,0.0,0.0,0.0,0.0,0.0,0.0,0.0,0.0,0.0,0.0,0.0,0.0,0.0,0.0,0.0,0.0,0.0,0.0,0.0,0.0,0.0,0.0,0.0,0.0,0.0,0.0,0.0,0.0,0.0,0.0,0.0,0.0,0.0,0.0,0.0,0.0,0.0,0.0,0.0,0.0,0.0,0.0,0.0,0.0,0.0,0.0,0.0,0.0,0.0,0.0,0.0,0.0,0.0,0.0,0.0,0.0,0.0,0.0,0.0,0.0,0.0,0.0,0.0,0.0,0.0,0.0,0.0,0.0,0.0,0.0,0.0,0.0,0.0,0.0,0.0,0.0,0.0,0.0,0.0,0.0,0.0,0.0,0.0,0.0,0.0,0.0,0.0,0.2898,0.3437,0.0,0.3688,0.3782,0.3639,0.342,0.3113,0.2677,0.0,0.0,0.0,0.0,0.0,0.0,0.0,0.0,0.0,0.0,0.0,0.0,0.0,0.0,0.0,0.0,0.0,0.0,0.0,0.0,0.0,0.0,0.0,0.0,0.0,0.0,0.0,0.0,0.0,0.0,0.0,0.0,0.0,0.0,0.0,0.0,0.0,0.0,0.0,0.0,0.0,0.0,0.0,0.0,0.0,0.0,0.0,0.0,0.0,0.0,0.0,0.0,0.0,0.0,0.0,0.0,0.0,0.0,0.0,0.0,0.0,0.0,0.0,0.0,0.0,0.0,0.0,0.0,0.0,0.0,0.0,0.0,0.0,0.0,0.0,0.0,0.0,0.0,0.0,0.0,0.0,0.0,0.0,0.0,0.0,0.0,0.0,0.0,0.0,0.0,0.0,0.0,0.0,0.0,0.0,0.0,0.0,0.0,0.0,0.0,0.0,0.0,0.1839,0.2491,0.2943,0.0,0.3166,0.329,0.3215,0.3101,0.2861,0.2461,0.0,0.0,0.0,0.0,0.0,0.0,0.0,0.0,0.0,0.0,0.0,0.0,0.0,0.0,0.0,0.0,0.0,0.0,0.0,0.0,0.0,0.0,0.0,0.0,0.0,0.0,0.0,0.0,0.0,0.0,0.0,0.0,0.0,0.0,0.0,0.0,0.0,0.0,0.0,0.0,0.0,0.0,0.0,0.0,0.0,0.0,0.0,0.0,0.0,0.0,0.0,0.0,0.0,0.0,0.0,0.0,0.0,0.0,0.0,0.0,0.0,0.0,0.0,0.0,0.0,0.0,0.0,0.0,0.0,0.0,0.0,0.0,0.0,0.0,0.0,0.0,0.0,0.0,0.0,0.0,0.0,0.0,0.0,0.0,0.0,0.0,0.0,0.0,0.0,0.0,0.0,0.0,0.0,0.0,0.0,0.0,0.0,0.0,0.0,0.0,0.0,0.0,0.1567,0.2058,0.2392,0.2392,0.2574,0.2715,0.278,0.2861,0.2735,0.0,0.0,0.0,0.0,0.0,0.0,0.0,0.0,0.0,0.0,0.0,0.0,0.0,0.0,0.0,0.0,0.0,0.0,0.0,0.0,0.0,0.0,0.0,0.0,0.0,0.0,0.0,0.0,0.0,0.0,0.0,0.0,0.0,0.0,0.0,0.0,0.0,0.0,0.0,0.0,0.0,0.0,0.0,0.0,0.0,0.0,0.0,0.0,0.0,0.0,0.0,0.0,0.0,0.0,0.0,0.0,0.0,0.0,0.0,0.0,0.0,0.0,0.0,0.0,0.0,0.0,0.0,0.0,0.0,0.0,0.0,0.0,0.0,0.0,0.0,0.0,0.0,0.0,0.0,0.0,0.0,0.0,0.0,0.0,0.0,0.0,0.0,0.0,0.0,0.0,0.0,0.0,0.0,0.0,0.0,0.0,0.0,0.0,0.0,0.0,0.0,0.0,0.0,0.1222,0.158,0.1841,0.1841,0.1961,0.2148,0.2354,0.2525,0.2554,0.2389,0.0,0.0,0.0,0.0,0.0,0.0,0.0,0.0,0.0,0.0,0.0,0.0,0.0,0.0,0.0,0.0,0.0,0.0,0.0,0.0,0.0,0.0,0.0,0.0,0.0,0.0,0.0,0.0,0.0,0.0,0.0,0.0,0.0,0.0,0.0,0.0,0.0,0.0,0.0,0.0,0.0,0.0,0.0,0.0,0.0,0.0,0.0,0.0,0.0,0.0,0.0,0.0,0.0,0.0,0.0,0.0,0.0,0.0,0.0,0.0,0.0,0.0,0.0,0.0,0.0,0.0,0.0,0.0,0.0,0.0,0.0,0.0,0.0,0.0,0.0,0.0,0.0,0.0,0.0,0.0,0.0,0.0,0.0,0.0,0.0,0.0,0.0,0.0,0.0,0.0,0.0,0.0,0.0,0.0,0.0,0.0,0.0,0.0,0.0,0.0,0.0,0.0,0.0892,0.1123,0.1287,0.1287,0.1372,0.1579,0.1901,0.2196,0.2368,0.232,0.0,0.0,0.0,0.0,0.0,0.0,0.0,0.0,0.0,0.0,0.0,0.0,0.0,0.0,0.0,0.0,0.0,0.0,0.0,0.0,0.0,0.0,0.0,0.0,0.0,0.0,0.0,0.0,0.0,0.0,0.0,0.0,0.0,0.0,0.0,0.0,0.0,0.0,0.0,0.0,0.0,0.0,0.0,0.0,0.0,0.0,0.0,0.0,0.0,0.0,0.0,0.0,0.0,0.0,0.0,0.0,0.0,0.0,0.0,0.0,0.0,0.0,0.0,0.0,0.0,0.0,0.0,0.0,0.0,0.0,0.0,0.0,0.0,0.0,0.0,0.0,0.0,0.0,0.0,0.0,0.0,0.0,0.0,0.0,0.0,0.0,0.0,0.0,0.0,0.0,0.0,0.0,0.0,0.0,0.0,0.0,0.0,0.0,0.0,0.0,0.0,0.0,0.0566,0.0712,0.0808,0.081,0.0863,0.1064,0.1448,0.1915,0.2181,0.2199,0.0,0.0,0.0,0.0,0.0,0.0,0.0,0.0,0.0,0.0,0.0,0.0,0.0,0.0,0.0,0.0,0.0,0.0,0.0,0.0,0.0,0.0,0.0,0.0,0.0,0.0,0.0,0.0,0.0,0.0,0.0,0.0,0.0,0.0,0.0,0.0,0.0,0.0,0.0,0.0,0.0,0.0,0.0,0.0,0.0,0.0,0.0,0.0,0.0,0.0,0.0,0.0,0.0,0.0,0.0,0.0,0.0,0.0,0.0,0.0,-0.437,0.0,0.0,0.0,0.0,0.0,0.0,0.0,0.0,0.0,0.0,0.0,0.0,0.0,0.0,0.0,0.0,0.0,0.0,0.0,0.0,0.0,0.0,0.0,0.0,0.0,0.0,0.0,0.0,0.0,0.0,0.0,0.0,0.0,0.0,0.0,0.0,0.0,0.0,0.0,0.0,0.0,0.051,0.0678,0.0816,0.0866,0.0903,0.101,0.132,0.1737,0.202,0.2112,0.2156,0.0,0.0,0.0,0.0,0.0,0.0,0.0,0.0,0.0,0.0,0.0,0.0,0.0,0.0,0.0,0.0,0.0,0.0,0.0,0.0,0.0,0.0,0.0,0.0,0.0,0.0,0.0,0.0,0.0,0.0,0.0,0.0,0.0,0.0,0.0,0.0,0.0,0.0,0.0,0.0,0.0,0.0,0.0,0.0,0.0,0.0,0.0,0.0,0.0,0.0,0.0,0.0,0.0,0.0,0.0,0.0,0.0,0.0,0.0,0.0,-0.4339,0.0,0.0,0.0,0.0,0.0,0.0,0.0,0.0,0.0,0.0,0.0,0.0,0.0,0.0,0.0,0.0,0.0,0.0,0.0,0.0,0.0,0.0,0.0,0.0,0.0,0.0,0.0,0.0,0.0,0.0,0.0,0.0,0.0,0.0,0.0,0.0,0.0,0.0,0.0,0.0,0.0496,0.061,0.0716,0.0743,0.0797,0.0906,0.1145,0.1502,0.1799,0.2029,0.212,0.0,0.0,0.0,0.0,0.0,0.0,0.0,0.0,0.0,0.0,0.0,0.0,0.0,0.0,0.0,0.0,0.0,0.0,0.0,0.0,0.0,0.0,0.0,0.0,0.0,0.0,0.0,0.0,0.0,0.0,0.0,0.0,0.0,0.0,0.0,0.0,0.0,0.0,0.0,0.0,0.0,0.0,0.0,0.0,0.0,0.0,0.0,0.0,0.0,0.0,0.0,0.0,0.0,-0.7855,-0.7876,-0.7554,-0.7105,-0.6657,-0.6146,-0.5582,-0.4941,-0.426,-0.3963,0.0,0.0,0.0,0.0,0.0,0.0,0.0,0.0,0.0,0.0,0.0,0.0,0.0,0.0,0.0,0.0,0.0,0.0,0.0,0.0,0.0,0.0,0.0,0.0,0.0815,0.0791,0.067,0.0,0.0,0.0,0.0,0.0,0.0,0.0,0.0,0.0,0.0,0.0,0.0509,0.0572,0.062,0.0642,0.0689,0.0775,0.0988,0.1263,0.1588,0.1917,0.2087,0.2215,0.0,0.0,0.0,0.0,0.0,0.0,0.0,0.0,0.0,0.0,0.0,0.0,0.0,0.0,0.0,0.0,0.0,0.0,0.0,0.0,0.0,0.0,0.0,0.0,0.0,0.0,0.0,0.0,0.0,0.0,0.0,0.0,-0.3372,-0.371,0.0,0.0,0.0,0.0,0.0,0.0,0.0,0.0,0.0,0.0,0.0,0.0,0.0,-0.7224,-0.7521,-0.8059,-0.8528,-0.8926,-0.899,-0.9032,-0.8985,-0.8425,-0.7845,-0.7238,-0.6374,0.0,-0.4617,-0.4235,0.0,0.0,0.0,0.0,0.0,0.0,0.0,0.0,0.0,0.0,0.0,0.0,0.0,0.0,0.0,0.0,0.0,0.0,0.0,0.0,0.0,0.0,0.0891,0.0885,0.0899,0.0877,0.0,0.078,0.0677,0.0689,0.0575,0.0,0.0,0.0,0.0,0.0,0.0,0.0,0.0582,0.0605,0.067,0.0833,0.0755,0.0775,0.0988,0.116,0.1392,0.1713,0.197,0.2143,0.2209,0.2376,0.0,0.0,0.0,0.0,0.0,0.0,0.0,0.0,0.0,0.0,0.0,0.0,0.0,0.0,0.0,0.0,0.0,0.0,0.0,0.0,0.0,0.0,0.0,0.0,0.0,0.0,0.0,0.0,0.0,-0.3531,-0.4167,-0.4446,-0.4591,-0.4727,0.0,0.0,0.0,0.0,0.0,0.0,0.0,0.0,0.0,-0.7393,-0.7946,-0.8355,-0.8587,-0.9206,-0.9615,-0.982,-0.9949,-0.9885,-0.9685,-0.9207,-0.8533,-0.7789,-0.6891,-0.6093,-0.5447,-0.477,-0.4406,-0.4205,0.0,0.0,0.0,0.0,-0.3605,-0.3234,-0.2563,-0.1954,-0.1277,-0.0472,0.0,0.0,0.0,0.0,0.0,0.0,0.0,0.0,0.0,0.0,0.0952,0.0965,0.0958,0.0948,0.0948,0.0907,0.0851,0.0,0.0737,0.0652,0.0623,0.0,0.0,0.0,0.0,0.0541,0.0634,0.0619,0.0648,0.0783,0.0729,0.0725,0.0824,0.0912,0.1143,0.1564,0.1845,0.2118,0.2416,0.2691,0.2696,0.0,0.0,0.0,0.0,0.0,0.0,0.0,0.0,0.0,0.0,0.0,0.0,0.0,0.0,0.0,0.0,0.0,0.0,0.0,0.0,0.0,0.0,0.0,0.0,0.0,0.0,0.0,0.0,-0.4445,-0.4996,-0.5318,-0.548,-0.5631,0.0,0.0,0.0,0.0,0.0,0.0,-0.7355,-0.7555,-0.7901,-0.8436,-0.8981,-0.9349,-0.948,-1.0083,-1.0412,-1.0471,-1.0643,-1.0546,-1.0228,-0.9805,-0.9188,-0.8363,-0.7392,-0.6699,-0.6142,-0.5255,-0.4817,-0.4665,-0.4393,-0.4376,-0.4469,-0.4313,-0.4136,-0.3883,-0.3184,-0.2532,-0.1869,-0.0927,-0.0364,-0.0032,0.0148,0.0,0.0,0.0,0.0,0.0666,0.0677,0.0812,0.095,0.0957,0.0953,0.0946,0.0939,0.0969,0.0973,0.0,0.0855,0.0811,0.0748,0.0,0.0,0.0,0.0,0.0649,0.0736,0.0686,0.0654,0.0755,0.0729,0.0701,0.0757,0.0789,0.1009,0.1463,0.1773,0.2139,0.2579,0.2924,0.2947,0.2609,0.0,0.0,0.0,0.0,0.0,0.0,0.0,0.0,0.0,0.0,0.0,0.0,0.0,0.0,0.0,0.0,0.0,0.0,0.0,0.0,0.0,0.0,0.0,0.0,0.0,0.0,0.0,0.0,0.0,-0.6266,-0.6331,0.0,0.0,0.0,0.0,-0.7271,-0.7557,-0.7822,-0.8142,-0.8732,-0.9114,-0.9152,-0.9846,-1.0229,-1.0239,-1.0453,-1.0729,-1.095,-1.0961,-1.0963,-1.0928,-1.0481,-0.9874,-0.9187,-0.7994,-0.7121,-0.6501,-0.5557,-0.5162,-0.5127,-0.4852,-0.4836,-0.4966,-0.4804,-0.4644,-0.439,-0.3844,-0.3074,-0.2242,-0.1408,-0.063,0.0,0.0,0.0,0.0,0.0,0.0256,0.0521,0.0583,0.0717,0.0811,0.09,0.0855,0.08,0.0811,0.0902,0.0973,0.0,0.0893,0.0872,0.0813,0.0,0.0649,0.0775,0.0722,0.0741,0.0876,0.0767,0.0756,0.087,0.0785,0.0757,0.087,0.0842,0.1009,0.1463,0.1869,0.2251,0.2581,0.2924,0.3027,0.289,0.2435,0.0,0.0,0.0,0.0,0.0,0.0,0.0,0.0,0.0,0.0,0.0,0.0,0.0,0.0,0.0,0.0,0.0,0.0,0.0,0.0,0.0,0.0,0.0,0.0,0.0,0.0,0.0,0.0,-0.6783,-0.7112,0.0,-0.7771,-0.7647,-0.7847,-0.8495,-0.8657,-0.8942,-0.9533,-0.9771,-0.997,-1.0083,-1.0525,-1.0735,-1.0735,-1.0935,-1.1171,-1.1445,-1.1445,-1.1525,-1.1711,-1.1521,-1.098,-1.0071,-0.8898,-0.7979,-0.7148,-0.6113,-0.5513,-0.5336,-0.5211,-0.5205,-0.5238,-0.5195,-0.5041,-0.4831,-0.434,-0.3663,-0.2809,-0.1497,-0.0586,0.0,0.0,0.0,0.0,0.0,0.0276,0.0527,0.0429,0.0643,0.0814,0.0667,0.0731,0.0789,0.0802,0.0929,0.1046,0.0964,0.0969,0.0943,0.0873,0.0838,0.0804,0.0868,0.0847,0.0854,0.0881,0.0863,0.0842,0.0898,0.087,0.0842,0.0898,0.0842,0.1009,0.1463,0.1872,0.2308,0.2781,0.3078,0.3159,0.303,0.27,0.2413,0.0,0.0,0.0,0.0,0.0,0.0,0.0,0.0,0.0,0.0,0.0,0.0,0.0,0.0,0.0,0.0,0.0,0.0,0.0,0.0,0.0,0.0,0.0,0.0,0.0,0.0,-0.7155,-0.7521,-0.7919,-0.8317,-0.863,-0.8587,-0.8836,-0.9518,-0.9572,-0.982,-1.0379,-1.0482,-1.0595,-1.0751,-1.1058,-1.1225,-1.1225,-1.1467,-1.1666,-1.1817,-1.1817,-1.1943,-1.2094,-1.2094,-1.1543,-1.0519,-0.9455,-0.8459,-0.7526,-0.6412,-0.5825,-0.5654,-0.5654,-0.5654,-0.5651,-0.5564,-0.5505,-0.5282,-0.4601,-0.3887,-0.3007,-0.1588,-0.0615,0.0,0.0,0.0,0.0,0.0,0.0224,0.0454,0.0337,0.0483,0.0661,0.0469,0.0532,0.0627,0.0617,0.0813,0.0971,0.0954,0.096,0.0994,0.0933,0.0928,0.0918,0.0917,0.0913,0.0909,0.0899,0.0898,0.0898,0.0898,0.0898,0.0894,0.0911,0.0836,0.1003,0.1462,0.1882,0.2346,0.2868,0.3177,0.3283,0.3178,0.2856,0.251,0.2134,0.0,0.0,0.0,0.0,0.0,0.0,0.0,0.0,0.0,0.0,0.0,0.0,0.0,0.0,0.0,0.0,0.0,0.0,0.0,0.0,0.0,0.0,0.0,-0.6452,-0.7452,-0.8284,-0.8517,-0.8754,-0.9117,-0.9603,-0.94,-0.9556,-1.0277,-1.0336,-1.0439,-1.063,-1.0891,-1.102,-1.102,-1.1467,-1.1709,-1.1709,-1.1981,-1.2094,-1.2105,-1.2105,-1.2105,-1.2116,-1.2116,-1.1559,-1.0547,-0.9554,-0.8528,-0.755,-0.6514,-0.6094,-0.6094,-0.6089,-0.6086,-0.6072,-0.5953,-0.5909,-0.5707,-0.4649,-0.3671,-0.2695,-0.1695,-0.0772,0.0,0.0,0.0,0.0,0.0,0.0163,0.0283,0.0277,0.0309,0.0303,0.0303,0.0292,0.0316,0.0316,0.0585,0.0811,0.081,0.0925,0.0994,0.0995,0.099,0.098,0.0919,0.0914,0.0,0.0902,0.0898,0.0898,0.0898,0.0898,0.0913,0.091,0.0851,0.0993,0.1458,0.1877,0.2346,0.2868,0.322,0.3368,0.3299,0.291,0.2484,0.2019,0.0,0.0,0.0,0.0,0.0,0.0,0.0,0.0,0.0,0.0,0.0,0.0,0.0,0.0,0.0,0.0,0.0,0.0,0.0,0.0,0.0,-0.6951,-0.76,-0.7181,-0.7887,-0.863,-0.9217,-0.9491,-0.982,-1.0299,-1.0433,-1.0654,-1.0989,-1.1219,-1.1413,-1.1689,-1.1765,-1.1797,-1.1797,-1.1927,-1.1997,-1.1997,-1.2062,-1.2186,-1.2312,-1.2312,-1.2404,-1.2613,-1.2613,-1.2038,-1.0966,-0.9801,-0.8768,-0.7808,-0.6688,-0.6265,-0.6323,-0.6151,-0.6086,-0.6081,-0.6048,-0.58,-0.5314,-0.424,-0.3238,-0.2265,-0.1429,-0.0658,0.0,0.0,0.0,0.0,0.0,0.0165,0.0284,0.0121,0.0198,0.0271,0.0114,0.0187,0.0332,0.0471,0.0717,0.0887,0.1009,0.1034,0.1047,0.0998,0.0989,0.0979,0.098,0.0927,0.0,0.0902,0.0911,0.0898,0.0898,0.0898,0.0894,0.0913,0.0837,0.1004,0.1467,0.1884,0.2346,0.2868,0.3177,0.3276,0.3165,0.2943,0.273,0.0,0.0,0.0,0.0,0.0,0.0,0.0,0.0,0.0,0.0,0.0,0.0,0.0,0.0,0.0,0.0,0.0,0.0,0.0,0.0,0.0,0.0,-0.7887,-0.8565,-0.8463,-0.8806,-0.926,-0.9674,-1.0019,-1.0329,-1.0746,-1.0999,-1.1235,-1.1434,-1.1715,-1.1948,-1.2089,-1.2094,-1.2094,-1.2094,-1.2191,-1.2245,-1.2245,-1.2348,-1.2467,-1.256,-1.256,-1.2635,-1.2813,-1.2813,-1.2224,-1.114,-0.9985,-0.8928,-0.7932,-0.681,-0.6377,0.0,0.0,0.0,0.0,0.0,-0.546,-0.4795,-0.3755,-0.2743,-0.1751,-0.114,-0.0493,0.0,0.0,0.0,0.0,0.0,0.0085,0.0167,0.0041,0.0081,0.0159,0.0039,0.0153,0.0339,0.0446,0.0698,0.094,0.0986,0.1051,0.0,0.1059,0.1051,0.1042,0.1012,0.0982,0.0927,0.0915,0.0887,0.0898,0.0898,0.0898,0.0892,0.0907,0.0872,0.0,0.0,0.0,0.2477,0.3257,0.3485,0.0,0.0,0.0,0.0,0.0,0.0,0.0,0.0,0.2228,0.2347,0.0,0.0,0.0,0.0,0.0,0.0,0.0,0.0,0.0,0.0,0.0,0.0,0.0,0.0,0.0,0.0,-0.8673,-0.9432,-0.9857,-0.9986,-1.0002,-1.0002,-1.0377,-1.0778,-1.1036,-1.1284,-1.1482,-1.1763,-1.2046,-1.2175,-1.2175,0.0,0.0,0.0,0.0,-1.2457,-1.2457,-1.2657,-1.2813,-1.2813,-1.2813,-1.2813,-1.2813,-1.2813,-1.2224,-1.1145,-1.0051,-0.897,-0.7939,-0.6836,-0.6387,-0.6387,-0.6387,-0.6387,-0.6323,-0.5684,-0.5054,-0.4304,-0.3297,0.0,0.0,-0.0833,-0.0366,0.0,0.0,0.0,0.0,0.0,0.0,0.0,0.0,0.0,0.0,0.0,0.0155,0.0304,0.0342,0.0635,0.0912,0.0924,0.1022,0.1117,0.1086,0.1112,0.1067,0.101,0.101,0.0978,0.0922,0.0918,0.0898,0.0898,0.0,0.0,0.0913,0.0907,0.1104,0.1579,0.2055,0.277,0.3792,0.3948,0.3897,0.3658,0.3651,0.3432,0.3035,0.3256,0.3249,0.3013,0.2985,0.2957,0.0,0.0,0.0,0.0,0.0,0.0,0.0,0.0,0.0,0.0,0.0,0.0,0.0,0.0,0.0,-0.8291,-0.9168,-0.9814,-0.9906,-1.0412,-1.0778,-1.0778,-1.0859,-1.1085,-1.1521,-1.1819,-1.2011,-1.2258,-1.249,-1.2672,-1.2672,-1.2672,-1.2672,-1.2672,-1.2721,-1.2694,-1.2694,-1.2786,-1.2813,-1.2813,0.0,0.0,-1.2813,-1.2813,-1.2224,-1.1145,-1.0051,-0.897,-0.7939,-0.6836,-0.6387,-0.6387,-0.6387,-0.6387,-0.6284,-0.5518,-0.4746,-0.3924,-0.289,-0.18,-0.0869,-0.0561,-0.0231,0.0,0.0,0.0,0.0,0.0,0.0,0.0,0.0,0.0,0.0,0.0,0.0157,0.0351,0.0507,0.0738,0.0961,0.1125,0.1174,0.1148,0.1117,0.1092,0.1107,0.1068,0.1022,0.0986,0.098,0.0931,0.0898,0.0898,0.0898,0.0895,0.0889,0.0893,0.1115,0.1637,0.2518,0.3307,0.3926,0.3981,0.3967,0.3934,0.391,0.3866,0.3782,0.3839,0.3836,0.3772,0.3453,0.3266,0.0,0.0,0.0,0.0,0.0,0.0,0.0,0.0,0.0,0.0,0.0,-0.6545,-0.7242,0.0,-0.8575,-0.8802,-0.9561,-1.0148,-1.0222,-1.0686,-1.0982,-1.0982,-1.1095,-1.1219,-1.1461,-1.1844,-1.2143,-1.2221,-1.2608,-1.2813,-1.2813,-1.2813,-1.2813,-1.2813,-1.2813,-1.2813,-1.2813,-1.2813,-1.2813,-1.2813,-1.2813,-1.2716,-1.2613,-1.2467,-1.1834,-1.0752,-0.9661,-0.8673,-0.7736,-0.6786,-0.6387,-0.6387,-0.6387,-0.6387,-0.6287,-0.5338,-0.4431,-0.3469,-0.2393,-0.1286,-0.0391,-0.0237,-0.0093,0.0,0.0,0.0,0.0,0.0,0.0,0.0,0.0,0.0,0.0,0.0,0.0236,0.0471,0.0589,0.0864,0.1131,0.1179,0.1187,0.1193,0.1126,0.1096,0.1109,0.1109,0.1039,0.1011,0.1011,0.0971,0.0937,0.0893,0.0891,0.0914,0.0899,0.1186,0.1572,0.208,0.2925,0.3612,0.4086,0.4202,0.4206,0.4109,0.4109,0.4072,0.3994,0.4072,0.4068,0.3991,0.387,0.3735,0.0,0.0,0.0,0.0,0.0,0.0,0.0,0.0,-0.4686,-0.5722,-0.6452,-0.7139,-0.7806,-0.8479,-0.8978,-0.9168,-0.9852,-1.0423,-1.0571,-1.088,-1.1052,-1.1052,-1.1187,-1.1327,-1.137,-1.1801,-1.2116,-1.2164,-1.257,-1.2813,-1.2813,-1.2813,-1.2813,-1.2813,-1.2813,-1.2813,-1.2813,-1.2813,-1.2813,-1.2813,-1.2813,-1.2613,-1.2322,-1.1975,-1.1243,-1.0162,-0.9023,-0.8077,-0.7332,-0.6686,-0.6387,-0.6387,-0.6387,-0.6387,-0.6287,-0.5186,-0.413,-0.3022,-0.1966,-0.0899,0.0,0.0,0.0,0.0,0.0,0.0,0.0,0.0,0.0,0.0,0.0,0.0,0.0,0.004,0.0353,0.0628,0.0668,0.0982,0.1289,0.1226,0.1191,0.1195,0.1134,0.1099,0.1109,0.1109,0.1052,0.1001,0.1001,0.1007,0.0979,0.0924,0.0917,0.0901,0.09,0.1456,0.2018,0.2502,0.3199,0.3786,0.4241,0.4402,0.4436,0.4267,0.4264,0.4203,0.4107,0.4203,0.42,0.4107,0.4206,0.4166,-0.3094,-0.3269,-0.3467,-0.3351,-0.3508,-0.3743,0.0,0.0,-0.4919,-0.5522,-0.6237,-0.6935,-0.7602,-0.8233,-0.8796,-0.9212,-1.0021,-1.0565,-1.0592,-1.0984,-1.1268,-1.1268,-1.1289,-1.1391,-1.1639,-1.1937,-1.2186,-1.2361,-1.2662,-1.2813,-1.2813,-1.2813,-1.2813,-1.2813,-1.2813,-1.2813,-1.2813,-1.2813,-1.2813,-1.2813,-1.2813,-1.2516,-1.2029,-1.1521,-1.0685,-0.9608,-0.8028,-0.7036,-0.6537,-0.6437,-0.6387,-0.6387,-0.6387,-0.6387,-0.6287,-0.5186,-0.413,-0.3022,-0.1966,-0.0907,0.0,0.0,0.0,0.0,0.0,0.0,0.0,0.0,0.0,0.0,0.0,0.0,0.0042,0.0238,0.0432,0.0667,0.0825,0.11,0.1295,0.1292,0.1243,0.1202,0.1198,0.1149,0.1109,0.1109,0.1052,0.1001,0.1001,0.1007,0.0987,0.0984,0.0929,0.0901,0.09,0.1456,0.2037,0.2639,0.3267,0.3852,0.444,0.4481,0.4484,0.4467,0.4467,0.4457,0.444,0.4457,0.4457,0.444,0.4457,0.4287,-0.3318,-0.343,-0.3567,0.0,-0.3656,-0.3952,-0.4085,-0.4483,-0.4954,-0.5498,-0.6154,-0.6815,-0.7325,-0.8089,-0.8768,0.0,-0.9943,-1.0597,-1.0597,-1.1005,-1.1305,-1.1305,-1.1305,-1.1343,-1.1445,-1.1828,-1.2137,-1.224,-1.2597,-1.2813,-1.2813,-1.2813,-1.2716,-1.257,-1.2419,-1.2273,-1.2127,-1.1932,-1.1878,-1.1878,-1.1878,-1.1585,-1.1047,-1.0493,-0.9505,-0.8177,-0.7338,-0.6739,-0.6387,-0.6387,-0.6387,-0.6387,-0.6387,-0.6387,-0.6287,-0.5186,-0.413,-0.3022,-0.1966,-0.0908,0.0,0.0,0.0,0.0,0.0,0.0091,0.0224,0.0224,0.0314,0.0401,0.0389,0.0425,0.0418,0.0525,0.0674,0.0786,0.0864,0.11,0.1296,0.1296,0.1246,0.1203,0.1203,0.1151,0.1109,0.1109,0.1065,0.1058,0.1058,0.1047,0.1058,0.0992,0.0931,0.0901,0.09,0.1456,0.2068,0.2653,0.3272,0.386,0.4463,0.4491,0.4491,0.4491,0.4491,0.4491,0.4491,0.4491,0.4491,0.4491,0.4491,0.4423,-0.3481,-0.3546,0.0,-0.3577,-0.3808,-0.4088,-0.4213,-0.4555,-0.4927,-0.5339,-0.5896,-0.6437,-0.6842,-0.7787,-0.8576,-0.8835,-0.9841,-1.0597,-1.0516,-1.0879,-1.1127,-1.1132,-1.1127,-1.1127,-1.1132,-1.167,-1.2024,-1.2089,-1.2483,-1.2694,-1.2807,-1.2813,-1.2613,-1.2322,-1.1975,-1.1629,-1.1287,-1.0944,-1.0748,-1.0748,-1.0748,-1.0502,-0.9916,-0.9266,-0.8223,-0.6986,-0.6789,-0.6589,-0.6387,-0.6387,-0.6387,-0.6387,-0.6387,-0.6387,-0.6287,-0.5186,-0.413,-0.3022,-0.1966,-0.0908,0.0,0.0,0.0,0.0,0.0,0.0182,0.0403,0.0403,0.0538,0.0714,0.07,0.0688,0.0717,0.0778,0.0844,0.095,0.0983,0.1178,0.1296,0.1296,0.1246,0.1203,0.1203,0.1151,0.1109,0.1109,0.1109,0.1109,0.1109,0.1109,0.1086,0.0994,0.0969,0.0911,0.09,0.1456,0.2068,0.2653,0.3272,0.386,0.4463,0.4491,0.4491,0.4491,0.4491,0.4491,0.4491,0.4491,0.4491,0.4491,0.4491,0.4491,-0.3584,0.0,-0.3814,-0.3945,-0.4087,-0.4224,-0.4348,-0.4643,-0.4906,-0.4916,-0.5302,-0.5748,-0.6165,-0.7155,-0.8074,-0.847,-0.9699,-1.0516,-1.0354,-1.0489,-1.0641,-1.0727,-1.0641,-1.0641,0.0,-1.1344,-1.1806,-1.2078,-1.228,-1.2527,-1.2802,-1.2813,-1.2565,-1.2029,-1.1521,-1.0979,-1.044,-0.9899,-0.9657,-0.9657,-0.9657,-0.9361,-0.8825,-0.7733,-0.6986,-0.6437,-0.6437,-0.6387,-0.6387,-0.6387,-0.6387,-0.6387,-0.6387,-0.6387,-0.6287,-0.5186,-0.413,-0.3022,-0.1966,-0.0908,0.0,0.0,0.0,0.0,0.0,0.0182,0.0403,0.0403,0.0538,0.0714,0.07,0.0696,0.0731,0.0946,0.0976,0.1051,0.1264,0.1296,0.1296,0.1296,0.1246,0.1203,0.1203,0.1151,0.1109,0.1109,0.1109,0.1109,0.1109,0.1109,0.1086,0.0994,0.0988,0.0962,0.0902,0.1456,0.2068,0.2653,0.3272,0.386,0.4463,0.4491,0.4491,0.4491,0.4491,0.4491,0.4491,0.4491,0.4491,0.4491,0.4491,0.4491,-0.3699,0.0,-0.3847,-0.398,-0.4058,-0.4134,-0.4204,-0.4344,-0.4504,-0.4504,-0.4637,-0.4888,-0.5387,-0.6391,-0.7362,-0.7983,-0.9384,-1.0306,-1.005,-1.011,-1.0077,-0.999,-1.0077,0.0,0.0,0.0,0.0,-1.1293,-1.1375,-1.1499,-1.1722,-1.1736,-1.1487,-1.0949,-1.0395,-0.9899,-0.9361,-0.8825,-0.8531,-0.8531,-0.8375,-0.8077,-0.7733,-0.7191,-0.6739,-0.6387,-0.6387,-0.6387,-0.6387,-0.6387,-0.6387,-0.6387,-0.6387,-0.6387,-0.6287,-0.5186,-0.413,-0.3022,-0.1966,-0.0908,0.0,0.0,0.0,0.0,0.0,0.0276,0.0583,0.0583,0.0852,0.1164,0.1156,0.1143,0.1165,0.1174,0.1193,0.1213,0.1303,0.1296,0.1296,0.1296,0.1246,0.1203,0.1203,0.1151,0.1109,0.1109,0.1109,0.1109,0.1109,0.1109,0.1061,0.1022,0.1001,0.0972,0.0902,0.1447,0.2068,0.2653,0.3272,0.386,0.4463,0.4491,0.4491,0.4491,0.4491,0.4491,0.4491,0.4491,0.4491,0.4491,0.4491,0.4491,-0.3907,-0.3932,-0.3967,-0.4097,-0.4128,-0.4086,-0.4086,-0.4178,-0.4224,-0.4181,-0.417,-0.4303,-0.4825,-0.5798,-0.6769,-0.746,-0.8856,-0.9776,-0.9466,-0.9432,-0.9375,-0.9253,-0.9336,-0.9375,0.0,0.0,0.0,-1.05,-1.0356,-1.0362,-1.0587,-1.065,-1.0404,-0.9862,-0.9312,-0.8768,-0.823,-0.7686,-0.7437,-0.7437,-0.7235,-0.7083,-0.6886,-0.6739,-0.6539,-0.6387,-0.6387,-0.6387,-0.6387,-0.6387,-0.6387,-0.6387,-0.6387,-0.6387,-0.6287,-0.5186,-0.413,-0.3022,-0.1966,-0.0908,0.0,0.0,0.0,0.0,0.0,0.0324,0.0718,0.0718,0.1031,0.1391,0.1391,0.1421,0.1399,0.1327,0.1298,0.1311,0.132,0.1305,0.1296,0.1296,0.1255,0.1216,0.1205,0.1151,0.1109,0.1109,0.1109,0.1109,0.1109,0.1109,0.1065,0.1004,0.0985,0.0988,0.0917,0.1443,0.2066,0.2655,0.3272,0.386,0.4463,0.4491,0.4491,0.4491,0.4491,0.4491,0.4491,0.4491,0.4491,0.4491,0.4491,0.4491,-0.4202,-0.4241,-0.4257,-0.4388,-0.4289,-0.4124,-0.4118,-0.4118,-0.4048,-0.3922,-0.3889,-0.4014,-0.4482,0.0,-0.6222,-0.684,-0.8105,-0.8918,-0.8565,-0.8483,-0.8448,0.0,0.0,0.0,0.0,0.0,0.0,-0.9625,0.0,-0.9195,-0.9489,-0.9509,-0.9266,-0.8775,-0.8223,-0.7726,-0.7188,-0.6637,-0.6387,-0.6387,-0.6387,-0.6387,-0.6387,-0.6387,-0.6387,-0.6387,-0.6387,-0.6387,-0.6387,-0.6387,-0.6387,-0.6387,-0.6387,-0.6387,-0.6287,-0.5186,-0.413,-0.3022,-0.1966,-0.0908,0.0,0.0,0.0,0.0,0.0,0.0324,0.0718,0.0718,0.1031,0.1391,0.1391,0.1391,0.1383,0.1397,0.1369,0.1298,0.1309,0.1319,0.1296,0.1296,0.1231,0.12,0.1206,0.1149,0.1109,0.1109,0.1109,0.1109,0.1109,0.1109,0.1099,0.1039,0.1034,0.101,0.0952,0.1505,0.209,0.2693,0.3279,0.3897,0.4473,0.4501,0.4505,0.4511,0.4511,0.4511,0.4511,0.4511,0.4511,0.4511,0.4511,0.4511,-0.4643,-0.4727,-0.4769,-0.4905,-0.471,-0.4456,-0.4335,-0.4217,-0.4058,-0.3873,-0.3732,-0.3765,-0.4094,-0.4677,0.0,-0.6127,-0.7118,0.0,-0.7657,-0.7486,0.0,-0.7261,0.0,-0.7569,-0.7438,-0.7668,0.0,0.0,-0.7993,-0.8222,-0.8421,-0.8432,-0.823,-0.7928,-0.758,-0.7238,-0.6892,-0.6587,-0.6387,-0.6387,-0.6387,-0.6387,-0.6387,-0.6387,-0.6387,-0.6387,-0.6387,-0.6387,-0.6387,-0.6387,-0.6387,-0.6387,-0.6387,-0.6387,-0.6287,-0.5186,-0.413,-0.3022,-0.1966,-0.0908,0.0,0.0,0.0,0.0,0.0,0.0324,0.0718,0.0718,0.1031,0.1391,0.1391,0.1391,0.1383,0.1397,0.1369,0.1298,0.1309,0.1319,0.1296,0.1296,0.1252,0.1168,0.1138,0.1101,0.1109,0.1109,0.1109,0.1109,0.1109,0.1176,0.1307,0.1432,0.1534,0.1634,0.1767,0.2251,0.2729,0.3109,0.3624,0.4116,0.4633,0.4662,0.4684,0.4799,0.4802,0.4802,0.4802,0.4802,0.4802,0.4802,0.4802,0.4802,-0.4931,-0.4994,-0.4993,-0.5071,-0.4815,-0.4478,-0.4353,-0.4083,-0.383,-0.3665,-0.3507,0.0,-0.3843,-0.4216,0.0,0.0,0.0,0.0,-0.6815,-0.6741,-0.6674,0.0,-0.6863,0.0,-0.6816,-0.7088,-0.7149,0.0,-0.7043,-0.7195,-0.7279,-0.7288,-0.7235,-0.7083,-0.6936,-0.6786,-0.6639,-0.6487,-0.6387,-0.6387,-0.6387,-0.6387,-0.6387,-0.6387,-0.6387,-0.6387,0.0,-0.6387,-0.6387,-0.6387,-0.6387,-0.6387,-0.6387,-0.6387,-0.6287,-0.5186,-0.413,-0.3022,-0.1966,-0.0908,0.0,0.0,0.0,0.0,0.0143,0.0417,0.0718,0.0852,0.1121,0.1391,0.1391,0.1391,0.1386,0.1414,0.1387,0.1316,0.1287,0.1299,0.1353,0.1534,0.1547,0.1561,0.1607,0.1588,0.158,0.158,0.158,0.158,0.158,0.148,0.1546,0.1781,0.2054,0.2284,0.2577,0.2945,0.3263,0.3504,0.3953,0.4372,0.4694,0.4755,0.483,0.4887,0.4887,0.4887,0.4887,0.4887,0.4887,0.4887,0.4887,0.4887,-0.5049,-0.5123,-0.5117,-0.5097,-0.4779,-0.4431,-0.4232,-0.3894,-0.3547,-0.3408,0.0,-0.3265,-0.3624,-0.3862,-0.4225,-0.4913,0.0,-0.5792,-0.6016,-0.6136,-0.6226,-0.6284,-0.6433,-0.6526,-0.6526,-0.6768,-0.6827,-0.6577,-0.6436,-0.6333,-0.6381,-0.6387,-0.6387,-0.6387,-0.6387,-0.6387,-0.6387,-0.6387,-0.6387,-0.6387,-0.6387,-0.6387,-0.6387,-0.6387,-0.6387,-0.6387,-0.6387,-0.6387,-0.6387,-0.6387,-0.6387,-0.6387,-0.6337,-0.6337,-0.6187,-0.5085,-0.4029,-0.2922,-0.1916,-0.0858,0.0,0.0,0.0,0.0095,0.0334,0.0556,0.0807,0.1031,0.1256,0.1391,0.1391,0.1391,0.1391,0.1391,0.1412,0.1382,0.1311,0.1362,0.1489,0.189,0.208,0.2195,0.2439,0.2413,0.2364,0.2322,0.2321,0.2321,0.2321,0.1983,0.1882,0.2214,0.2618,0.2988,0.3331,0.3583,0.3786,0.3902,0.4324,0.4608,0.4755,0.4877,0.4924,0.4979,0.4979,0.4979,0.4979,0.4979,0.4979,0.4979,0.4979,0.4979,-0.5272,-0.5338,-0.5295,-0.5138,-0.4964,-0.4697,-0.4295,-0.3893,0.0,0.0,-0.3079,-0.2994,-0.3115,-0.3351,-0.3666,-0.4058,0.0,0.0,0.0,0.0,-0.561,0.0,0.0,0.0,0.0,0.0,0.0,0.0,0.0,-0.6365,-0.6384,-0.6387,-0.6387,-0.6387,-0.6387,-0.6387,-0.6387,-0.6387,-0.6387,-0.6387,-0.6387,-0.6387,-0.6387,-0.6387,-0.6387,-0.6387,-0.6387,0.0,-0.6387,-0.6387,-0.6387,-0.6387,-0.6139,-0.5939,-0.5586,-0.4533,-0.3478,-0.2421,-0.1565,-0.0707,0.0,0.0,0.0148,0.0334,0.0381,0.0695,0.1031,0.1076,0.1256,0.1391,0.1391,0.1391,0.1391,0.1391,0.1412,0.1382,0.1311,0.1548,0.193,0.2315,0.268,0.2982,0.3247,0.3225,0.3168,0.3029,0.3017,0.3017,0.3017,0.2718,0.2653,0.2989,0.3357,0.3749,0.4091,0.429,0.4431,0.447,0.4706,0.4898,0.5022,0.5049,0.5155,0.5313,0.5317,0.5317,0.5317,0.5317,0.5317,0.5317,0.5317,0.5317,-0.5574,-0.566,-0.5588,-0.5332,-0.5014,-0.4684,-0.4301,0.0,0.0,0.0,-0.294,-0.2832,-0.2933,0.0,0.0,0.0,0.0,0.0,0.0,0.0,0.0,0.0,0.0,0.0,0.0,0.0,0.0,0.0,0.0,-0.6387,-0.6387,-0.6387,-0.6387,-0.6387,-0.6387,-0.6387,-0.6387,-0.6387,-0.6387,-0.6387,-0.6387,-0.6387,-0.6387,-0.6387,-0.6387,-0.6387,-0.6387,-0.6387,-0.6387,-0.6387,-0.6387,-0.6337,-0.5937,-0.5536,-0.5033,-0.3979,-0.2923,-0.1866,-0.1212,-0.0455,0.0202,0.0202,0.0297,0.0435,0.067,0.0934,0.1137,0.1215,0.1345,0.1391,0.1391,0.1391,0.1436,0.157,0.1751,0.1917,0.2025,0.2271,0.2665,0.3096,0.3455,0.3834,0.4163,0.4092,0.3963,0.3876,0.3821,0.3785,0.3785,0.372,0.3723,0.3758,0.4092,0.4459,0.4858,0.496,0.4966,0.4855,0.5048,0.5155,0.5103,0.5209,0.5284,0.5392,0.5395,0.5395,0.5395,0.5395,0.5395,0.5395,0.5395,0.5395,-0.5855,-0.5961,-0.5905,-0.5516,-0.5064,-0.464,-0.4236,-0.3723,0.0,0.0,-0.2811,-0.2704,-0.2827,0.0,-0.3134,0.0,0.0,0.0,0.0,0.0,0.0,0.0,0.0,0.0,0.0,0.0,0.0,0.0,0.0,0.0,-0.6387,-0.6387,-0.6387,-0.6387,-0.6387,-0.6387,-0.6387,-0.6387,-0.6387,-0.6387,-0.6387,-0.6387,-0.6387,-0.6387,-0.6387,-0.6387,-0.6387,-0.6387,-0.6387,-0.6387,-0.6387,-0.6337,-0.5737,-0.5133,-0.4481,-0.3425,-0.2368,-0.1362,-0.0808,-0.0202,0.0404,0.0556,0.0549,0.0636,0.1012,0.1132,0.1199,0.1361,0.1395,0.1391,0.1391,0.1391,0.1525,0.1929,0.2301,0.2606,0.2901,0.3201,0.3522,0.3956,0.4356,0.4707,0.5064,0.4942,0.4778,0.4752,0.4639,0.4522,0.4522,0.4658,0.4725,0.4556,0.4725,0.4997,0.5362,0.5395,0.5344,0.5186,0.5327,0.5341,0.5186,0.533,0.5395,0.5395,0.5395,0.5395,0.5395,0.5395,0.5395,0.5395,0.5395,0.5395,-0.6049,-0.6218,-0.6189,-0.5562,-0.5141,-0.4739,-0.414,0.0,0.0,-0.3034,-0.2743,-0.2555,-0.2701,-0.287,-0.308,-0.3376,0.0,-0.4102,0.0,0.0,0.0,0.0,0.0,0.0,0.0,0.0,0.0,0.0,0.0,0.0,-0.6387,-0.6387,-0.6387,-0.6387,-0.6387,-0.6387,-0.6387,-0.6387,-0.6387,-0.6387,-0.6387,-0.6387,-0.6387,-0.6387,-0.6387,-0.6387,-0.6387,-0.6387,0.0,-0.6387,-0.6387,-0.6337,-0.5539,-0.4782,-0.3925,-0.2873,-0.1817,-0.0808,-0.0253,0.0152,0.0505,0.096,0.1147,0.1129,0.1176,0.1335,0.148,0.1477,0.1457,0.1391,0.1391,0.1391,0.1614,0.2553,0.2992,0.3317,0.3775,0.4087,0.4382,0.481,0.5196,0.5579,0.5867,0.5782,0.5629,0.5502,0.5389,0.5292,0.5292,0.5329,0.5329,0.5292,0.5156,0.5156,0.5395,0.5395,0.5388,0.5375,0.5388,0.5388,0.5375,0.5388,0.5395,0.5395,0.5395,0.5395,0.5395,0.5395,0.5395,0.5395,0.5395,0.5395,-0.6373,-0.6559,-0.6509,-0.5755,-0.5176,-0.4646,-0.4112,0.0,-0.3139,-0.2964,-0.2713,-0.2517,-0.2566,-0.2775,-0.3017,-0.3254,-0.3444,-0.3781,-0.4262,0.0,0.0,0.0,0.0,0.0,0.0,0.0,0.0,0.0,0.0,0.0,-0.6387,-0.6387,-0.6387,-0.6387,-0.6387,-0.6387,-0.6387,-0.6387,-0.6387,-0.6387,-0.6387,-0.6387,-0.6387,-0.6387,-0.6387,-0.6387,-0.6387,0.0,0.0,-0.6387,-0.6387,-0.6287,-0.5336,-0.4381,-0.3373,-0.2319,-0.116,-0.0051,0.0152,0.0505,0.0909,0.1111,0.1307,0.1446,0.1429,0.1446,0.1504,0.1486,0.1459,0.1436,0.1615,0.2062,0.2689,0.3539,0.3945,0.4281,0.4738,0.4894,0.5007,0.5321,0.5595,0.5848,0.6141,0.604,0.5888,0.5739,0.5593,0.5498,0.5405,0.5395,0.5395,0.5395,0.5326,0.5326,0.5395,0.5395,0.5395,0.5395,0.5395,0.5395,0.5395,0.5395,0.5395,0.5395,0.5395,0.5395,0.5395,0.5395,0.5395,0.5395,0.5395,0.5395,-0.6467,-0.6666,-0.6678,-0.5906,-0.517,-0.4518,0.0,-0.3533,-0.3058,-0.2926,-0.2681,-0.2501,-0.2501,-0.2723,-0.2967,-0.3156,-0.3322,-0.3569,-0.4019,0.0,0.0,0.0,0.0,0.0,0.0,0.0,0.0,0.0,0.0,0.0,-0.6387,-0.6387,-0.6387,-0.6387,-0.6387,-0.6387,-0.6387,-0.6387,-0.6387,-0.6387,-0.6387,-0.6387,-0.6387,-0.6387,-0.6387,-0.6387,-0.6387,-0.6387,0.0,-0.6337,-0.6237,-0.6034,-0.4985,-0.3929,-0.2822,-0.1765,-0.0606,0.0404,0.0606,0.0859,0.1212,0.1313,0.1465,0.1611,0.1581,0.155,0.1521,0.15,0.1557,0.1705,0.2018,0.2823,0.3717,0.452,0.4894,0.5202,0.5702,0.5703,0.5634,0.5792,0.5906,0.606,0.6261,0.6132,0.5956,0.5884,0.5708,0.5552,0.5477,0.5423,0.5395,0.5395,0.5395,0.5395,0.5395,0.5395,0.5395,0.5395,0.5395,0.5395,0.5395,0.5395,0.5395,0.5395,0.5395,0.5395,0.5395,0.5395,0.5395,0.5395,0.5395,0.5419,-0.6237,-0.6506,-0.6637,-0.5893,-0.5084,-0.4412,0.0,-0.3533,-0.3058,-0.2926,-0.2681,-0.2501,-0.2501,-0.2723,-0.2967,-0.3156,-0.3322,-0.3569,-0.4019,0.0,0.0,0.0,0.0,0.0,0.0,0.0,0.0,0.0,0.0,0.0,-0.6387,-0.6387,-0.6387,-0.6387,-0.6387,-0.6387,-0.6387,-0.6387,-0.6387,-0.6387,-0.6387,-0.6387,-0.6387,-0.6387,-0.6387,-0.6387,0.0,0.0,0.0,-0.6089,-0.5839,-0.5484,-0.4435,-0.3379,-0.227,-0.1212,-0.0303,0.0455,0.101,0.1212,0.1263,0.1516,0.1617,0.1611,0.1581,0.155,0.1478,0.1478,0.1853,0.2288,0.2778,0.3583,0.452,0.5453,0.5841,0.6117,0.6577,0.6468,0.63,0.63,0.63,0.63,0.63,0.6132,0.5993,0.599,0.5779,0.5589,0.5589,0.5487,0.5395,0.5395,0.5395,0.5395,0.5395,0.5395,0.5395,0.5395,0.5395,0.5395,0.5395,0.5395,0.5395,0.5395,0.5395,0.5395,0.5395,0.5395,0.5395,0.5395,0.5395,0.5477,-0.6376,-0.6674,-0.6687,-0.5946,-0.521,-0.4524,-0.4104,-0.3455,-0.2973,-0.2959,-0.2717,-0.2528,-0.2612,-0.278,-0.2967,-0.3156,-0.3226,-0.3417,0.0,0.0,0.0,0.0,0.0,0.0,0.0,0.0,0.0,0.0,0.0,0.0,-0.6387,-0.6387,-0.6387,-0.6387,-0.6387,-0.6387,-0.6387,-0.6387,-0.6387,-0.6387,-0.6387,-0.6387,-0.6387,-0.6387,-0.6387,0.0,0.0,0.0,-0.6387,-0.5937,-0.5436,-0.4935,-0.3879,-0.267,-0.1513,-0.0808,0.0101,0.096,0.1162,0.1314,0.1465,0.1566,0.1603,0.1584,0.1624,0.155,0.1565,0.1891,0.2402,0.3048,0.3673,0.4431,0.5235,0.5985,0.6187,0.6287,0.6615,0.6508,0.63,0.63,0.63,0.63,0.63,0.6259,0.6152,0.601,0.5861,0.5698,0.5603,0.5491,0.5395,0.5395,0.5395,0.5395,0.5395,0.5395,0.5395,0.5395,0.5395,0.5395,0.5395,0.5395,0.5395,0.5395,0.5395,0.5395,0.5395,0.5395,0.5395,0.5395,0.5395,0.5477,-0.6117,-0.6452,-0.6518,-0.5852,-0.5161,-0.4527,-0.4124,-0.3472,-0.2955,-0.2994,-0.2783,-0.2593,-0.269,-0.2805,-0.2967,-0.3156,-0.3193,0.0,0.0,0.0,0.0,0.0,0.0,0.0,0.0,0.0,0.0,0.0,0.0,0.0,-0.6387,-0.6387,-0.6387,-0.6387,-0.6387,-0.6387,-0.6387,-0.6387,-0.6387,-0.6387,-0.6387,-0.6387,-0.6387,-0.6387,-0.6387,0.0,0.0,-0.6387,0.0,-0.5687,-0.5083,-0.4379,-0.3224,-0.1966,-0.0807,-0.0202,0.0556,0.1212,0.1314,0.1465,0.1617,0.1617,0.1639,0.1747,0.1782,0.181,0.1873,0.231,0.3002,0.3807,0.461,0.5322,0.5935,0.6458,0.6537,0.6481,0.6586,0.6467,0.63,0.63,0.63,0.63,0.63,0.63,0.6269,0.6132,0.5986,0.5833,0.5688,0.5573,0.5457,0.5402,0.5395,0.5395,0.5395,0.5395,0.5395,0.5395,0.5395,0.5395,0.5395,0.5395,0.5395,0.5395,0.5395,0.5395,0.5395,0.5453,0.5481,0.5484,0.5535,0.561,0.0,-0.5925,-0.6143,-0.5624,-0.4981,-0.4427,-0.4163,-0.3532,0.0,-0.3022,-0.2855,-0.2709,-0.2717,-0.2819,-0.298,-0.3194,-0.3212,0.0,0.0,0.0,0.0,0.0,0.0,0.0,0.0,0.0,0.0,0.0,0.0,0.0,-0.6387,-0.6387,-0.6387,-0.6387,-0.6387,-0.6387,-0.6387,-0.6387,-0.6387,-0.6387,-0.6387,-0.6387,-0.6387,-0.6387,-0.6387,0.0,-0.6387,-0.6387,-0.6337,-0.5489,-0.4682,-0.3773,-0.2469,-0.1261,-0.0202,0.0556,0.101,0.1263,0.1516,0.1617,0.1616,0.1612,0.172,0.1947,0.2185,0.2263,0.2392,0.2884,0.3673,0.461,0.5497,0.6074,0.6486,0.6834,0.681,0.6658,0.6545,0.6402,0.63,0.63,0.63,0.63,0.63,0.63,0.63,0.63,0.6129,0.5942,0.5837,0.5684,0.5535,0.5426,0.5402,0.5395,0.5395,0.5395,0.5395,0.5395,0.5395,0.5395,0.5395,0.5395,0.5395,0.5395,0.5395,0.5399,0.5412,0.5556,0.5596,0.5606,0.5739,0.5884,-0.5274,0.0,-0.596,-0.5475,-0.4952,-0.4465,0.0,-0.3455,-0.304,-0.3122,0.0,-0.2734,-0.283,-0.2925,-0.3059,-0.3319,0.0,0.0,0.0,0.0,0.0,0.0,0.0,0.0,0.0,0.0,0.0,0.0,0.0,-0.6387,-0.6387,-0.6387,-0.6387,-0.6387,-0.6387,-0.6387,-0.6387,-0.6387,-0.6387,-0.6387,-0.6387,-0.6387,-0.6387,-0.6387,-0.6387,-0.6387,-0.6387,-0.6387,-0.6337,-0.5286,-0.4178,-0.297,-0.1814,-0.0504,0.0859,0.1061,0.1263,0.1516,0.1566,0.1617,0.1609,0.1562,0.1778,0.2227,0.2603,0.2845,0.3112,0.3767,0.4523,0.5324,0.6033,0.6476,0.6757,0.6877,0.681,0.6658,0.6545,0.6402,0.63,0.63,0.63,0.63,0.63,0.63,0.63,0.63,0.6129,0.5979,0.5942,0.5749,0.5576,0.5542,0.5467,0.5395,0.5395,0.5395,0.5395,0.5395,0.5395,0.5395,0.5395,0.5395,0.5395,0.5395,0.5395,0.5453,0.5569,0.5572,0.5647,0.5752,0.5786,0.5884,-0.5117,-0.5435,-0.5679,-0.5276,-0.485,-0.443,-0.4006,-0.3529,-0.3212,0.0,0.0,-0.2889,-0.3016,-0.3068,0.0,0.0,0.0,0.0,0.0,0.0,0.0,0.0,0.0,0.0,0.0,0.0,0.0,0.0,0.0,-0.6387,-0.6387,-0.6387,-0.6387,-0.6387,-0.6387,-0.6387,-0.6387,-0.6387,-0.6387,-0.6387,-0.6387,-0.6387,-0.6387,-0.6387,-0.6387,-0.6387,-0.6287,-0.6139,-0.5937,-0.4732,-0.3527,-0.2318,-0.1109,0.0101,0.1212,0.1314,0.1465,0.1617,0.1617,0.1617,0.1607,0.1546,0.1907,0.2508,0.3039,0.3582,0.4162,0.4788,0.5366,0.5988,0.6564,0.683,0.6913,0.6832,0.6759,0.6641,0.6463,0.6354,0.63,0.63,0.63,0.63,0.63,0.63,0.63,0.63,0.619,0.6108,0.6,0.5891,0.5739,0.5603,0.5549,0.547,0.5399,0.5395,0.5395,0.5395,0.5395,0.5395,0.5395,0.5395,0.5395,0.5395,0.5395,0.547,0.5589,0.5654,0.5762,0.5908,0.5979,0.6057,-0.5044,-0.5199,-0.5325,-0.5035,-0.472,-0.4385,-0.4032,0.0,0.0,0.0,0.0,0.0,0.0,-0.3282,0.0,0.0,0.0,0.0,0.0,0.0,0.0,0.0,0.0,0.0,0.0,0.0,0.0,0.0,0.0,-0.6387,-0.6387,-0.6387,-0.6387,-0.6387,-0.6387,-0.6387,-0.6387,-0.6387,-0.6387,-0.6387,-0.6387,-0.6387,-0.6387,-0.6387,-0.6387,-0.6387,0.0,0.0,-0.5334,-0.4029,-0.2822,-0.1613,-0.0404,0.0556,0.1313,0.1516,0.1617,0.1617,0.1617,0.1617,0.1607,0.1546,0.2049,0.2789,0.3489,0.4383,0.523,0.5764,0.6166,0.6564,0.7007,0.7095,0.7028,0.68,0.6719,0.6624,0.6392,0.6317,0.63,0.63,0.63,0.63,0.63,0.63,0.63,0.63,0.63,0.6252,0.6081,0.6006,0.5899,0.5684,0.5637,0.5569,0.5474,0.5463,0.5453,0.5433,0.5405,0.5395,0.5395,0.5395,0.5395,0.5395,0.5395,0.5481,0.5623,0.5742,0.5891,0.6067,0.6238,0.63,-0.5112,-0.5053,-0.4891,-0.4841,-0.461,-0.4371,-0.4206,-0.3951,0.0,0.0,0.0,0.0,0.0,0.0,0.0,0.0,0.0,0.0,0.0,0.0,0.0,0.0,0.0,0.0,0.0,0.0,0.0,0.0,0.0,-0.6387,-0.6387,-0.6387,-0.6387,-0.6387,-0.6387,-0.6387,-0.6387,-0.6387,-0.6387,-0.6387,-0.6387,-0.6387,-0.6387,-0.6387,-0.6387,-0.6387,0.0,-0.5233,-0.4479,-0.3373,-0.2015,-0.0605,0.0101,0.0808,0.1566,0.1566,0.1617,0.1617,0.1617,0.1617,0.1607,0.1546,0.2145,0.3072,0.3938,0.4825,0.5764,0.6653,0.6833,0.6792,0.7054,0.7095,0.7055,0.6889,0.6797,0.6654,0.6518,0.6385,0.63,0.63,0.63,0.63,0.63,0.63,0.63,0.63,0.63,0.6289,0.6269,0.6112,0.5976,0.5929,0.5847,0.5759,0.5735,0.5735,0.5684,0.5562,0.5467,0.5395,0.5395,0.5395,0.5395,0.5395,0.5395,0.5528,0.5769,0.5789,0.5949,0.6265,0.6289,0.63,-0.505,-0.5031,-0.4988,-0.506,-0.4813,-0.452,-0.4386,-0.426,0.0,0.0,0.0,0.0,0.0,0.0,0.0,0.0,0.0,0.0,0.0,0.0,0.0,0.0,0.0,0.0,0.0,0.0,0.0,0.0,0.0,0.0,-0.6347,-0.6344,-0.6317,-0.6249,-0.6312,-0.6344,-0.6344,-0.6404,-0.6387,-0.6387,-0.6387,-0.6387,-0.6387,-0.6387,-0.6387,-0.6387,0.0,-0.4832,-0.3874,-0.2669,-0.131,0.0101,0.0606,0.1162,0.1617,0.1617,0.1617,0.1617,0.1617,0.1718,0.1808,0.1885,0.2573,0.3542,0.4394,0.5275,0.6077,0.6874,0.7054,0.6966,0.7098,0.7095,0.7061,0.692,0.6832,0.6759,0.6562,0.646,0.6392,0.6313,0.63,0.63,0.63,0.63,0.63,0.63,0.63,0.63,0.63,0.6238,0.6122,0.6,0.5929,0.5891,0.581,0.58,0.5742,0.5599,0.5481,0.5395,0.5395,0.5395,0.5395,0.5395,0.5477,0.5589,0.58,0.5884,0.604,0.63,0.63,0.63,-0.5156,-0.5184,-0.5227,-0.551,-0.5244,-0.489,-0.4741,-0.4738,-0.4762,0.0,0.0,0.0,0.0,0.0,0.0,0.0,0.0,0.0,0.0,0.0,0.0,0.0,0.0,0.0,0.0,0.0,0.0,0.0,0.0,0.0,-0.6322,-0.6317,-0.6259,-0.6089,-0.6254,-0.6317,-0.6317,-0.638,-0.6387,-0.6387,-0.6387,-0.6387,-0.6387,-0.6387,-0.6387,-0.6337,-0.5489,-0.4431,-0.3218,-0.1964,-0.0605,0.0707,0.1111,0.1415,0.1617,0.1617,0.1617,0.1617,0.1617,0.1819,0.2108,0.2318,0.3048,0.4058,0.4892,0.5633,0.6302,0.6918,0.7095,0.7095,0.7095,0.7095,0.7068,0.696,0.691,0.6865,0.663,0.6552,0.6532,0.6426,0.6375,0.6351,0.6351,0.632,0.63,0.63,0.63,0.63,0.63,0.63,0.6252,0.6098,0.6084,0.6037,0.5918,0.5874,0.5806,0.5698,0.5583,0.5498,0.5498,0.5467,0.5463,0.5498,0.5549,0.5674,0.5837,0.5956,0.6098,0.63,0.63,0.63,-0.5715,-0.5567,-0.5465,-0.6219,-0.6012,-0.5583,-0.5374,-0.5495,0.0,-0.5374,0.0,0.0,0.0,0.0,0.0,0.0,0.0,0.0,0.0,0.0,0.0,0.0,0.0,0.0,0.0,0.0,0.0,0.0,0.0,0.0,-0.6322,-0.6317,-0.6259,-0.6089,-0.6254,-0.6317,-0.6317,-0.638,-0.6387,-0.6387,-0.6387,-0.6387,-0.6387,-0.6387,-0.6387,-0.6337,-0.5286,-0.3927,-0.2416,-0.131,0.0101,0.1516,0.1566,0.1566,0.1617,0.1617,0.1617,0.1617,0.1617,0.1919,0.2456,0.2798,0.3616,0.4575,0.5388,0.5985,0.6476,0.6962,0.7095,0.7095,0.7095,0.7095,0.7095,0.7085,0.698,0.6879,0.6859,0.6783,0.6681,0.6671,0.6556,0.6497,0.6497,0.6385,0.63,0.63,0.63,0.63,0.63,0.63,0.6296,0.6282,0.6282,0.6279,0.6269,0.6095,0.5973,0.5959,0.5854,0.5769,0.5769,0.5644,0.5637,0.5769,0.565,0.5743,0.5986,0.5999,0.6105,0.63,0.63,0.63,-0.5512,-0.5658,-0.582,-0.6211,-0.6499,0.0,0.0,-0.6351,-0.6402,-0.62,-0.5705,0.0,0.0,0.0,0.0,0.0,0.0,0.0,0.0,0.0,0.0,0.0,0.0,0.0,0.0,0.0,0.0,0.0,0.0,0.0,-0.6165,-0.6154,-0.6067,-0.5874,-0.6053,-0.6154,-0.6154,-0.6342,-0.6387,-0.6387,-0.6387,-0.6337,-0.6139,-0.6139,-0.5989,-0.5589,-0.4533,-0.3222,-0.1812,-0.0756,0.0454,0.1617,0.1617,0.1617,0.1617,0.1617,0.1617,0.1617,0.1617,0.207,0.2758,0.3278,0.4138,0.5094,0.5882,0.6387,0.67,0.7007,0.7095,0.7095,0.7095,0.7095,0.7095,0.7095,0.7055,0.6994,0.6906,0.6839,0.6814,0.6719,0.6654,0.6583,0.6528,0.6467,0.6402,0.6313,0.63,0.63,0.63,0.63,0.63,0.63,0.63,0.63,0.63,0.6245,0.6173,0.6173,0.5939,0.58,0.58,0.5749,0.5745,0.58,0.584,0.5895,0.5999,0.6126,0.6224,0.63,0.63,0.63,-0.5532,-0.5771,-0.6041,-0.638,0.0,0.0,-0.716,-0.7019,-0.6904,-0.6708,-0.618,0.0,0.0,0.0,0.0,0.0,0.0,0.0,0.0,0.0,0.0,0.0,0.0,0.0,0.0,0.0,0.0,0.0,0.0,0.0,0.0,-0.6048,-0.5937,-0.5694,-0.5926,-0.6001,-0.5992,-0.6135,-0.62,-0.6137,-0.6087,-0.5989,-0.5992,-0.5739,-0.5338,-0.4784,-0.3676,-0.2467,-0.1158,-0.0252,0.0707,0.1617,0.1617,0.1617,0.1617,0.1617,0.1617,0.1617,0.1617,0.2171,0.3058,0.371,0.4612,0.5615,0.6379,0.6745,0.6925,0.7051,0.7095,0.7095,0.7095,0.7095,0.7095,0.7095,0.7095,0.7068,0.6974,0.6953,0.692,0.6861,0.6803,0.6739,0.6634,0.6576,0.6552,0.6453,0.6399,0.6368,0.6368,0.6327,0.63,0.63,0.63,0.63,0.63,0.63,0.63,0.63,0.6102,0.5945,0.5945,0.5901,0.5898,0.5945,0.6003,0.604,0.6095,0.6231,0.63,0.63,0.63,0.6334,-0.5914,-0.5955,-0.6073,0.0,0.0,0.0,-0.7757,-0.7417,-0.7057,-0.685,-0.6378,-0.5829,-0.5292,0.0,0.0,0.0,0.0,0.0,0.0,0.0,0.0,0.0,0.0,0.0,0.0,0.0,0.0,0.0,0.0,0.0,0.0,-0.5969,-0.585,-0.5694,-0.5844,-0.5825,-0.5711,-0.5818,-0.578,-0.5584,-0.5338,-0.5491,-0.5942,-0.5135,-0.4479,-0.3924,-0.2868,-0.1611,-0.0353,0.0202,0.0859,0.1617,0.1617,0.1617,0.1617,0.1617,0.1617,0.1617,0.1617,0.2323,0.336,0.414,0.5131,0.6131,0.6873,0.7095,0.7095,0.7095,0.7095,0.7095,0.7095,0.7095,0.7095,0.7095,0.7095,0.7095,0.7095,0.7095,0.7095,0.7095,0.6984,0.6886,0.6886,0.6803,0.6702,0.6702,0.6569,0.6511,0.6511,0.6385,0.63,0.63,0.63,0.63,0.63,0.63,0.63,0.63,0.63,0.63,0.63,0.6112,0.6105,0.6296,0.6108,0.6108,0.63,0.63,0.63,0.63,0.6303,0.6409,-0.5568,-0.5849,0.0,-0.6333,0.0,0.0,0.0,-0.7322,0.0,0.0,-0.6357,-0.6041,-0.549,0.0,0.0,0.0,0.0,0.0,0.0,0.0,0.0,0.0,0.0,0.0,0.0,0.0,0.0,0.0,0.0,0.0,0.0,-0.5923,-0.585,-0.5694,-0.5711,-0.565,-0.564,-0.5638,-0.5601,-0.5532,-0.491,-0.474,-0.4839,-0.4232,-0.3476,-0.2519,-0.1662,-0.0706,0.0202,0.096,0.1364,0.1617,0.1617,0.1617,0.1617,0.1617,0.1718,0.192,0.212,0.2875,0.3907,0.4716,0.5554,0.6362,0.6917,0.7095,0.7095,0.7095,0.7095,0.7095,0.7095,0.7095,0.7095,0.7095,0.7095,0.7095,0.7095,0.7095,0.7095,0.7095,0.7061,0.7001,0.6903,0.6849,0.6824,0.6715,0.6607,0.6521,0.6381,0.6327,0.63,0.63,0.63,0.63,0.63,0.63,0.63,0.63,0.63,0.63,0.63,0.6255,0.6252,0.6296,0.6255,0.6252,0.63,0.63,0.63,0.6303,0.6402,0.648,-0.539,-0.5666,0.0,0.0,-0.6618,-0.7016,-0.6859,0.0,0.0,0.0,0.0,-0.6086,0.0,0.0,0.0,0.0,0.0,0.0,0.0,0.0,0.0,0.0,0.0,0.0,0.0,0.0,0.0,0.0,0.0,0.0,0.0,-0.586,-0.5758,-0.5599,-0.553,-0.5451,-0.5267,-0.5157,-0.5019,-0.4852,-0.4067,-0.3554,-0.3277,-0.2973,-0.2217,-0.1159,-0.0252,0.0404,0.0909,0.1415,0.1617,0.1617,0.1617,0.1617,0.1617,0.1617,0.1818,0.2219,0.255,0.3339,0.4356,0.5183,0.5911,0.6574,0.6987,0.7095,0.7095,0.7095,0.7095,0.7095,0.7095,0.7095,0.7095,0.7095,0.7095,0.7095,0.7095,0.7095,0.7095,0.7095,0.7095,0.7068,0.6984,0.697,0.694,0.6888,0.6827,0.6661,0.6344,0.63,0.63,0.63,0.63,0.63,0.63,0.63,0.63,0.63,0.63,0.63,0.63,0.63,0.63,0.63,0.63,0.6337,0.6419,0.6395,0.6433,0.6491,0.6539,0.6597,-0.5331,0.0,0.0,0.0,0.0,0.0,0.0,0.0,0.0,0.0,0.0,0.0,0.0,0.0,0.0,0.0,0.0,0.0,0.0,0.0,0.0,0.0,0.0,0.0,0.0,0.0,0.0,0.0,0.0,0.0,0.0,-0.5745,-0.5597,-0.5416,-0.5371,-0.5153,-0.4793,-0.4478,-0.4141,-0.3801,-0.2979,-0.222,-0.1455,-0.146,-0.0907,0.0151,0.1161,0.1617,0.1617,0.1617,0.1617,0.1617,0.1617,0.1617,0.1617,0.1617,0.1967,0.251,0.2907,0.3764,0.4802,0.5603,0.6222,0.67,0.7009,0.7095,0.7095,0.7095,0.7095,0.7095,0.7095,0.7095,0.7095,0.7095,0.7095,0.7095,0.7095,0.7095,0.7095,0.7095,0.7095,0.7095,0.7095,0.7095,0.7095,0.7095,0.7095,0.6926,0.6375,0.63,0.632,0.6375,0.6381,0.6381,0.6381,0.633,0.63,0.63,0.63,0.63,0.63,0.63,0.63,0.63,0.63,0.6399,0.66,0.6562,0.6617,0.6785,0.6756,0.6797,-0.5361,-0.5681,0.0,0.0,0.0,0.0,0.0,0.0,0.0,0.0,0.0,0.0,0.0,0.0,0.0,0.0,0.0,0.0,0.0,0.0,0.0,0.0,0.0,0.0,0.0,0.0,0.0,0.0,0.0,0.0,-0.5723,-0.5565,-0.546,-0.5416,-0.506,-0.4806,-0.4737,-0.4127,-0.3622,-0.3184,-0.2283,-0.1344,-0.0434,-0.0597,-0.005,0.0959,0.1414,0.1617,0.1617,0.1617,0.1617,0.1617,0.1617,0.1617,0.1617,0.1617,0.205,0.2711,0.3385,0.4315,0.5291,0.6135,0.6639,0.6934,0.7053,0.7095,0.7095,0.7095,0.7095,0.7095,0.7095,0.7095,0.7095,0.7095,0.7095,0.7095,0.7095,0.7095,0.7095,0.7095,0.7095,0.7095,0.7095,0.7095,0.7095,0.7095,0.7095,0.6926,0.6375,0.63,0.6477,0.6902,0.6906,0.6906,0.6906,0.6525,0.63,0.63,0.63,0.63,0.63,0.63,0.63,0.63,0.63,0.6399,0.66,0.6695,0.6753,0.6732,0.6834,0.6856,0.0,0.0,0.0,0.0,0.0,0.0,0.0,0.0,0.0,0.0,0.0,0.0,0.0,0.0,0.0,0.0,0.0,0.0,0.0,0.0,0.0,0.0,0.0,0.0,0.0,0.0,0.0,0.0,0.0,-0.5644,-0.5552,-0.5463,-0.5282,-0.5062,-0.4703,-0.4391,-0.417,-0.3489,-0.2838,-0.2265,-0.1448,-0.0519,0.0477,0.0487,0.0836,0.1327,0.1475,0.1581,0.1595,0.1595,0.1604,0.1615,0.16,0.1595,0.1594,0.1579,0.21,0.2945,0.3774,0.4727,0.5745,0.6581,0.6947,0.7068,0.7078,0.7095,0.7095,0.7095,0.7095,0.7095,0.7095,0.7095,0.7095,0.7095,0.7095,0.7095,0.7095,0.7095,0.7095,0.7095,0.7095,0.7095,0.7095,0.7095,0.7095,0.7095,0.7095,0.6926,0.6375,0.6508,0.68,0.7061,0.7095,0.7095,0.7095,0.6858,0.6681,0.6681,0.6681,0.6681,0.6681,0.6681,0.6549,0.6306,0.6439,0.6522,0.6668,0.6725,0.6778,0.6912,0.695,0.6987,0.0,0.0,0.0,0.0,0.0,0.0,0.0,0.0,0.0,0.0,0.0,0.0,0.0,0.0,0.0,0.0,0.0,0.0,0.0,0.0,0.0,0.0,0.0,0.0,0.0,0.0,0.0,0.0,0.0,-0.5597,-0.5416,-0.5327,-0.5104,-0.4705,-0.4344,-0.3942,-0.3497,-0.2688,-0.1944,-0.1243,-0.046,0.0325,0.118,0.1369,0.1469,0.1478,0.1478,0.154,0.1564,0.1618,0.1583,0.1599,0.1579,0.1617,0.1659,0.1637,0.2289,0.3216,0.4144,0.5119,0.6082,0.6824,0.7095,0.7095,0.7095,0.7095,0.7095,0.7095,0.7095,0.7095,0.7095,0.7095,0.7095,0.7095,0.7095,0.7095,0.7095,0.7095,0.7095,0.7095,0.7095,0.7095,0.7095,0.7095,0.7095,0.7095,0.7095,0.692,0.6474,0.6837,0.7095,0.7095,0.7095,0.7095,0.7095,0.7095,0.7095,0.7095,0.7095,0.7095,0.7095,0.7095,0.6912,0.6463,0.6654,0.6776,0.6776,0.6776,0.6902,0.7095,0.7095,0.7095,0.0,0.0,0.0,0.0,0.0,0.0,0.0,0.0,0.0,0.0,0.0,0.0,0.0,0.0,0.0,0.0,0.0,0.0,0.0,0.0,0.0,0.0,0.0,0.0,0.0,0.0,0.0,0.0,-0.5552,-0.5416,-0.5416,-0.5018,-0.475,-0.4705,-0.4034,-0.3451,-0.3002,-0.2017,-0.1078,-0.018,0.072,0.1218,0.1357,0.1402,0.143,0.1478,0.1478,0.1528,0.1534,0.1561,0.1558,0.154,0.1563,0.1701,0.1871,0.2188,0.2821,0.3675,0.4708,0.5501,0.6192,0.6881,0.7095,0.7095,0.7095,0.7095,0.7095,0.7095,0.7095,0.7095,0.7095,0.7095,0.7095,0.7095,0.7095,0.7095,0.7095,0.7095,0.7095,0.7095,0.7095,0.7095,0.7095,0.7095,0.7095,0.7095,0.7095,0.7068,0.6991,0.7048,0.7095,0.7095,0.7095,0.7095,0.7095,0.7095,0.7095,0.7095,0.7095,0.7095,0.7095,0.7095,0.7058,0.698,0.7018,0.7038,0.7038,0.7038,0.7058,0.7095,0.7095,0.7095,-0.5356,0.0,0.0,0.0,0.0,0.0,0.0,0.0,0.0,0.0,0.0,0.0,0.0,0.0,0.0,0.0,0.0,0.0,0.0,0.0,0.0,0.0,0.0,0.0,0.0,0.0,0.0,0.0,-0.5235,-0.5146,-0.5015,-0.4659,-0.4346,-0.4078,-0.336,-0.2689,-0.2062,-0.1256,-0.0359,0.0628,0.1166,0.1391,0.1391,0.1391,0.1405,0.1429,0.1429,0.1485,0.1502,0.1515,0.1523,0.1525,0.1522,0.1749,0.2113,0.26,0.3328,0.4252,0.5257,0.595,0.6493,0.6948,0.7095,0.7095,0.7095,0.7095,0.7095,0.7095,0.7095,0.7095,0.7095,0.7095,0.7095,0.7095,0.7095,0.7095,0.7095,0.7095,0.7095,0.7095,0.7095,0.7095,0.7095,0.7095,0.7095,0.7095,0.7095,0.7095,0.7095,0.7095,0.7095,0.7095,0.7095,0.7095,0.7095,0.7095,0.7095,0.7095,0.7095,0.7095,0.7095,0.7095,0.7095,0.7095,0.7095,0.7095,0.7095,0.7095,0.7095,0.7095,0.7095,0.7095,0.0,0.0,0.0,0.0,0.0,0.0,0.0,0.0,0.0,0.0,0.0,0.0,0.0,0.0,0.0,0.0,0.0,0.0,0.0,0.0,0.0,0.0,0.0,0.0,0.0,0.0,0.0,0.0,-0.4966,-0.4879,-0.4705,-0.4346,-0.3898,-0.3452,-0.2644,-0.1837,-0.1031,-0.0314,0.0448,0.1166,0.1345,0.1391,0.1391,0.1391,0.1391,0.1391,0.1391,0.1448,0.147,0.1478,0.1489,0.1455,0.1487,0.1799,0.2345,0.306,0.3891,0.4798,0.579,0.6431,0.68,0.7012,0.7095,0.7095,0.7095,0.7095,0.7095,0.7095,0.7095,0.7095,0.7095,0.7095,0.7095,0.7095,0.7095,0.7095,0.7095,0.7095,0.7095,0.7095,0.7095,0.7095,0.7095,0.7095,0.7095,0.7095,0.7095,0.7095,0.7095,0.7095,0.7095,0.7095,0.7095,0.7095,0.7095,0.7095,0.7095,0.7095,0.7095,0.7095,0.7095,0.7095,0.7095,0.7095,0.7095,0.7095,0.7095,0.7095,0.7095,0.7095,0.7095,0.7095,0.0,0.0,0.0,0.0,0.0,0.0,0.0,0.0,0.0,0.0,0.0,0.0,0.0,0.0,0.0,0.0,0.0,0.0,0.0,0.0,0.0,0.0,0.0,0.0,0.0,0.0,0.0,0.0,-0.4837,-0.4705,-0.4705,-0.4034,-0.3406,-0.2957,-0.1973,-0.1031,-0.009,0.0852,0.1345,0.1391,0.1391,0.1391,0.1391,0.1391,0.1391,0.1391,0.1391,0.1391,0.1395,0.1469,0.1465,0.1397,0.147,0.1921,0.2574,0.3515,0.4412,0.5322,0.6362,0.6842,0.6985,0.706,0.7095,0.7095,0.7095,0.7095,0.7095,0.7095,0.7095,0.7095,0.7095,0.7095,0.7095,0.7095,0.7095,0.7095,0.7095,0.7095,0.7095,0.7095,0.7095,0.7095,0.7095,0.7095,0.7095,0.7095,0.7095,0.7095,0.7095,0.7095,0.7095,0.7095,0.7095,0.7095,0.7095,0.7095,0.7095,0.7095,0.7095,0.7095,0.7095,0.7095,0.7095,0.7095,0.7095,0.7095,0.7095,0.7095,0.7095,0.7095,0.7095,0.7095,0.0,0.0,0.0,0.0,0.0,0.0,0.0,0.0,0.0,0.0,0.0,0.0,0.0,0.0,0.0,0.0,0.0,0.0,0.0,0.0,0.0,0.0,0.0,0.0,0.0,0.0,0.0,0.0,0.0,-0.4433,-0.4433,-0.3764,-0.3047,-0.2463,-0.1479,-0.0403,0.0718,0.1166,0.1391,0.1391,0.1391,0.1391,0.1391,0.1391,0.1391,0.1391,0.1391,0.1391,0.1391,0.1447,0.14,0.1391,0.1447,0.2003,0.2937,0.4004,0.5054,0.6029,0.6995,0.7369,0.7419,0.7196,0.7095,0.7095,0.7095,0.7095,0.7095,0.7095,0.7095,0.7095,0.7095,0.7382,0.7668,0.7668,0.7668,0.7668,0.7668,0.7668,0.7553,0.7173,0.7095,0.7095,0.7095,0.7095,0.7095,0.7095,0.7095,0.7095,0.7095,0.7095,0.7095,0.7095,0.7095,0.7095,0.7095,0.7095,0.7095,0.7095,0.7456,0.7668,0.7668,0.7668,0.7668,0.7668,0.7668,0.7479,0.7095,0.7095,0.7095,0.7095,0.7095,0.7304,-0.3675,0.0,0.0,0.0,0.0,0.0,0.0,0.0,0.0,0.0,0.0,0.0,0.0,0.0,0.0,0.0,0.0,0.0,0.0,0.0,0.0,0.0,0.0,0.0,0.0,0.0,0.0,0.0,0.0,0.0,-0.43,-0.3539,-0.2598,-0.1478,-0.0493,0.0403,0.1211,0.1345,0.1391,0.1391,0.1391,0.1391,0.1391,0.1391,0.1391,0.1391,0.1391,0.1391,0.1391,0.1391,0.1391,0.1391,0.1446,0.2056,0.3152,0.4326,0.5415,0.6438,0.7365,0.7682,0.7584,0.7216,0.7095,0.7095,0.7095,0.7095,0.7095,0.7095,0.7095,0.7142,0.7344,0.7692,0.7988,0.7988,0.7988,0.7988,0.7988,0.7988,0.7874,0.7473,0.7395,0.7395,0.7395,0.723,0.7095,0.7095,0.7095,0.7095,0.7095,0.7095,0.7095,0.7095,0.7095,0.7095,0.7095,0.7095,0.7183,0.7382,0.7769,0.7988,0.7988,0.7988,0.7988,0.7988,0.7988,0.7793,0.7395,0.7193,0.7095,0.7102,0.7304,0.7611,0.0,0.0,0.0,0.0,0.0,0.0,0.0,0.0,0.0,0.0,0.0,0.0,0.0,0.0,0.0,0.0,0.0,0.0,0.0,0.0,0.0,0.0,0.0,0.0,0.0,0.0,0.0,0.0,-0.4253,-0.4253,-0.4253,-0.336,-0.1971,-0.0045,0.0897,0.1391,0.1391,0.1391,0.1391,0.1391,0.1391,0.1391,0.1391,0.1391,0.1391,0.1391,0.1391,0.1391,0.1391,0.1391,0.1391,0.1395,0.1469,0.2129,0.3163,0.4338,0.5424,0.6454,0.7472,0.7726,0.756,0.7196,0.7102,0.7109,0.7098,0.7109,0.7122,0.7122,0.7122,0.7257,0.784,0.7988,0.7988,0.7988,0.7988,0.7988,0.7988,0.7988,0.7988,0.7988,0.7988,0.7988,0.7988,0.7506,0.7115,0.7098,0.7112,0.7122,0.7122,0.7122,0.7115,0.7098,0.7095,0.7095,0.7095,0.7112,0.7371,0.7951,0.7988,0.7988,0.7988,0.7988,0.7988,0.7988,0.7988,0.7988,0.7988,0.7405,0.7122,0.7136,0.7719,0.8041,-0.336,0.0,0.0,0.0,0.0,0.0,0.0,0.0,0.0,0.0,0.0,0.0,0.0,0.0,0.0,0.0,0.0,0.0,0.0,0.0,0.0,0.0,0.0,0.0,0.0,0.0,0.0,0.0,-0.363,-0.3449,-0.3314,-0.2016,-0.0807,0.0269,0.1031,0.1391,0.1391,0.1391,0.1391,0.1391,0.1391,0.1391,0.1391,0.1391,0.1391,0.1391,0.1391,0.1391,0.1391,0.1391,0.1448,0.1469,0.1478,0.2166,0.3286,0.4382,0.5471,0.6523,0.7459,0.7858,0.7783,0.7264,0.7247,0.7431,0.7162,0.7398,0.7742,0.7742,0.7742,0.7779,0.7944,0.7988,0.7988,0.7988,0.7988,0.7988,0.7988,0.7988,0.7988,0.7988,0.7988,0.7988,0.7988,0.7853,0.7594,0.7159,0.7466,0.7742,0.7742,0.7742,0.7577,0.7142,0.7095,0.7095,0.7095,0.7493,0.7813,0.7978,0.7988,0.7988,0.7988,0.7988,0.7988,0.7988,0.7988,0.7988,0.7988,0.7823,0.7742,0.7746,0.7911,0.8435,-0.3584,-0.3674,0.0,0.0,0.0,0.0,0.0,-0.4133,0.0,0.0,0.0,0.0,0.0,0.0,0.0,0.0,0.0,0.0,0.0,0.0,0.0,0.0,0.0,0.0,0.0,-0.3989,-0.3631,-0.3317,-0.3002,-0.2553,-0.2016,-0.0986,-0.0134,0.0493,0.1076,0.1391,0.1391,0.1391,0.1391,0.1391,0.1391,0.1391,0.1391,0.1391,0.1391,0.1391,0.1391,0.1391,0.1391,0.1391,0.1453,0.1482,0.1495,0.2196,0.3338,0.439,0.5475,0.6526,0.7543,0.7874,0.7847,0.7564,0.7476,0.7529,0.7473,0.7712,0.7988,0.7988,0.7988,0.7988,0.7988,0.7988,0.7988,0.7988,0.7988,0.7988,0.7988,0.7988,0.7988,0.7988,0.7988,0.7988,0.7988,0.7988,0.787,0.7523,0.7766,0.7988,0.7988,0.7988,0.7857,0.7506,0.7887,0.8166,0.8166,0.8467,0.8485,0.8038,0.8435,0.8684,0.8684,0.8684,0.8435,0.7988,0.7988,0.7988,0.7988,0.7988,0.7988,0.7988,0.8435,0.8981,-0.4045,-0.4031,0.0,0.0,0.0,0.0,-0.3733,-0.3819,-0.3946,0.0,0.0,0.0,0.0,0.0,0.0,0.0,0.0,0.0,0.0,0.0,0.0,0.0,0.0,0.0,-0.415,-0.3707,-0.322,-0.2777,-0.2239,-0.1568,-0.0628,-0.0179,0.0269,0.0718,0.1166,0.1391,0.1391,0.1391,0.1391,0.1391,0.1391,0.1391,0.1391,0.1391,0.1391,0.1391,0.1391,0.1391,0.1391,0.1391,0.1455,0.1488,0.1515,0.2174,0.3352,0.4399,0.5479,0.6537,0.764,0.7901,0.7858,0.7928,0.7735,0.7523,0.7857,0.7971,0.7988,0.7988,0.7988,0.7988,0.7988,0.7988,0.7988,0.7988,0.7988,0.7988,0.7988,0.7988,0.7988,0.7988,0.7988,0.7988,0.7988,0.7988,0.7988,0.7988,0.7988,0.7988,0.7988,0.7988,0.7988,0.7988,0.8981,0.9723,1.0113,0.992,0.9278,0.8091,0.9031,0.9776,1.0113,0.992,0.9229,0.8041,0.7988,0.7988,0.7988,0.7988,0.8038,0.8187,0.9179,0.9579,-0.4351,-0.429,-0.4098,-0.3858,0.0,0.0,-0.3382,-0.3575,-0.3832,0.0,0.0,0.0,0.0,0.0,0.0,0.0,0.0,0.0,0.0,0.0,0.0,0.0,0.0,0.0,-0.3138,-0.2665,-0.2202,-0.1747,-0.0896,-0.0269,0.0179,0.0403,0.0718,0.1031,0.1256,0.1391,0.1391,0.1391,0.1391,0.1391,0.1391,0.1391,0.1391,0.1391,0.1391,0.1391,0.1391,0.1391,0.1391,0.1391,0.1422,0.1517,0.1523,0.2192,0.3313,0.442,0.5479,0.6537,0.764,0.7971,0.7931,0.7885,0.7837,0.7857,0.7776,0.786,0.7988,0.7988,0.7988,0.7988,0.7988,0.7988,0.7988,0.7988,0.7988,0.7988,0.7988,0.7988,0.7988,0.7988,0.7988,0.7988,0.7988,0.7988,0.7988,0.7988,0.7988,0.7988,0.7988,0.7988,0.7988,0.7988,0.8981,1.065,1.3178,1.1873,1.0064,0.8137,0.9031,1.0748,1.3275,1.1775,0.9961,0.8038,0.7988,0.7988,0.7988,0.7988,0.8435,0.9282,0.948,0.9579,-0.4632,-0.455,-0.4336,-0.4067,0.0,0.0,0.0,-0.3567,-0.3715,-0.3801,0.0,0.0,0.0,0.0,0.0,0.0,0.0,0.0,0.0,0.0,0.0,0.0,0.0,0.0,-0.2218,-0.1708,-0.116,-0.0434,0.0261,0.0742,0.0882,0.1015,0.1109,0.1256,0.1345,0.1391,0.1391,0.1391,0.1391,0.1391,0.1391,0.1391,0.1391,0.1391,0.1391,0.1391,0.1391,0.1391,0.1391,0.1391,0.1599,0.1834,0.1899,0.2571,0.3684,0.4814,0.5784,0.6739,0.769,0.7988,0.7978,0.7901,0.7928,0.7971,0.787,0.7911,0.7988,0.7988,0.7988,0.7988,0.7988,0.7988,0.7988,0.7988,0.7988,0.7988,0.7988,0.7988,0.7988,0.7988,0.7988,0.7988,0.7988,0.7988,0.7988,0.7988,0.7988,0.7988,0.7988,0.7988,0.7988,0.7988,0.8981,1.0458,1.2554,1.1287,0.9719,0.8088,0.9031,1.0551,1.2646,1.1238,0.962,0.8038,0.7988,0.8287,0.8783,0.8783,0.908,0.9579,0.9579,0.9579,0.0,0.0,0.0,0.0,0.0,-0.3923,0.0,0.0,0.0,-0.3701,0.0,0.0,0.0,0.0,0.0,0.0,0.0,0.0,0.0,0.0,0.0,0.0,0.0,0.0,-0.1285,-0.0791,-0.0209,0.0631,0.1049,0.1309,0.138,0.1387,0.1401,0.1381,0.1387,0.1391,0.1391,0.1391,0.1391,0.1391,0.1391,0.1391,0.1391,0.1391,0.1391,0.1391,0.1391,0.1391,0.1391,0.1391,0.1722,0.226,0.2407,0.313,0.4172,0.5347,0.6239,0.6992,0.7739,0.7988,0.7988,0.7988,0.7988,0.7988,0.7988,0.7988,0.7988,0.7988,0.7988,0.7988,0.7988,0.7988,0.7988,0.7988,0.7988,0.7988,0.7988,0.7988,0.7988,0.7988,0.7988,0.7988,0.7988,0.7988,0.7988,0.7988,0.7988,0.7988,0.7988,0.7988,0.7988,0.7988,0.8783,0.9616,1.0342,0.9739,0.8931,0.8038,0.8832,0.9673,1.0551,0.9969,0.9183,0.8336,0.8287,0.8733,0.9579,0.9579,0.9723,0.992,1.0117,1.0408,0.0,0.0,0.0,0.0,-0.4185,0.0,0.0,0.0,-0.3558,-0.346,0.0,0.0,0.0,0.0,0.0,0.0,0.0,0.0,0.0,0.0,0.0,0.0,0.0,0.0,0.0,0.0161,0.0577,0.0925,0.1157,0.1321,0.1309,0.1376,0.1392,0.1395,0.1421,0.1391,0.1391,0.1391,0.1391,0.1391,0.1391,0.1391,0.1391,0.1391,0.1391,0.1391,0.1391,0.1391,0.1391,0.1391,0.1842,0.2487,0.286,0.3657,0.4759,0.5894,0.6686,0.7238,0.7789,0.7988,0.7988,0.7988,0.7988,0.7988,0.7988,0.7988,0.7988,0.7988,0.7988,0.7988,0.7988,0.7988,0.7988,0.7988,0.7988,0.7988,0.7988,0.7988,0.7988,0.7988,0.7988,0.7988,0.7988,0.7988,0.7988,0.7988,0.7988,0.7988,0.7988,0.7988,0.7988,0.7988,0.8088,0.8014,0.76,0.7924,0.8141,0.7988,0.8137,0.8237,0.8336,0.9179,0.9529,0.9426,0.9426,0.948,0.9579,0.9579,1.0068,1.1047,1.198,1.3377,0.0,0.0,0.0,0.0,0.0,0.0,-0.3589,0.0,-0.3695,0.0,0.0,0.0,0.0,0.0,0.0,0.0,0.0,0.0,0.0,0.0,0.0,0.0,0.0,0.0,0.0,0.0,0.0,0.0,0.1192,0.1245,0.1293,0.134,0.1373,0.139,0.142,0.1391,0.1391,0.1391,0.1391,0.1391,0.1391,0.1391,0.1391,0.1391,0.1391,0.1391,0.1391,0.1391,0.1391,0.1391,0.1929,0.2835,0.3698,0.4492,0.5266,0.6418,0.7089,0.7494,0.7889,0.7988,0.7988,0.7988,0.7988,0.7988,0.7988,0.7988,0.7988,0.7988,0.7988,0.7988,0.7988,0.7988,0.7988,0.7988,0.7988,0.7988,0.7988,0.7988,0.7988,0.7988,0.7988,0.7988,0.7988,0.7988,0.7988,0.7988,0.7988,0.7988,0.7988,0.7988,0.7988,0.7988,0.7988,0.7887,0.7634,0.7843,0.7988,0.7988,0.7988,0.8287,0.8882,0.9377,0.9579,0.9579,0.9579,0.992,1.0511,1.1145,1.1975,1.3039,1.4052,1.4968,-0.5179,0.0,0.0,0.0,0.0,0.0,0.0,0.0,0.0,0.0,0.0,0.0,0.0,0.0,0.0,0.0,0.0,0.0,0.0,0.0,0.0,0.0,0.0,0.0,0.0,0.0,0.0,0.0,0.0,0.1217,0.128,0.131,0.1315,0.1378,0.1371,0.1391,0.1391,0.1391,0.1391,0.1391,0.1391,0.1391,0.1391,0.1391,0.1391,0.1391,0.1391,0.1436,0.1525,0.157,0.2196,0.3195,0.4447,0.5228,0.5828,0.6993,0.754,0.7739,0.7892,0.7928,0.7934,0.7975,0.7988,0.7988,0.7988,0.7988,0.7988,0.7988,0.7988,0.7988,0.7988,0.7988,0.7988,0.7988,0.7988,0.7988,0.7988,0.7988,0.7988,0.7988,0.7988,0.7988,0.7988,0.7988,0.7988,0.7988,0.7988,0.7988,0.7988,0.7988,0.7928,0.7762,0.7891,0.7988,0.7988,0.7988,0.8137,0.8435,0.8435,0.8783,0.9579,0.9579,0.9579,0.9579,0.9579,1.0265,1.1634,1.2948,1.401,1.4729,1.5445,1.5784,0.0,0.0,0.0,-0.4384,0.0,0.0,0.0,0.0,-0.3812,0.0,0.0,0.0,0.0,0.0,0.0,-0.2981,0.0,0.0,0.0,0.0,0.0,0.0,0.0,0.0,0.0,0.0,0.0,0.0,0.1139,0.0,0.121,0.1258,0.1306,0.1307,0.1361,0.1391,0.1391,0.1391,0.1391,0.1391,0.1391,0.1391,0.1391,0.1391,0.1391,0.1391,0.1391,0.1525,0.1794,0.2064,0.2736,0.369,0.496,0.5887,0.6584,0.7583,0.7988,0.7968,0.7872,0.7818,0.7841,0.7941,0.7988,0.7988,0.7988,0.7988,0.7988,0.7988,0.7988,0.7988,0.7988,0.7988,0.7988,0.7988,0.7988,0.7988,0.7988,0.7988,0.7988,0.7988,0.7988,0.7988,0.7988,0.7988,0.7988,0.7988,0.7988,0.7988,0.7988,0.7988,0.7766,0.7186,0.7641,0.7988,0.7988,0.7988,0.8435,0.948,0.9529,0.9579,0.9579,0.9579,0.9579,0.9579,0.9579,1.0659,1.2764,1.4729,1.5737,1.5737,1.5784,1.5784,0.0,0.0,-0.418,-0.3859,0.0,0.0,0.0,0.0,0.0,0.0,0.0,0.0,0.0,0.0,-0.2682,-0.2481,-0.1814,0.0,0.0,0.0,0.0,0.0,0.0,0.0,0.0,0.0,0.0,0.0,0.1087,0.0,0.0,0.1269,0.1286,0.1305,0.1385,0.1415,0.139,0.1391,0.1391,0.1391,0.1391,0.1391,0.1391,0.1391,0.1391,0.1391,0.1391,0.166,0.2109,0.2511,0.3252,0.4304,0.5496,0.6362,0.6988,0.7717,0.7988,0.7982,0.7931,0.7914,0.7921,0.7971,0.7988,0.7988,0.7988,0.7988,0.7988,0.7988,0.7988,0.7988,0.7988,0.7988,0.7988,0.7988,0.7988,0.7988,0.7988,0.7988,0.7988,0.7988,0.7988,0.7988,0.7988,0.7988,0.7988,0.7988,0.7988,0.7988,0.7988,0.7988,0.7911,0.7709,0.787,0.7988,0.7988,0.8634,0.9525,1.0605,1.134,1.1731,1.1731,1.1731,1.1731,1.1731,1.1731,1.2414,1.3817,1.5159,1.5784,1.5784,1.5784,1.5784,-0.466,-0.4168,0.0,-0.3125,-0.3064,0.0,-0.328,0.0,0.0,0.0,0.0,0.0,0.0,0.0,0.0,-0.1648,-0.1038,0.0,0.0,0.0333,0.0,0.0,0.0,0.0,0.0,0.0,0.1001,0.0999,0.106,0.0,0.0,0.0,0.1305,0.1304,0.1375,0.1405,0.139,0.1391,0.1391,0.1391,0.1391,0.1391,0.1391,0.1391,0.1436,0.157,0.166,0.2018,0.2603,0.3205,0.4012,0.4991,0.6075,0.6813,0.7298,0.7836,0.7955,0.7917,0.7971,0.7955,0.7917,0.7971,0.7988,0.7988,0.7988,0.7988,0.7988,0.7988,0.7988,0.7988,0.7988,0.7988,0.7988,0.7988,0.7988,0.7988,0.7988,0.7988,0.7988,0.7988,0.8287,0.8584,0.8584,0.8584,0.8435,0.8038,0.7988,0.7988,0.7988,0.7988,0.7988,0.7988,0.7988,0.7988,0.7988,0.8985,1.0216,1.1683,1.3093,1.3865,1.3865,1.3865,1.3865,1.3865,1.3865,1.4202,1.4825,1.5493,1.5784,1.5784,1.5784,1.5784]}]]